[[{"header":{"parameterUnit":"m.s-1","parameterCategory":1,"la1":30.6,"la2":29.2853,"lo1":-89.7004,"lo2":-87.6739,"dy":0.0162,"dx":0.0183,"nx":112,"ny":82,"refTime":"2024-06-23T00:00:00:Z","depth":0,"parameterNumber":2,"parameterNumberName":"U-component_of_WINDS"},"data":[0.0,0.0,0.0,0.0,0.0,0.0,0.0,0.0,0.0,0.0,0.0,0.0,0.0,0.0,0.0,0.0,0.0,0.0,0.0,0.0,0.0,0.0,0.0,0.0,0.0,0.0,0.0,0.0,0.0,0.0,0.0,0.0,0.0,0.0,0.0,0.0,0.0,0.0,0.0,0.0,0.0,0.0,0.0,0.0,0.0,0.0,0.0,0.0,0.0,0.0,0.0,0.0,0.0,0.0,0.0,0.0,0.0,0.0,0.0,0.0,0.0,0.0,0.0,0.0,0.0,0.0,0.0,0.0,0.0,0.0,0.0,0.0,0.0,0.0,0.0,0.0,0.0,0.0,0.0,0.0,0.0,0.0,0.0,0.0,0.0,0.0,0.0,0.0,0.0,0.0,0.0,-2.3459,-2.6832,-2.8662,-2.816,-2.7519,-2.5536,-2.1732,0.0,0.0,0.0,0.0,0.0,0.0,0.0,0.0,0.0,0.0,0.0,0.0,0.0,0.0,0.0,0.0,0.0,0.0,0.0,0.0,0.0,0.0,0.0,0.0,0.0,0.0,0.0,0.0,0.0,0.0,0.0,0.0,0.0,0.0,0.0,0.0,0.0,0.0,0.0,0.0,0.0,0.0,0.0,0.0,0.0,0.0,0.0,0.0,0.0,0.0,0.0,0.0,0.0,0.0,0.0,0.0,0.0,0.0,0.0,0.0,0.0,0.0,0.0,0.0,0.0,0.0,0.0,0.0,0.0,0.0,0.0,0.0,0.0,0.0,0.0,0.0,0.0,0.0,0.0,0.0,0.0,0.0,0.0,0.0,0.0,0.0,0.0,0.0,0.0,0.0,0.0,0.0,0.0,0.0,0.0,0.0,0.0,0.0,0.0,0.0,0.0,0.0,0.0,0.0,-2.1051,-2.6113,-2.8009,-2.8662,-2.816,-2.7203,-2.5167,-2.1707,0.0,0.0,0.0,0.0,0.0,0.0,0.0,0.0,0.0,0.0,0.0,0.0,0.0,0.0,0.0,0.0,0.0,0.0,0.0,0.0,0.0,0.0,0.0,0.0,0.0,0.0,0.0,0.0,0.0,0.0,0.0,0.0,0.0,0.0,0.0,0.0,0.0,0.0,0.0,0.0,0.0,0.0,0.0,0.0,0.0,0.0,0.0,0.0,0.0,0.0,0.0,0.0,0.0,0.0,0.0,0.0,0.0,0.0,0.0,0.0,0.0,0.0,0.0,0.0,0.0,0.0,0.0,0.0,0.0,0.0,0.0,0.0,0.0,0.0,0.0,0.0,0.0,0.0,0.0,0.0,0.0,0.0,0.0,0.0,0.0,0.0,0.0,0.0,0.0,0.0,0.0,0.0,0.0,0.0,0.0,0.0,0.0,0.0,0.0,0.0,0.0,0.0,0.0,-2.074,-2.3263,-2.7293,-2.8725,-2.9051,-2.8185,-2.7128,-2.5066,-2.1694,-1.966,0.0,0.0,0.0,0.0,0.0,0.0,0.0,0.0,0.0,0.0,0.0,0.0,0.0,0.0,0.0,0.0,0.0,0.0,0.0,0.0,0.0,0.0,0.0,0.0,0.0,0.0,0.0,0.0,0.0,0.0,0.0,0.0,0.0,0.0,0.0,0.0,0.0,0.0,0.0,0.0,0.0,0.0,0.0,0.0,0.0,0.0,0.0,0.0,0.0,0.0,0.0,0.0,0.0,0.0,0.0,0.0,0.0,0.0,0.0,0.0,0.0,0.0,0.0,0.0,0.0,0.0,0.0,0.0,0.0,0.0,0.0,0.0,0.0,0.0,0.0,0.0,0.0,0.0,0.0,0.0,0.0,0.0,0.0,0.0,0.0,0.0,0.0,0.0,0.0,0.0,0.0,0.0,0.0,0.0,0.0,0.0,0.0,0.0,0.0,0.0,0.0,0.0,-2.374,-2.5485,-2.7858,-2.9114,-2.934,-2.8197,-2.6854,-2.4789,-2.1681,-1.9045,0.0,0.0,0.0,0.0,0.0,0.0,0.0,0.0,0.0,0.0,0.0,0.0,0.0,0.0,0.0,0.0,0.0,0.0,0.0,0.0,0.0,0.0,0.0,0.0,0.0,0.0,0.0,0.0,0.0,0.0,0.0,0.0,0.0,0.0,0.0,0.0,0.0,0.0,0.0,0.0,0.0,0.0,0.0,0.0,0.0,0.0,0.0,0.0,0.0,0.0,0.0,0.0,0.0,0.0,0.0,0.0,0.0,0.0,0.0,0.0,0.0,0.0,0.0,0.0,0.0,0.0,0.0,0.0,0.0,0.0,0.0,0.0,0.0,0.0,0.0,0.0,0.0,0.0,0.0,0.0,0.0,0.0,0.0,0.0,0.0,0.0,0.0,0.0,0.0,0.0,0.0,0.0,0.0,0.0,0.0,0.0,0.0,0.0,0.0,0.0,0.0,0.0,-2.406,-2.6788,-2.7971,-2.9114,-2.934,-2.8197,-2.6163,-2.3954,-2.1631,-1.7953,0.0,0.0,0.0,0.0,0.0,0.0,0.0,0.0,0.0,0.0,0.0,0.0,0.0,0.0,0.0,0.0,0.0,0.0,0.0,0.0,0.0,0.0,0.0,0.0,0.0,0.0,0.0,0.0,0.0,0.0,0.0,0.0,0.0,0.0,0.0,0.0,0.0,0.0,0.0,0.0,0.0,0.0,0.0,0.0,0.0,0.0,0.0,0.0,0.0,0.0,0.0,0.0,0.0,0.0,0.0,0.0,0.0,0.0,0.0,0.0,0.0,0.0,0.0,0.0,0.0,0.0,0.0,0.0,0.0,0.0,0.0,0.0,0.0,0.0,0.0,0.0,0.0,0.0,0.0,0.0,0.0,0.0,0.0,0.0,0.0,0.0,0.0,0.0,0.0,0.0,0.0,0.0,0.0,0.0,0.0,0.0,0.0,0.0,0.0,0.0,0.0,0.0,-2.3407,-2.5737,0.0,-2.8486,-2.8574,-2.8147,-2.6389,-2.4217,-2.1644,0.0,0.0,0.0,0.0,0.0,0.0,0.0,0.0,0.0,0.0,0.0,0.0,0.0,0.0,0.0,0.0,0.0,0.0,0.0,0.0,0.0,0.0,0.0,0.0,0.0,0.0,0.0,0.0,0.0,0.0,0.0,0.0,0.0,0.0,0.0,0.0,0.0,0.0,0.0,0.0,0.0,0.0,0.0,0.0,0.0,0.0,0.0,0.0,0.0,0.0,0.0,0.0,0.0,0.0,0.0,0.0,0.0,0.0,0.0,0.0,0.0,0.0,0.0,0.0,0.0,0.0,0.0,0.0,0.0,0.0,0.0,0.0,0.0,0.0,0.0,0.0,0.0,0.0,0.0,0.0,0.0,0.0,0.0,0.0,0.0,0.0,0.0,0.0,0.0,0.0,0.0,0.0,0.0,0.0,0.0,0.0,0.0,0.0,0.0,0.0,0.0,0.0,-2.0953,-2.3444,-2.5636,0.0,-2.826,-2.8298,-2.8122,-2.6088,-2.3791,-2.1408,0.0,0.0,0.0,0.0,0.0,0.0,0.0,0.0,0.0,0.0,0.0,0.0,0.0,0.0,0.0,0.0,0.0,0.0,0.0,0.0,0.0,0.0,0.0,0.0,0.0,0.0,0.0,0.0,0.0,0.0,0.0,0.0,0.0,0.0,0.0,0.0,0.0,0.0,0.0,0.0,0.0,0.0,0.0,0.0,0.0,0.0,0.0,0.0,0.0,0.0,0.0,0.0,0.0,0.0,0.0,0.0,0.0,0.0,0.0,0.0,0.0,0.0,0.0,0.0,0.0,0.0,0.0,0.0,0.0,0.0,0.0,0.0,0.0,0.0,0.0,0.0,0.0,0.0,0.0,0.0,0.0,0.0,0.0,0.0,0.0,0.0,0.0,0.0,0.0,0.0,0.0,0.0,0.0,0.0,0.0,0.0,0.0,0.0,0.0,0.0,0.0,0.0,-2.1054,-2.4425,-2.6914,-2.7984,-2.8549,-2.865,-2.8147,-2.5026,-2.2406,0.0,0.0,0.0,0.0,0.0,0.0,0.0,0.0,0.0,0.0,0.0,0.0,0.0,0.0,0.0,0.0,0.0,0.0,0.0,0.0,0.0,0.0,0.0,0.0,0.0,0.0,0.0,0.0,0.0,0.0,0.0,0.0,0.0,0.0,0.0,0.0,0.0,0.0,0.0,0.0,0.0,0.0,0.0,0.0,0.0,0.0,0.0,0.0,0.0,0.0,0.0,0.0,0.0,0.0,0.0,0.0,0.0,0.0,0.0,0.0,0.0,0.0,0.0,0.0,0.0,0.0,0.0,0.0,0.0,0.0,0.0,0.0,0.0,0.0,0.0,0.0,0.0,0.0,0.0,0.0,0.0,0.0,0.0,0.0,0.0,0.0,0.0,0.0,0.0,0.0,0.0,0.0,0.0,0.0,0.0,0.0,0.0,0.0,0.0,0.0,0.0,0.0,0.0,-2.1054,-2.4073,-2.6427,-2.7946,-2.7896,-2.7858,-2.8084,-2.5423,-2.3037,-2.1383,0.0,0.0,0.0,0.0,0.0,0.0,0.0,0.0,0.0,0.0,0.0,0.0,0.0,0.0,0.0,0.0,0.0,0.0,0.0,0.0,0.0,0.0,0.0,0.0,0.0,0.0,0.0,0.0,0.0,0.0,0.0,0.0,0.0,0.0,0.0,0.0,0.0,0.0,0.0,0.0,0.0,0.0,0.0,0.0,0.0,0.0,0.0,0.0,0.0,0.0,0.0,0.0,0.0,0.0,0.0,0.0,0.0,0.0,0.0,0.0,0.0,0.0,0.0,0.0,0.0,0.0,0.0,0.0,0.0,0.0,0.0,0.0,0.0,0.0,0.0,0.0,0.0,0.0,0.0,0.0,0.0,0.0,0.0,0.0,0.0,0.0,0.0,0.0,0.0,0.0,0.0,0.0,0.0,0.0,0.0,0.0,0.0,0.0,0.0,0.0,0.0,0.0,-2.1091,-2.4123,-2.6502,-2.7946,-2.7808,-2.7745,-2.8084,-2.5586,-2.3188,-2.1307,0.0,0.0,0.0,0.0,0.0,0.0,0.0,0.0,0.0,0.0,0.0,0.0,0.0,0.0,0.0,0.0,0.0,0.0,0.0,0.0,0.0,0.0,0.0,0.0,0.0,0.0,0.0,0.0,0.0,0.0,0.0,0.0,0.0,0.0,0.0,0.0,0.0,0.0,0.0,0.0,0.0,0.0,0.0,0.0,0.0,0.0,0.0,0.0,0.0,0.0,0.0,0.0,0.0,0.0,0.0,0.0,0.0,0.0,0.0,0.0,0.0,0.0,0.0,0.0,0.0,0.0,0.0,0.0,0.0,0.0,0.0,0.0,0.0,0.0,0.0,0.0,0.0,0.0,0.0,0.0,0.0,0.0,0.0,0.0,0.0,0.0,0.0,0.0,0.0,0.0,0.0,0.0,0.0,0.0,0.0,0.0,0.0,0.0,0.0,0.0,0.0,0.0,-2.1204,-2.4513,-2.7002,-2.8059,-2.8134,-2.8109,-2.8109,-2.5636,-2.3163,-2.1056,0.0,0.0,0.0,0.0,0.0,0.0,0.0,0.0,0.0,0.0,0.0,0.0,0.0,0.0,0.0,0.0,0.0,0.0,0.0,0.0,0.0,0.0,0.0,0.0,0.0,0.0,0.0,0.0,0.0,0.0,0.0,0.0,0.0,0.0,0.0,0.0,0.0,0.0,0.0,0.0,0.0,0.0,0.0,0.0,0.0,0.0,0.0,0.0,0.0,0.0,0.0,0.0,0.0,0.0,0.0,0.0,0.0,0.0,0.0,0.0,-1.799,0.0,0.0,0.0,0.0,0.0,0.0,0.0,0.0,0.0,0.0,0.0,0.0,0.0,0.0,0.0,0.0,0.0,0.0,0.0,0.0,0.0,0.0,0.0,0.0,0.0,0.0,0.0,0.0,0.0,0.0,0.0,0.0,0.0,0.0,0.0,0.0,0.0,0.0,0.0,0.0,0.0,-2.1782,-2.5046,-2.7532,-2.8599,-2.836,-2.8109,-2.8109,-2.5975,-2.4067,-2.2656,0.0,0.0,0.0,0.0,0.0,0.0,0.0,0.0,0.0,0.0,0.0,0.0,0.0,0.0,0.0,0.0,0.0,0.0,0.0,0.0,0.0,0.0,0.0,0.0,0.0,0.0,0.0,0.0,0.0,0.0,0.0,0.0,0.0,0.0,0.0,0.0,0.0,0.0,0.0,0.0,0.0,0.0,0.0,0.0,0.0,0.0,0.0,0.0,0.0,0.0,0.0,0.0,0.0,0.0,0.0,0.0,0.0,0.0,0.0,0.0,0.0,-1.9899,0.0,0.0,0.0,0.0,0.0,0.0,0.0,0.0,0.0,0.0,0.0,0.0,0.0,0.0,0.0,0.0,0.0,0.0,0.0,0.0,0.0,0.0,0.0,0.0,0.0,0.0,0.0,0.0,0.0,0.0,0.0,0.0,0.0,0.0,0.0,0.0,0.0,0.0,0.0,0.0,-2.2355,-2.5385,-2.7708,-2.8775,-2.8637,-2.8398,-2.8134,-2.6565,-2.4908,-2.3208,-2.1001,0.0,0.0,0.0,0.0,0.0,0.0,0.0,0.0,0.0,0.0,0.0,0.0,0.0,0.0,0.0,0.0,0.0,0.0,0.0,0.0,0.0,0.0,0.0,0.0,0.0,0.0,0.0,0.0,0.0,0.0,0.0,0.0,0.0,0.0,0.0,0.0,0.0,0.0,0.0,0.0,0.0,0.0,0.0,0.0,0.0,0.0,0.0,0.0,0.0,0.0,0.0,0.0,0.0,0.0,-2.4996,-2.4437,-2.5465,-2.5963,-2.5854,-2.4494,-2.3735,-2.3384,0.0,0.0,0.0,0.0,0.0,0.0,0.0,0.0,0.0,0.0,0.0,0.0,0.0,0.0,0.0,0.0,0.0,0.0,0.0,0.0,0.0,0.0,0.0,0.0,0.0,-2.4612,-2.4462,0.0,0.0,0.0,0.0,0.0,0.0,0.0,0.0,0.0,0.0,0.0,0.0,-2.312,-2.585,-2.7959,-2.8925,-2.895,-2.8662,-2.816,-2.718,-2.577,-2.3659,-2.2435,-2.0567,0.0,0.0,0.0,0.0,0.0,0.0,0.0,0.0,0.0,0.0,0.0,0.0,0.0,0.0,0.0,0.0,0.0,0.0,0.0,0.0,0.0,0.0,0.0,0.0,0.0,0.0,0.0,0.0,0.0,0.0,0.0,0.0,-1.5087,-1.5932,0.0,0.0,0.0,0.0,0.0,0.0,0.0,0.0,0.0,0.0,0.0,0.0,0.0,0.0,-2.3665,-2.6189,-2.7205,-2.6766,-2.9239,-3.0143,-2.9654,-3.0244,-3.052,-3.052,-3.0294,0.0,-2.5172,-2.3954,0.0,0.0,0.0,0.0,0.0,0.0,0.0,0.0,0.0,0.0,0.0,0.0,0.0,0.0,0.0,0.0,0.0,0.0,0.0,0.0,0.0,0.0,-2.7243,-2.6829,-2.7218,-2.7406,0.0,-2.3653,-2.1131,-2.0214,0.0,0.0,0.0,0.0,0.0,0.0,0.0,0.0,-2.4349,-2.6969,-2.8925,-2.9616,-2.9189,-2.8662,-2.816,-2.7532,-2.6628,-2.5347,-2.376,-2.2477,-2.1609,-1.8474,0.0,0.0,0.0,0.0,0.0,0.0,0.0,0.0,0.0,0.0,0.0,0.0,0.0,0.0,0.0,0.0,0.0,0.0,0.0,0.0,0.0,0.0,0.0,0.0,0.0,0.0,0.0,0.0,0.0,-1.4811,-1.6982,-1.6999,-1.7536,-1.7466,0.0,0.0,0.0,0.0,0.0,0.0,0.0,0.0,0.0,-2.4274,-2.5598,-2.6766,-2.7708,-2.9202,-2.9829,-2.9603,-3.0809,-3.1273,-3.106,-3.1286,-3.1386,-3.1386,-3.1386,-3.0419,-2.8725,-2.7005,-2.5649,-2.4481,0.0,0.0,0.0,0.0,0.0,-2.315,-2.4946,-2.5209,0.0,0.0,0.0,0.0,0.0,0.0,0.0,0.0,0.0,0.0,0.0,0.0,0.0,-2.8599,-2.8875,-2.8988,-2.875,-2.7105,-2.5146,0.0,-2.2648,-2.1506,-1.8832,0.0,0.0,0.0,0.0,0.0,-2.5573,-2.7607,-2.9113,-2.9729,-2.9566,-2.9063,-2.8185,-2.7883,-2.713,-2.5686,-2.4921,-2.396,-2.2794,-2.0585,-1.8471,0.0,0.0,0.0,0.0,0.0,0.0,0.0,0.0,0.0,0.0,0.0,0.0,0.0,0.0,0.0,0.0,0.0,0.0,0.0,0.0,0.0,0.0,0.0,0.0,0.0,0.0,0.0,0.0,-1.6683,-1.8503,-1.8264,-1.9308,-1.9622,0.0,0.0,0.0,0.0,0.0,0.0,-2.3514,-2.4644,-2.595,-2.7505,-2.8448,-2.9553,-3.0809,-3.1486,-3.1813,-3.1825,-3.2102,-3.224,-3.224,-3.224,-3.224,-3.224,-3.224,-3.224,-3.2064,-2.9716,-2.8185,-2.7216,-2.5799,-2.4996,-2.4687,-2.5528,-2.5766,-2.5988,-2.8034,-2.8473,-2.8072,-2.7693,0.0,-2.6399,-2.4695,0.0,0.0,0.0,0.0,-2.5975,-2.7344,-2.8122,-2.875,-2.9591,-2.9792,-2.9792,-2.9792,-2.9453,-2.8461,0.0,-2.5862,-2.5021,-2.1832,0.0,0.0,0.0,0.0,-2.5799,-2.6788,-2.821,-2.9315,-2.9741,-2.9792,-2.934,-2.8197,-2.8109,-2.7444,-2.5912,-2.5548,-2.4845,-2.3584,-2.2085,-2.0205,-1.7823,0.0,0.0,0.0,0.0,0.0,0.0,0.0,0.0,0.0,0.0,0.0,0.0,0.0,0.0,0.0,0.0,0.0,0.0,0.0,0.0,0.0,0.0,0.0,0.0,0.0,0.0,0.0,0.0,0.0,-2.0393,-2.1873,0.0,0.0,0.0,0.0,-2.3665,-2.428,-2.5322,-2.6942,-2.8084,-2.9176,-3.0369,-3.0934,-3.126,-3.1348,-3.2441,-3.2993,-3.3048,-3.406,-3.4505,-3.4505,-3.4505,-3.4505,-3.4505,-3.4505,-3.4505,-3.4304,-3.1612,-3.0143,-2.9566,-2.8925,-2.8624,-2.8612,-2.8662,-2.9352,-3.0306,-3.0444,-3.047,-3.0444,-3.0419,-2.8976,-2.7218,-2.7105,-2.6327,0.0,0.0,-2.7118,-2.8084,-2.865,-2.9277,-2.9729,-2.9779,-2.9792,-2.9792,-2.9792,-2.9767,-2.939,0.0,-2.7532,-2.6791,-2.5523,0.0,-2.5372,-2.531,-2.6364,-2.7369,-2.7946,-2.9038,-2.9767,-2.9792,-2.9792,-2.934,-2.8197,-2.8109,-2.762,-2.6524,-2.5435,-2.4788,-2.4713,-2.2334,-2.0229,-1.8589,-1.592,0.0,0.0,0.0,0.0,0.0,0.0,0.0,0.0,0.0,0.0,0.0,0.0,0.0,0.0,0.0,0.0,0.0,0.0,0.0,0.0,0.0,0.0,0.0,0.0,0.0,0.0,0.0,0.0,-2.276,-2.4267,0.0,0.0,-2.4117,-2.4895,-2.6025,-2.6954,-2.7998,-2.9352,-3.0118,-3.1035,-3.2164,-3.2378,-3.2817,-3.3533,-3.3935,-3.4135,-3.4135,-3.4537,-3.468,-3.468,-3.468,-3.468,-3.468,-3.468,-3.468,-3.4605,-3.3615,-3.2717,-3.1813,-3.0884,-3.052,-3.052,-3.052,-3.0771,-3.111,-3.111,-3.111,-3.111,-3.111,-3.057,-2.993,-2.993,-2.9641,-2.9365,-2.9578,-2.9917,-3.0269,-3.0457,-3.067,-3.0733,-3.0407,-3.0319,-3.0231,-2.9867,-2.9792,-2.9679,-2.9264,-2.8737,-2.7984,-2.6879,-2.6979,-2.6967,-2.6285,-2.7406,-2.8411,-2.8574,-2.9315,-2.9792,-2.9792,-2.9792,-2.934,-2.8197,-2.8109,-2.7469,-2.6,-2.5536,-2.5008,-2.4318,-2.3034,-2.1382,-1.9272,-1.7537,-1.5235,0.0,0.0,0.0,0.0,0.0,0.0,0.0,0.0,0.0,0.0,0.0,0.0,0.0,0.0,0.0,0.0,0.0,0.0,0.0,0.0,0.0,0.0,0.0,0.0,0.0,0.0,-2.4343,-2.4519,-2.6176,-2.6929,-2.5979,-2.6753,-2.767,-2.8599,-2.9352,-3.0256,-3.1386,-3.1775,-3.2478,-3.3596,-3.3633,-3.3985,-3.4668,-3.4856,-3.4956,-3.4956,-3.519,-3.5278,-3.5278,-3.5278,-3.5278,-3.5278,-3.5278,-3.5278,-3.5265,-3.5031,-3.4562,-3.3822,-3.288,-3.2516,-3.2491,-3.2303,-3.224,-3.2215,-3.2026,-3.1838,-3.1675,-3.1675,-3.1537,-3.1386,-3.1386,-3.1386,-3.1386,-3.1386,-3.1386,-3.1386,-3.1386,-3.1386,-3.1298,-3.0959,-3.0871,-3.0771,-3.0419,-3.0193,-3.0068,-3.0068,-2.9616,-2.8988,-2.826,-2.8436,-2.8423,-2.7731,-2.8511,-2.9176,-2.9176,-2.9553,-2.9792,-2.9792,-2.9792,-2.934,-2.8197,-2.7934,-2.7281,-2.5975,-2.536,-2.482,-2.4293,-2.3064,-2.1479,-1.9526,-1.7701,-1.5837,-1.3862,0.0,0.0,0.0,0.0,0.0,0.0,0.0,0.0,0.0,0.0,0.0,0.0,0.0,0.0,0.0,0.0,0.0,0.0,0.0,0.0,0.0,0.0,0.0,-2.241,-2.3866,-2.5121,-2.5661,-2.7657,-2.8775,-2.826,-2.9679,-3.0871,-3.1399,-3.1436,-3.1938,-3.3111,-3.3174,-3.3621,-3.4668,-3.4705,-3.4705,-3.4731,-3.5257,-3.552,-3.5533,-3.6107,-3.6405,-3.6405,-3.6405,-3.6405,-3.6405,-3.6405,-3.6405,-3.6367,-3.5793,-3.552,-3.547,-3.4906,-3.468,-3.4663,-3.4123,-3.3922,-3.3847,-3.3294,-3.2742,-3.2265,-3.224,-3.1876,-3.1436,-3.1436,-3.1436,-3.1436,-3.1436,-3.1436,-3.1436,-3.1436,-3.1436,-3.1436,-3.1424,-3.1411,-3.1411,-3.1386,-3.0997,-3.0633,-3.062,-3.0181,-2.9817,-2.9792,-2.9792,-2.9792,-2.9792,-2.9792,0.0,-2.9792,-2.9792,-2.9792,-2.9792,-2.9792,-2.9352,-2.8222,-2.762,-2.709,-2.6499,-2.4921,-2.4255,-2.4738,-2.2402,-2.0515,-1.9335,-1.6413,-1.5066,-1.5392,0.0,0.0,0.0,0.0,0.0,0.0,0.0,0.0,0.0,0.0,0.0,0.0,0.0,0.0,0.0,0.0,0.0,0.0,0.0,0.0,0.0,0.0,-2.4268,-2.4644,-2.6138,-2.7557,-2.8524,-2.9541,-3.0244,-3.047,-3.0909,-3.1574,-3.2583,-3.2616,-3.3106,-3.4211,-3.4274,-3.4587,-3.5257,-3.527,-3.5516,-3.5952,-3.6056,-3.6132,-3.6132,-3.6329,-3.6405,-3.6405,-3.6405,-3.6405,-3.6405,-3.6405,-3.6405,-3.6405,-3.6194,-3.6132,-3.6044,-3.509,-3.468,-3.4655,-3.455,-3.45,-3.4412,-3.3872,-3.3571,-3.337,-3.2968,-3.2729,-3.2616,-3.2616,-3.2616,-3.2616,-3.2616,-3.2616,-3.2616,-3.2616,-3.2616,-3.2503,-3.2089,-3.1989,-3.1876,-3.1474,-3.1273,-3.1072,-3.0683,-3.0495,-3.0269,-2.9867,-2.9792,-2.9792,-2.9792,-2.9792,0.0,-2.9792,-2.9792,-2.9792,-2.9792,-2.9792,-2.9503,-2.8725,-2.8197,-2.7293,0.0,-2.5059,-2.4481,-2.4243,-2.312,-2.1644,-1.9783,-1.8126,-1.6657,0.0,0.0,0.0,0.0,0.0,0.0,0.0,0.0,0.0,0.0,0.0,0.0,0.0,0.0,0.0,0.0,0.0,0.0,0.0,0.0,0.0,0.0,-2.5046,-2.6553,-2.7557,-2.8348,-2.9139,-3.003,-3.0821,-3.1399,-3.17,-3.2164,-3.2717,-3.337,-3.3633,-3.4148,-3.4969,-3.5019,-3.527,-3.5868,-3.5893,-3.6044,-3.6405,-3.6631,-3.6757,-3.6757,-3.6935,-3.7048,-3.7048,-3.7048,-3.7048,0.0,-3.7048,-3.6923,-3.6757,-3.6757,-3.6619,0.0,0.0,0.0,0.0,0.0,-3.4868,-3.4675,-3.4349,-3.4248,-3.4161,-3.3608,-3.342,-3.3382,-3.3156,-3.3124,-3.3124,-3.3124,-3.3124,-3.3124,-3.3124,-3.3124,-3.2993,-3.2654,-3.2579,-3.2491,-3.2164,-3.1901,-3.165,-3.1336,0.0,0.0,-3.0193,-2.9942,-2.9792,-2.9792,-2.9792,-2.9792,-2.9792,-2.9792,-2.9792,-2.9792,-2.9792,-2.9566,-2.8938,-2.8423,0.0,0.0,0.0,-2.4795,-2.4029,-2.3362,0.0,0.0,0.0,0.0,0.0,0.0,0.0,0.0,-1.621,-1.6219,0.0,0.0,0.0,0.0,0.0,0.0,0.0,0.0,0.0,0.0,0.0,0.0,0.0,0.0,0.0,0.0,-2.757,-2.8863,-3.047,-3.0331,-3.0244,-3.0733,-3.1637,-3.2265,-3.239,-3.3307,-3.3947,-3.4073,-3.4537,-3.5006,-3.5558,0.0,0.0,0.0,0.0,-3.6531,-3.6593,-3.7036,-3.7274,-3.7287,-3.7776,-3.8002,-3.8002,-3.8002,-3.8002,-3.8002,-3.8002,-3.7726,-3.7274,-3.7211,-3.6908,-3.6405,-3.6405,-3.6405,-3.6355,-3.5818,-3.5282,0.0,0.0,0.0,0.0,-3.4173,-3.3985,-3.3884,-3.3332,-3.3212,-3.3156,-3.3136,-3.3124,-3.3124,-3.3124,-3.3124,-3.3124,-3.3124,-3.3124,-3.3124,-3.3124,-3.2667,-3.229,-3.2227,-3.1399,-3.0683,-3.062,-3.0156,-2.9792,-2.9792,-2.9792,-2.9792,-2.9792,-2.9792,-2.9792,-2.9792,0.0,0.0,-2.9026,-2.8511,-2.7959,-2.7406,-2.6377,-2.536,-2.4406,-2.3793,-2.3316,-2.2897,-2.1373,-2.0804,-2.1308,-2.0472,-2.0264,-2.0625,-1.8252,-1.7759,0.0,0.0,0.0,0.0,0.0,0.0,0.0,0.0,0.0,0.0,0.0,0.0,0.0,0.0,0.0,-2.7482,-2.8737,-2.988,-3.1072,-3.1537,-3.1788,-3.1888,-3.2089,-3.2566,-3.3483,-3.3771,-3.4274,-3.5119,-3.5282,-3.5583,-3.6169,-3.6207,0.0,-3.701,-3.7023,-3.7236,-3.7688,-3.7789,-3.7852,-3.7852,0.0,0.0,-3.8002,-3.8002,-3.8002,-3.8002,-3.8002,-3.7952,-3.7814,-3.7362,-3.6908,-3.6405,-3.6405,-3.6405,-3.6405,-3.6292,-3.6179,-3.5981,-3.5495,-3.5345,-3.5257,-3.4738,-3.4562,-3.4462,-3.3909,-3.3746,0.0,-3.3206,-3.3124,-3.3124,-3.3124,-3.3124,-3.3124,-3.3124,-3.3124,-3.3124,-3.3124,-3.2993,-3.2767,-3.2303,-3.1687,-3.111,-3.0683,-3.0156,-2.9792,-2.9792,-2.9792,-2.9792,-2.9792,-2.9792,-2.9792,-2.9792,-2.9792,-2.9741,-2.9641,-2.9101,-2.8536,-2.7984,-2.7331,-2.6866,-2.6653,-2.6949,-2.6524,-2.5349,-2.4123,-2.299,-2.1987,-2.129,-2.0986,-2.1044,-2.0225,-2.0146,0.0,0.0,0.0,0.0,0.0,0.0,0.0,0.0,0.0,0.0,0.0,-2.3577,-2.4958,0.0,-2.772,-2.9139,-3.0055,-3.0871,-3.1687,-3.2039,-3.2215,-3.2215,-3.2466,-3.298,-3.3822,-3.4148,-3.4605,-3.5433,-3.5805,-3.6194,-3.6795,-3.682,-3.7023,-3.7575,-3.76,-3.7726,-3.8002,-3.8291,-3.8442,-3.8442,-3.8718,-3.8856,-3.8856,-3.8856,-3.8856,-3.8856,-3.8856,-3.8693,-3.8391,-3.7826,-3.7274,-3.682,-3.682,-3.6656,-3.6405,-3.6405,-3.6405,-3.6367,-3.6044,-3.5956,-3.5868,-3.527,-3.5094,-3.4994,-3.4474,-3.4123,-3.3847,-3.3571,-3.3294,-3.3124,-3.3124,-3.3124,-3.3124,-3.3124,-3.3124,-3.3124,-3.3124,-3.3124,-3.2993,-3.2704,-3.219,-3.1637,-3.1097,-3.0557,-3.0118,-2.9829,-2.9792,-2.9792,-2.9792,-2.9792,-2.9792,-2.9792,-2.9792,-2.9792,-2.9792,-2.9264,-2.8775,-2.8536,-2.7996,-2.7695,-2.7695,-2.7959,-2.7275,-2.5547,-2.546,-2.4727,-2.3195,-2.3398,-2.3317,-2.3011,-2.2778,-2.2411,0.0,0.0,0.0,0.0,0.0,0.0,0.0,0.0,-2.2124,-2.3722,-2.4876,-2.6063,-2.7507,-2.8586,-2.9577,-3.0746,-3.1273,-3.175,-3.2303,-3.2378,-3.2378,-3.2378,-3.2792,-3.3332,-3.3997,-3.4462,-3.4956,-3.5608,-3.6207,-3.6757,-3.7161,-3.7287,-3.76,-3.8153,-3.8165,-3.8228,-3.8329,-3.8793,-3.9082,-3.9032,-3.9484,-3.9697,-3.9697,-3.9697,-3.9697,-3.9697,-3.9697,-3.9383,-3.8881,-3.8366,-3.7852,-3.7337,-3.7224,-3.6958,-3.6556,-3.6455,-3.6405,-3.6405,-3.6405,-3.6405,-3.6329,-3.5843,-3.5658,-3.5558,-3.5006,-3.4575,-3.4173,-3.396,-3.3583,-3.3206,-3.3149,-3.3124,-3.3124,-3.3124,-3.3124,-3.3124,-3.3124,-3.3124,-3.3124,-3.3124,-3.2604,-3.2077,-3.1625,-3.111,-3.0545,-2.9892,-2.9792,-2.9792,-2.9792,-2.9792,-2.9792,-2.9792,-2.9792,-2.9792,-2.9792,-2.9365,-2.9051,-2.9051,-2.8687,-2.8436,-2.8436,-2.8436,-2.7641,-2.5961,-2.6556,-2.6161,-2.4666,-2.53,-2.5209,-2.4457,-2.4457,-2.3813,-1.8193,-1.9409,-2.0566,-2.1518,-2.1845,-2.2849,0.0,0.0,-2.5523,-2.7205,-2.7998,-2.865,-2.9377,-3.0018,-3.0743,-3.1863,-3.2077,-3.2315,-3.2905,-3.298,-3.298,-3.298,-3.3074,-3.3483,-3.4525,-3.4643,-3.5152,-3.6241,-3.6772,-3.7123,-3.7186,-3.7651,-3.8178,-3.8755,-3.8781,-3.9007,-3.9496,-3.9572,-3.9597,-3.9597,-3.9659,-3.9697,-3.9697,-3.9697,-3.9697,-3.9697,-3.9697,-3.9383,-3.8906,-3.8856,-3.8429,-3.7864,-3.7374,-3.7149,-3.7036,-3.6593,-3.6405,-3.6405,-3.6405,-3.6405,-3.6405,-3.6329,-3.6317,-3.6169,-3.5571,-3.537,-3.5107,-3.4173,-3.3859,-3.3696,-3.3206,-3.3124,-3.3124,-3.3124,-3.3124,-3.3124,-3.3124,-3.3124,-3.3124,-3.3124,-3.2604,-3.219,-3.2127,-3.1675,-3.0959,-2.9942,-2.9792,-2.9792,-2.9792,-2.9792,-2.9792,-2.9792,-2.9792,-2.9792,-2.9792,-2.9729,-2.9691,-2.9691,-2.9641,-2.9603,-2.9603,-2.9603,-2.9514,-2.9282,-2.8388,-2.7382,-2.6229,-2.5345,-2.4373,-2.3309,-2.3309,-2.3193,-2.138,-2.2259,-2.2799,0.0,-2.4494,-2.5548,-2.6889,-2.7105,-2.7344,-2.8373,-2.9038,-2.9503,-2.9741,-3.0482,-3.121,0.0,-3.229,-3.2805,-3.3043,-3.278,-3.2579,-3.2579,-3.2579,-3.3144,-3.4575,-3.468,-3.5177,-3.6317,-3.692,-3.7324,-3.7651,-3.8203,-3.8768,-3.9333,-3.9346,-3.9459,-3.9697,-3.9697,-3.9697,-3.9697,-3.9697,-3.9697,-3.9697,-3.9697,-3.9697,-3.9697,-3.9697,-3.9559,-3.9346,-3.9346,-3.9019,-3.8479,-3.8253,-3.7764,-3.7123,-3.6619,-3.6405,-3.6405,-3.6405,-3.6405,-3.6405,-3.6405,-3.6405,-3.6367,-3.6094,-3.5805,-3.5408,-3.4944,-3.4399,-3.3847,-3.3608,-3.3319,-3.3124,-3.3124,-3.3124,-3.3124,-3.3124,-3.3124,-3.3124,-3.3124,-3.288,-3.2604,-3.2277,-3.2026,-3.1612,-3.0834,-3.047,-3.0156,-2.9829,-2.9792,-2.9792,-2.9792,-2.9792,-2.9792,-2.9792,-2.9792,-2.9792,-2.9792,-2.9792,-2.9792,-2.9792,-2.9792,-2.9495,-2.8806,-2.8347,-2.7896,-2.7441,-2.6942,-2.6479,-2.5983,-2.5378,-2.4723,-2.3492,-2.4471,0.0,-2.5728,-2.7016,-2.8015,-2.7538,-2.7996,-2.8687,-2.9089,-2.9503,-2.9842,-2.9993,-3.0658,-3.1273,-3.1574,-3.2303,-3.2893,-3.3099,-3.2579,-3.2277,-3.2428,-3.2303,-3.2817,-3.4349,-3.4625,-3.5115,-3.6069,-3.6923,-3.7588,-3.799,-3.8693,-3.9283,-3.9685,-3.9697,-3.9697,-3.9697,-3.9697,-3.9697,-3.9697,-3.9697,-3.9697,-3.9697,-3.9697,-3.9697,-3.9697,-3.9697,-3.9697,-3.9697,-3.9697,-3.9459,-3.9082,-3.8982,-3.8266,-3.7349,-3.6832,-3.6543,-3.6405,-3.6405,-3.6405,-3.6405,-3.6405,-3.6405,-3.6405,-3.6405,-3.6081,-3.5683,-3.5545,-3.4919,-3.4286,-3.3985,-3.3608,-3.3269,-3.3162,-3.3124,-3.3124,-3.3124,-3.3124,-3.3124,-3.3124,-3.3124,-3.2943,-3.2516,-3.2453,-3.2265,-3.17,-3.1173,-3.0633,-3.0093,-2.988,-2.9792,-2.9792,-2.9792,-2.9792,-2.9792,-2.9792,-2.9792,-2.9792,-2.9792,-2.9792,-2.9792,-2.9792,-2.9404,-2.8597,-2.8557,-2.8426,-2.8096,-2.7804,-2.7481,-2.7174,-2.6088,-2.5136,-2.3725,-2.5705,-2.7921,-2.8437,-2.946,-3.0213,-2.9783,-2.9716,-2.9741,-2.9767,-2.9779,-2.9955,-3.0495,-3.062,-3.0972,-3.2026,-3.2215,-3.2441,-3.3006,-3.2579,-3.2416,-3.298,-3.2554,-3.2654,0.0,-3.4412,-3.4919,-3.5483,-3.7073,-3.799,-3.8002,-3.9069,-3.9672,-3.9697,-3.9697,-3.9697,-3.9697,-3.9697,-3.9697,-3.9697,-3.9697,-3.9697,-3.9697,-3.9697,-3.9697,-3.9697,-3.9697,-3.9697,-3.9697,-3.9697,-3.9685,-3.9622,-3.9082,-3.8504,-3.7914,-3.7362,-3.687,-3.6405,-3.6405,-3.6405,-3.6405,-3.6405,-3.6405,-3.6405,-3.6405,-3.6405,-3.6267,-3.5646,-3.547,-3.5207,-3.4173,-3.3884,-3.3746,-3.3206,-3.3124,-3.3124,-3.3124,-3.3124,-3.3124,-3.3124,-3.3124,-3.3111,-3.3099,-3.3056,-3.2855,-3.2277,-3.1725,-3.1173,-3.0658,-3.0118,-2.9792,-2.9792,-2.9792,-2.9792,-2.9792,-2.9792,-2.9792,-2.9792,-2.9792,-2.9792,-2.9792,-2.9792,-2.9792,-2.9753,-2.9753,-2.9197,-2.8096,-2.7046,-2.5964,-2.4872,-2.3714,-2.3178,-2.6704,0.0,-2.9085,-2.968,-2.9902,-2.9961,-2.9819,-2.9792,-2.9792,-2.9792,-2.949,-2.939,-2.9967,-3.0068,-3.0419,-3.1486,-3.1976,-3.2416,-3.3006,-3.2918,-3.2717,-3.2528,-3.2667,0.0,0.0,0.0,0.0,-3.5433,-3.6734,-3.7613,-3.799,-3.9082,-3.9697,-3.9697,-3.9697,-3.9697,-3.9697,-3.9697,-3.9697,-3.9697,-3.9697,-3.9697,-3.9697,-3.9697,-3.9697,-3.9697,-3.9697,-3.9697,-3.9697,-3.9697,-3.9697,-3.9672,-3.9484,-3.8831,-3.799,-3.7801,-3.7149,-3.6405,-3.6405,-3.6405,-3.6405,-3.6405,-3.6405,-3.6405,-3.6405,-3.6405,-3.6367,-3.6132,-3.583,-3.532,-3.4638,-3.4173,-3.3759,-3.3206,-3.3124,-3.3124,-3.3124,-3.3124,-3.3124,-3.3124,-3.3124,-3.3124,-3.3124,-3.3124,-3.288,-3.2303,-3.1449,-3.0683,-3.0143,-2.9905,-2.9792,-2.9792,-2.9792,-2.9792,-2.9792,-2.9792,-2.9792,-2.9792,-2.9792,-2.9792,-2.9792,-2.9792,-2.9792,-2.9792,-2.9067,-2.8858,-2.9236,-2.8108,-2.7735,-2.8079,-2.6224,-2.5347,-2.9435,-3.0368,-3.0631,-3.1074,-3.1003,-3.0608,-2.9934,-2.9792,-2.9729,-2.9528,-2.9038,-2.875,-2.9126,-2.9026,-2.9377,-3.0871,-3.1562,-3.2252,-3.3232,-3.337,-3.3307,-3.3131,-3.3269,-3.3307,0.0,0.0,0.0,-3.5157,-3.6634,-3.7638,-3.799,-3.9082,-3.9697,-3.9697,-3.9697,-3.9697,-3.9697,-3.9697,-3.9697,-3.9697,-3.9697,-3.9697,-3.9697,-3.9697,-3.9697,-3.9697,-3.9697,-3.9697,-3.9697,-3.9697,-3.9697,-3.9697,-3.9697,-3.9132,-3.8291,-3.809,-3.7425,-3.6669,-3.648,-3.6405,-3.6405,-3.6405,-3.6405,-3.6405,-3.6405,-3.6405,-3.6405,-3.6405,-3.6107,-3.5705,-3.5119,-3.4705,-3.4299,-3.3545,-3.337,-3.3319,-3.3162,-3.3124,-3.3124,-3.3124,-3.3124,-3.3124,-3.3124,-3.3124,-3.288,-3.2303,-3.1625,-3.0922,-3.0181,-2.9917,-2.9792,-2.9792,-2.9792,-2.9792,-2.9792,-2.9792,-2.9792,-2.9792,-2.9792,-2.9792,-2.9792,-2.9792,-2.9792,-2.9792,-2.9067,-2.9067,-2.9792,-2.8648,-2.8478,-2.9157,-2.6912,-2.588,-3.1714,-3.2423,-3.2464,-3.2633,-3.2593,-3.2069,-3.0355,-2.9857,-2.9617,-2.8988,-2.8397,-2.7934,-2.7908,0.0,-2.7946,-3.0131,-3.0997,-3.1976,-3.3658,-3.3922,-3.4135,0.0,0.0,0.0,0.0,0.0,0.0,-3.4851,0.0,-3.799,-3.8052,-3.9094,-3.9697,-3.9697,-3.9697,-3.9697,-3.9697,-3.9697,-3.9697,-3.9697,-3.9697,-3.9697,-3.9697,-3.9697,-3.9697,-3.9697,-3.9697,-3.9697,-3.9697,-3.9697,-3.9697,-3.9697,-3.9697,-3.9358,-3.8856,-3.8216,-3.7663,-3.7098,-3.6606,-3.6405,-3.6405,-3.6405,-3.6405,-3.6405,-3.6405,-3.6405,-3.6405,-3.6405,-3.6405,-3.6279,-3.5646,-3.5495,-3.5232,-3.4198,-3.3922,-3.3759,-3.3232,-3.3136,-3.3124,-3.3124,-3.3124,-3.3124,-3.3124,-3.3124,-3.2893,-3.234,-3.2227,-3.1825,-3.0758,-3.0156,-2.9829,-2.9792,-2.9792,-2.9792,-2.9792,-2.9792,-2.9792,-2.9792,-2.9792,-2.9792,-2.9792,-2.9792,-2.9792,-2.9792,-2.9792,-2.9792,-2.9792,-2.8727,-2.8176,-2.8136,-2.5983,-2.4957,-3.2756,-3.2897,-3.2743,-3.3448,-3.2593,-3.1609,-3.1829,-3.0701,-2.9435,-2.886,-2.7092,-2.5536,-2.5121,0.0,0.0,-2.8524,-3.0231,0.0,-3.3658,-3.4248,0.0,-3.4655,0.0,-3.5144,-3.527,-3.5705,0.0,0.0,-3.7073,-3.7764,-3.8605,-3.9308,-3.9697,-3.9697,-3.9697,-3.9697,-3.9697,-3.9697,-3.9697,-3.9697,-3.9697,-3.9697,-3.9697,-3.9697,-3.9697,-3.9697,-3.9697,-3.9697,-3.9697,-3.9697,-3.9697,-3.9697,-3.9697,-3.9358,-3.8856,-3.8216,-3.7663,-3.7098,-3.6606,-3.6405,-3.6405,-3.6405,-3.6405,-3.6405,-3.6405,-3.6405,-3.6405,-3.6405,-3.6405,-3.6279,-3.5646,-3.5495,-3.532,-3.4675,-3.4198,-3.3859,-3.3721,-3.337,-3.3124,-3.3124,-3.3124,-3.3124,-3.3124,-3.3124,-3.3074,-3.288,-3.2491,-3.1825,-3.0758,-3.0495,-3.0244,-2.9829,-2.9792,-2.9792,-2.9792,-2.9792,-2.9792,-2.9792,-2.9792,-2.9792,-2.9792,-2.9792,-2.9792,-2.9792,-2.9792,-2.9792,-2.9792,-2.9495,-2.9365,-2.9326,-2.7936,-2.7267,-3.4019,-3.4134,-3.3891,-3.3993,-3.3206,-3.2151,-3.1113,-2.9985,-2.8654,-2.6959,-2.5062,0.0,-2.3301,-2.4431,0.0,0.0,0.0,0.0,-3.3658,-3.4575,-3.5132,0.0,-3.5931,0.0,-3.627,-3.6759,-3.7324,0.0,-3.7927,-3.8253,-3.8894,-3.9396,-3.9697,-3.9697,-3.9697,-3.9697,-3.9697,-3.9697,-3.9697,-3.9697,-3.9697,-3.9697,-3.9697,-3.9697,-3.9697,-3.9697,0.0,-3.9697,-3.9697,-3.9697,-3.9697,-3.9697,-3.9697,-3.9509,-3.9132,-3.8316,-3.7814,-3.7425,-3.6681,-3.6405,-3.6405,-3.6405,-3.6405,-3.6405,-3.6405,-3.6405,-3.6405,-3.6405,-3.6405,-3.6329,-3.5981,-3.5893,-3.5768,-3.5169,-3.4806,-3.4487,-3.401,-3.3658,-3.337,-3.3174,-3.3124,-3.3124,-3.3124,-3.3124,-3.3124,-3.3124,-3.2805,-3.2277,-3.1424,-3.0909,-3.0495,-3.0181,-2.9942,-2.9792,-2.9792,-2.9792,-2.9792,-2.9792,-2.9792,-2.9792,-2.9792,-2.9792,-2.9792,-2.9792,-2.9792,-2.9792,-2.9792,-2.9792,-2.9792,-2.9753,-2.8636,-2.8096,-3.519,-3.5392,-3.5133,-3.4394,-3.4037,-3.3052,-2.9935,-2.8879,-2.7664,-2.4641,0.0,-2.1947,-2.1862,-2.293,-2.4318,-2.6009,0.0,-3.1725,-3.3633,-3.468,-3.5579,-3.6329,-3.6895,-3.7211,-3.7287,-3.7801,-3.8366,-3.8931,-3.9032,-3.9032,-3.9032,-3.9433,-3.9697,-3.9697,-3.9697,-3.9697,-3.9697,-3.9697,-3.9697,-3.9697,-3.9697,-3.9697,-3.9697,-3.9697,-3.9697,-3.9697,0.0,0.0,-3.9697,-3.9697,-3.9697,-3.9697,-3.9697,-3.9697,-3.9559,-3.8417,-3.8002,-3.7852,-3.6795,-3.6405,-3.6405,-3.6405,-3.6405,-3.6405,-3.6405,-3.6405,-3.6405,-3.6405,-3.6405,-3.6405,-3.6405,-3.6405,-3.6292,-3.5768,-3.5558,-3.5219,-3.4223,-3.3884,-3.3658,-3.3212,-3.3124,-3.3124,-3.3124,-3.3124,-3.3124,-3.3124,-3.3124,-3.2893,-3.239,-3.1449,-3.0771,-3.0633,-3.0181,-2.988,-2.9804,-2.9792,-2.9792,-2.9792,-2.9792,-2.9792,-2.9792,-2.9792,-2.9792,-2.9792,-2.9792,-2.9792,-2.9792,-2.9792,-2.9792,-2.9792,-2.8779,-2.8347,-3.5444,-3.4872,-3.4428,-3.5067,-3.4244,-3.2998,-3.205,-2.9695,0.0,0.0,-2.2247,-2.0105,-1.9651,-2.123,-2.315,-2.4833,0.0,0.0,0.0,0.0,-3.4726,0.0,0.0,0.0,0.0,0.0,0.0,0.0,0.0,0.0,-3.9546,-3.9647,-3.9697,-3.9697,-3.9697,-3.9697,-3.9697,-3.9697,-3.9697,-3.9697,-3.9697,-3.9697,-3.9697,-3.9697,-3.9697,-3.9697,0.0,0.0,-3.9697,-3.9697,-3.9697,-3.9697,-3.9697,-3.9697,-3.9559,-3.8417,-3.8002,-3.7852,-3.6795,-3.6405,-3.6405,-3.6405,-3.6405,-3.6405,-3.6405,-3.6405,-3.6405,-3.6405,-3.6405,-3.6405,-3.6405,-3.6405,-3.638,-3.6292,-3.5868,-3.532,-3.468,-3.3859,-3.3194,-3.3136,-3.3124,-3.3124,-3.3124,-3.3124,-3.3124,-3.3124,-3.3124,-3.3043,-3.2943,-3.2353,-3.1599,-3.0708,-3.0532,-3.0281,-2.9829,-2.9792,-2.9792,-2.9792,-2.9792,-2.9792,-2.9792,-2.9792,-2.9792,-2.9792,-2.9792,-2.9792,-2.9792,-2.9792,-2.9792,-2.9792,-2.9585,-2.9495,-3.5504,-3.5133,-3.4905,-3.5392,-3.4392,-3.2733,-3.0454,0.0,0.0,0.0,-2.0428,-1.9075,-1.8262,0.0,0.0,0.0,0.0,0.0,0.0,0.0,0.0,0.0,0.0,0.0,0.0,0.0,0.0,0.0,0.0,0.0,-3.9697,-3.9697,-3.9697,-3.9697,-3.9697,-3.9697,-3.9697,-3.9697,-3.9697,-3.9697,-3.9697,-3.9697,-3.9697,-3.9697,-3.9697,-3.9697,-3.9697,0.0,-3.9697,-3.9697,-3.9697,-3.9697,-3.9697,-3.9521,-3.917,-3.8316,-3.7826,-3.7462,-3.6694,-3.6405,-3.6405,-3.6405,-3.6405,-3.6405,-3.6405,-3.6405,-3.6405,-3.6405,-3.6405,-3.6405,-3.6405,-3.6405,-3.6405,-3.6405,-3.573,-3.4994,-3.4776,-3.3859,-3.3124,-3.3124,-3.3124,-3.3124,-3.3124,-3.3124,-3.3124,-3.3124,-3.3124,-3.3124,-3.3124,-3.283,-3.2353,-3.1537,-3.0947,-3.0507,-3.0244,-2.9955,-2.9792,-2.9792,-2.9792,-2.9792,-2.9792,-2.9792,-2.9792,-2.9792,-2.9792,-2.9792,-2.9792,-2.9792,-2.9792,-2.9792,-2.9792,-2.9942,-3.5459,-3.5504,-3.5504,-3.5504,-3.4382,-3.2318,-2.8666,-2.6549,0.0,0.0,-1.9091,-1.8679,-1.795,0.0,-2.116,0.0,0.0,0.0,0.0,0.0,0.0,0.0,0.0,0.0,0.0,0.0,0.0,0.0,0.0,0.0,0.0,-3.9697,-3.9697,-3.9697,-3.9697,-3.9697,-3.9697,-3.9697,-3.9697,-3.9697,-3.9697,-3.9697,-3.9697,-3.9697,-3.9697,-3.9697,-3.9697,0.0,0.0,-3.9697,-3.9697,-3.9685,-3.9559,-3.9245,-3.8831,-3.809,-3.755,-3.7098,-3.6606,-3.6405,-3.6405,-3.6405,-3.6405,-3.6405,-3.6405,-3.6405,-3.6405,-3.6405,-3.6405,-3.6405,-3.6405,-3.6405,-3.6405,-3.6405,-3.5529,-3.468,-3.468,-3.3859,-3.3124,-3.3124,-3.3124,-3.3124,-3.3124,-3.3124,-3.3124,-3.3124,-3.3124,-3.3124,-3.3124,-3.3124,-3.2905,-3.2441,-3.1537,-3.0871,-3.0633,-3.0218,-2.9917,-2.9804,-2.9792,-2.9792,-2.9792,-2.9792,-2.9792,-2.9792,-2.9792,-2.9792,-2.9792,-2.9792,-2.9792,-2.9792,-2.9917,-3.0206,-3.5325,-3.5504,-3.5504,-3.5504,-3.4038,-3.1869,-2.9125,0.0,0.0,-2.1104,-1.9661,-1.9022,-1.9404,-1.9345,-2.0057,-2.2551,-2.3671,-2.5548,0.0,0.0,0.0,0.0,0.0,0.0,0.0,0.0,0.0,0.0,0.0,0.0,0.0,-3.9697,-3.9697,-3.9697,-3.9697,-3.9697,-3.9697,-3.9697,-3.9697,-3.9697,-3.9697,-3.9697,-3.9697,-3.9697,-3.9697,-3.9697,0.0,0.0,0.0,-3.9697,-3.9697,-3.9647,-3.9145,-3.8957,-3.8793,-3.7663,-3.7224,-3.7098,-3.6606,-3.6405,-3.6405,-3.6405,-3.6405,-3.6405,-3.6405,-3.6405,-3.6405,-3.6405,-3.6405,-3.6405,-3.6405,-3.6405,-3.6405,-3.6405,-3.5529,-3.468,-3.468,-3.3859,-3.3124,-3.3124,-3.3124,-3.3124,-3.3124,-3.3124,-3.3124,-3.3124,-3.3124,-3.3124,-3.3124,-3.3124,-3.3056,-3.3006,-3.2441,-3.1675,-3.0696,-3.057,-3.0331,-2.9829,-2.9792,-2.9792,-2.9792,-2.9792,-2.9792,-2.9792,-2.9792,-2.9792,-2.9792,-2.9792,-2.9792,-2.9804,-3.0306,-3.057,-3.4607,-3.519,-3.5504,-3.5504,-3.3663,-3.1197,-2.8577,0.0,-2.3165,-2.022,-1.949,-1.9242,-1.8821,-1.8838,-1.9427,-2.0894,-2.1332,-2.2723,-2.6302,0.0,0.0,0.0,0.0,0.0,0.0,0.0,0.0,0.0,0.0,0.0,0.0,-3.9697,-3.9697,-3.9697,-3.9697,-3.9697,-3.9697,-3.9697,-3.9697,-3.9697,-3.9697,-3.9697,-3.9697,-3.9697,-3.9697,-3.9697,0.0,0.0,0.0,-3.9697,-3.9496,-3.9182,-3.9007,-3.8454,-3.7801,-3.7349,-3.7021,-3.6707,-3.648,-3.6405,-3.6405,-3.6405,-3.6405,-3.6405,-3.6405,-3.6405,-3.6405,-3.6405,-3.6405,-3.6405,-3.6405,-3.6405,-3.6405,-3.6405,-3.5529,-3.468,-3.468,-3.3859,-3.3124,-3.3124,-3.3124,-3.3124,-3.3124,-3.3124,-3.3124,-3.3124,-3.3124,-3.3124,-3.3124,-3.3124,-3.3124,-3.3124,-3.2554,-3.2039,-3.1612,-3.0984,-3.052,-3.0306,-2.998,-2.9792,-2.9792,-2.9792,-2.9792,-2.9792,-2.9792,-2.9792,-2.9792,-2.9792,-2.9967,-3.0294,-3.052,-3.0959,-3.3484,-3.4532,-3.516,-3.4966,-3.3051,-3.0509,0.0,-2.5249,-2.2539,-1.9723,-1.9442,-1.946,-1.8708,-1.875,-1.9142,-1.9912,-2.0183,-2.1401,-2.4576,0.0,0.0,0.0,0.0,0.0,0.0,0.0,0.0,0.0,0.0,0.0,0.0,-3.9697,-3.9697,-3.9697,-3.9697,-3.9697,-3.9697,-3.9697,-3.9697,-3.9697,-3.9697,-3.9697,-3.9697,-3.9697,-3.9697,-3.9697,0.0,0.0,0.0,-3.9446,-3.912,-3.8592,-3.8442,-3.7889,-3.7161,-3.6998,-3.6744,-3.6405,-3.6405,-3.6405,-3.6405,-3.6405,-3.6405,-3.6405,-3.6405,-3.6405,-3.6405,-3.6405,-3.6405,-3.6405,-3.6405,-3.6405,-3.6405,-3.6405,-3.5529,-3.468,-3.468,-3.3859,-3.3124,-3.3124,-3.3124,-3.3124,-3.3124,-3.3124,-3.3124,-3.3124,-3.3124,-3.3124,-3.3124,-3.3124,-3.3124,-3.3124,-3.2717,-3.2403,-3.2227,-3.1524,-3.1022,-3.0859,-3.0482,-3.0269,-3.0269,-3.0118,-3.0105,-3.0269,-3.0118,-3.0105,-3.0269,-3.0269,-3.047,-3.0846,-3.1009,-3.1587,-3.2003,-3.3484,-3.4354,-3.3679,-3.2003,-2.9834,-2.72,-2.459,-2.2134,-2.0112,-1.9708,-1.9708,-1.969,-1.9258,-1.9267,-2.0413,-2.1084,-2.2438,-2.5195,0.0,0.0,0.0,0.0,0.0,0.0,0.0,0.0,0.0,0.0,0.0,0.0,0.0,-3.9697,-3.9697,-3.9697,-3.9697,-3.9697,-3.9697,-3.9697,-3.9697,-3.9697,-3.9697,-3.9697,-3.9697,0.0,0.0,0.0,0.0,0.0,-3.8932,-3.8542,-3.7965,-3.7412,-3.7199,-3.7123,-3.6619,-3.6417,-3.6405,-3.6405,-3.6405,-3.6405,-3.6405,-3.6405,-3.6405,-3.6405,-3.6405,-3.6405,-3.6405,-3.6405,-3.6405,-3.6405,-3.6405,-3.6405,-3.6405,-3.5529,-3.468,-3.468,-3.3859,-3.3124,-3.3124,-3.3124,-3.3124,-3.3124,-3.3124,-3.3124,-3.3124,-3.3124,-3.3124,-3.3124,-3.3124,-3.3124,-3.3124,-3.3111,-3.283,-3.2265,-3.2202,-3.1964,-3.1411,-3.1373,-3.1373,-3.1373,-3.0884,-3.0846,-3.1361,-3.0871,-3.0859,-3.1373,-3.1373,-3.1373,-3.1399,-3.1938,-3.2503,-2.8173,-2.9445,-3.0298,-2.9651,-2.8622,-2.726,-2.5046,-2.3601,-2.2119,-2.0112,-1.9708,-1.9708,-1.9708,-1.9262,-1.9742,-2.2298,-2.2566,-2.3418,0.0,0.0,0.0,0.0,0.0,0.0,0.0,0.0,0.0,0.0,0.0,0.0,0.0,0.0,-3.8894,-3.9672,-3.9697,-3.9697,-3.9697,-3.9697,-3.9697,-3.9697,-3.9697,-3.9697,-3.9697,-3.9697,0.0,0.0,0.0,0.0,0.0,-3.8278,-3.7952,-3.7425,-3.7249,-3.7008,-3.6644,-3.6468,-3.6405,-3.6405,-3.6405,-3.6405,-3.6405,-3.6405,-3.6405,-3.6405,-3.6405,-3.6405,-3.6405,-3.6405,-3.6405,-3.6405,-3.6405,-3.6405,-3.6405,-3.6405,-3.5529,-3.468,-3.468,-3.3859,-3.3124,-3.3124,-3.3124,-3.3124,-3.3124,-3.3124,-3.3124,-3.3124,-3.3124,-3.3124,-3.3124,-3.3124,-3.3124,-3.3124,-3.3124,-3.3006,-3.2817,-3.2441,-3.2139,-3.1964,-3.1599,-3.1386,-3.1386,-3.1235,-3.1223,-3.1386,-3.1223,-3.1223,-3.1386,-3.1386,-3.1587,-3.1964,-3.2541,-3.2905,-2.5465,-2.6826,-2.7679,-2.6991,-2.6333,-2.539,-2.3676,-2.2577,-2.1515,-2.0007,-1.9708,-1.9708,-1.9708,-1.9424,-1.9953,-2.2198,-2.2672,-2.3761,0.0,0.0,0.0,0.0,0.0,0.0,0.0,0.0,0.0,0.0,0.0,0.0,0.0,0.0,-3.8329,-3.9032,-3.9057,-3.9057,-3.9057,-3.9057,-3.9057,-3.9057,-3.9057,-3.9057,-3.9057,0.0,0.0,0.0,0.0,0.0,0.0,-3.7701,-3.7374,-3.692,-3.692,-3.6707,-3.6405,-3.6405,-3.6405,-3.6405,-3.6405,-3.6405,-3.6405,-3.6405,-3.6405,-3.6405,-3.6405,-3.6405,-3.6405,-3.6405,-3.6405,-3.6405,-3.6405,-3.6405,-3.6405,-3.6405,-3.5529,-3.468,-3.468,-3.3859,-3.3124,-3.3124,-3.3124,-3.3124,-3.3124,-3.3124,-3.3124,-3.3124,-3.3124,-3.3124,-3.3124,-3.3124,-3.3124,-3.3124,-3.3124,-3.3124,-3.3124,-3.2754,-3.2541,-3.2541,-3.2215,-3.2026,-3.2026,-3.1813,-3.18,-3.2026,-3.1813,-3.18,-3.2026,-3.2026,-3.2202,-3.2554,-3.2905,-3.3124,0.0,-2.5211,-2.6019,-2.536,-2.4739,-2.3992,-2.2778,-2.156,0.0,-1.9842,-1.9708,-1.9753,-1.9887,-1.9842,-2.0094,-2.1092,-2.2185,0.0,0.0,0.0,0.0,0.0,0.0,0.0,0.0,0.0,0.0,0.0,0.0,0.0,0.0,0.0,0.0,-3.7889,-3.7889,-3.7927,-3.8002,-3.8002,-3.8002,-3.8002,-3.8002,-3.8002,-3.8002,0.0,0.0,0.0,0.0,0.0,0.0,-3.7123,-3.687,-3.6405,-3.6405,-3.6405,-3.6405,-3.6405,-3.6405,-3.6405,-3.6405,-3.6405,-3.6405,-3.6405,-3.6405,-3.6405,-3.6405,-3.6405,-3.6405,-3.6405,-3.6405,-3.6405,-3.6405,-3.6405,-3.6405,-3.6367,-3.5491,-3.4668,-3.4675,-3.3822,-3.3124,-3.3124,-3.3124,-3.3124,-3.3124,-3.3124,-3.3124,-3.3124,-3.3124,-3.3124,-3.3124,-3.3124,-3.3124,-3.3124,-3.3124,-3.3124,-3.3124,-3.3124,-3.3124,-3.3124,-3.3124,-3.3124,-3.3124,-3.2554,-3.2528,-3.3111,-3.2554,-3.2541,-3.3124,-3.3124,-3.3124,-3.3124,-3.3124,-3.3124,-2.0677,0.0,-2.1934,-2.1246,-2.135,-2.1391,0.0,-2.0557,-2.0494,-1.9842,-1.9708,-2.0172,-2.1714,-2.1156,-2.1844,-2.6063,-2.6976,0.0,0.0,0.0,0.0,0.0,0.0,0.0,0.0,0.0,0.0,0.0,0.0,0.0,0.0,0.0,0.0,-3.6795,-3.6795,-3.7149,-3.8002,-3.8002,-3.8002,-3.8002,-3.8002,-3.8002,-3.8002,0.0,0.0,0.0,0.0,0.0,-3.6606,-3.6606,-3.6518,-3.6405,-3.6405,-3.6405,-3.6405,-3.6405,-3.6405,-3.6405,-3.6405,-3.6405,-3.6405,-3.6405,-3.6405,-3.6405,-3.6405,-3.6405,-3.6405,-3.6405,-3.6405,-3.6405,-3.6405,-3.6405,-3.6304,-3.583,-3.5169,-3.4613,-3.4186,-3.3558,-3.3124,-3.3124,-3.3124,-3.3124,-3.3124,-3.3124,-3.3124,-3.3124,-3.3124,-3.3124,-3.3124,-3.3124,-3.3124,-3.3124,-3.3124,-3.3124,-3.3124,-3.3124,-3.3124,-3.3124,-3.3124,-3.3124,-3.3124,-3.2943,-3.2943,-3.3124,-3.2943,-3.2943,-3.3124,-3.3124,-3.3124,-3.3124,-3.3124,-3.3124,-1.9226,-2.0183,-2.1081,-2.0707,-2.0887,-2.1066,-2.0711,-2.0423,-2.0139,-1.9783,-1.9708,-2.0127,-2.1515,-2.168,-2.2847,-2.6617,-2.8008,0.0,0.0,0.0,0.0,0.0,0.0,0.0,0.0,0.0,0.0,0.0,0.0,0.0,0.0,0.0,0.0,0.0,-3.6405,-3.6694,-3.7249,-3.7249,-3.7249,-3.7249,-3.7249,-3.7249,-3.7249,-3.7249,0.0,0.0,0.0,0.0,-3.6405,-3.6405,-3.6405,-3.6405,-3.6405,-3.6405,-3.6405,-3.6405,-3.6405,-3.6405,-3.6405,-3.6405,-3.6405,-3.6405,-3.6405,-3.6405,-3.6405,-3.6405,-3.6405,-3.6405,-3.6405,-3.6405,-3.6405,-3.6405,-3.6267,-3.5621,-3.5082,-3.4575,-3.4022,-3.347,-3.3124,-3.3124,-3.3124,-3.3124,-3.3124,-3.3124,-3.3124,-3.3124,-3.3124,-3.3124,-3.3124,-3.3124,-3.3124,-3.3124,-3.3124,-3.3124,-3.3124,-3.3124,-3.3124,-3.3124,-3.3124,-3.3124,-3.3124,-3.3124,-3.3124,-3.3124,-3.3124,-3.3124,-3.3124,-3.3124,-3.3124,-3.3124,-3.3124,-3.3124,-1.8927,-2.0408,-2.1769,-2.1455,-2.162,-2.1799,-2.159,-2.0756,-2.0007,0.0,0.0,-2.0288,-2.1256,-2.2383,0.0,0.0,0.0,0.0,0.0,0.0,0.0,0.0,0.0,0.0,0.0,0.0,0.0,0.0,0.0,0.0,0.0,0.0,0.0,0.0,-3.6675,-3.6581,-3.6405,-3.6405,-3.6405,-3.6405,-3.6405,-3.6405,-3.6405,-3.6405,0.0,0.0,0.0,0.0,-3.6405,-3.6405,-3.6405,-3.6405,-3.6405,-3.6405,-3.6405,-3.6405,-3.6405,-3.6405,-3.6405,-3.6405,-3.6405,-3.6405,-3.6405,-3.6405,-3.6405,-3.6405,-3.6405,-3.6405,-3.6405,-3.6405,-3.6405,-3.6405,-3.6254,-3.552,-3.5019,-3.455,-3.3909,-3.3407,-3.3124,-3.3124,-3.3124,-3.3124,-3.3124,-3.3124,-3.3124,-3.3124,-3.3124,-3.3124,-3.3124,-3.3124,-3.3124,-3.3124,-3.3124,-3.3124,-3.3124,-3.3124,-3.3124,-3.3124,-3.3124,-3.3124,-3.3124,-3.3124,-3.3124,-3.3124,-3.3124,-3.3124,-3.3124,-3.3124,-3.3124,-3.3124,-3.3124,-3.3124,-1.9926,-2.144,-2.2149,-2.0441,-2.1295,-2.2254,-2.1111,-2.1141,-2.138,0.0,0.0,0.0,0.0,-2.5031,0.0,0.0,0.0,0.0,0.0,0.0,0.0,0.0,0.0,0.0,0.0,0.0,0.0,0.0,0.0,0.0,0.0,0.0,0.0,0.0,0.0,-3.7368,-3.6405,-3.6405,-3.6405,-3.6405,-3.6405,-3.6405,-3.6405,-3.6405,-3.6405,0.0,0.0,-3.6405,-3.6405,-3.6405,-3.6405,-3.6405,-3.6405,-3.6405,-3.6405,-3.6405,-3.6405,-3.6405,-3.6405,-3.6405,-3.6405,-3.6405,-3.6405,-3.6405,-3.6405,-3.6405,-3.6405,-3.6405,-3.6405,-3.6405,-3.6405,-3.6405,-3.6153,-3.509,-3.4776,-3.4449,-3.342,-3.3174,-3.3124,-3.3124,-3.3124,-3.3124,-3.3124,-3.3124,-3.3124,-3.3124,-3.3124,-3.3124,-3.3124,-3.3124,-3.3124,-3.3124,-3.3124,-3.3124,-3.3124,-3.3124,-3.3124,-3.3124,-3.3124,-3.3124,-3.3124,-3.3124,-3.3124,-3.3124,-3.3124,-3.3124,-3.3124,-3.3124,-3.3124,-3.3124,-3.3124,-3.3124,-1.873,-2.0314,-2.1485,-2.0917,-2.2532,-2.4193,-2.3954,-2.358,-2.3259,-2.3259,0.0,0.0,0.0,0.0,0.0,0.0,0.0,0.0,0.0,0.0,0.0,0.0,0.0,0.0,0.0,0.0,0.0,0.0,0.0,0.0,0.0,0.0,0.0,0.0,0.0,-3.7848,-3.7322,-3.6709,-3.6405,-3.6405,-3.6405,-3.6405,-3.6405,-3.6405,-3.6405,-3.6405,0.0,-3.6405,-3.6405,-3.6405,-3.6405,-3.6405,-3.6405,-3.6405,-3.6405,-3.6405,-3.6405,-3.6405,-3.6405,-3.6405,-3.6405,-3.6405,-3.6405,-3.6405,-3.6405,-3.6405,-3.6342,-3.6006,-3.6132,-3.6405,-3.6405,-3.6144,-3.5717,-3.4868,-3.45,-3.406,-3.3257,-3.3124,-3.3124,-3.3124,-3.3124,-3.3124,-3.3124,-3.3124,-3.3124,-3.3124,-3.3124,-3.3124,-3.3124,-3.3124,-3.3124,-3.3124,-3.3124,-3.3124,-3.3124,-3.3124,-3.3124,-3.3124,-3.3124,-3.3124,-3.3124,-3.3124,-3.3124,-3.3124,-3.3124,-3.3124,-3.3124,-3.3124,-3.3124,-3.3124,-3.3124,-3.3124,-1.8085,-1.9403,-2.0737,-2.1859,-2.3535,-2.5226,-2.6333,-2.5689,-2.5008,-2.5636,0.0,0.0,0.0,0.0,0.0,0.0,0.0,0.0,0.0,0.0,0.0,0.0,0.0,0.0,0.0,0.0,0.0,0.0,0.0,0.0,0.0,0.0,0.0,0.0,0.0,0.0,-3.7319,-3.6455,-3.6153,-3.6405,-3.6405,-3.6405,-3.6405,-3.6405,-3.6405,-3.6405,-3.6405,-3.6405,-3.6405,-3.6405,-3.6405,-3.6405,-3.6405,-3.6405,-3.6405,-3.6405,-3.6405,-3.6405,-3.6405,-3.6405,-3.6405,-3.6405,-3.6405,-3.638,-3.6207,-3.6169,-3.6056,-3.5458,-3.5655,-3.5981,-3.5981,-3.5667,-3.5169,-3.4618,-3.4211,-3.3746,-3.3237,-3.3124,-3.3124,-3.3124,-3.3124,-3.3124,-3.3124,-3.3124,-3.3124,-3.3124,-3.3124,-3.3124,-3.3124,-3.3124,-3.3124,-3.3124,-3.3124,-3.3124,-3.3124,-3.3124,-3.3124,-3.3124,-3.3124,-3.3124,-3.3124,-3.3124,-3.3124,-3.3124,-3.3124,-3.3124,-3.3124,-3.3124,-3.3124,-3.3124,-3.3124,-3.3124,-1.9791,-2.0139,-2.0382,-2.2847,-2.3176,-2.3556,-2.6042,-2.6048,-2.6228,-2.8738,0.0,0.0,0.0,0.0,0.0,0.0,0.0,0.0,0.0,0.0,0.0,0.0,0.0,0.0,0.0,0.0,0.0,0.0,0.0,0.0,0.0,0.0,0.0,0.0,0.0,0.0,-3.4962,-3.4839,-3.5353,-3.6405,-3.6405,-3.6405,-3.6405,-3.6405,-3.6405,-3.6405,-3.6405,-3.6405,-3.6405,-3.6405,-3.6405,-3.6405,-3.6405,-3.6405,-3.6405,-3.6405,-3.6405,-3.6405,-3.6405,-3.6405,-3.6405,-3.6405,-3.6405,-3.6317,-3.5708,-3.5558,-3.5445,-3.4893,-3.4813,-3.4839,-3.4839,-3.4813,-3.4638,-3.4085,-3.3935,-3.3746,-3.3237,-3.3124,-3.3124,-3.3124,-3.3124,-3.3124,-3.3124,-3.3124,-3.3124,-3.3124,-3.3124,-3.3124,-3.3124,-3.3124,-3.3124,-3.3124,-3.3124,-3.3124,-3.3124,-3.3124,-3.3124,-3.3124,-3.3124,-3.3124,-3.3124,-3.3124,-3.3124,-3.3124,-3.3124,-3.3124,-3.3124,-3.3124,-3.3124,-3.3124,-3.3124,-3.3124,-1.8341,-1.9552,-2.0857,-2.3056,-2.4059,-2.5091,-2.7335,-2.8263,-2.9175,-3.1031,-3.1734,0.0,0.0,0.0,0.0,0.0,0.0,0.0,0.0,0.0,0.0,0.0,0.0,0.0,0.0,0.0,0.0,0.0,0.0,0.0,0.0,0.0,0.0,0.0,0.0,0.0,0.0,-3.5047,-3.4926,-3.5341,-3.5341,-3.5341,-3.5341,-3.5341,-3.5341,-3.5341,-3.5341,-3.5341,-3.5341,-3.5341,-3.5341,-3.5378,-3.5717,-3.5855,-3.5893,-3.6279,-3.6405,-3.6367,-3.5968,-3.5855,-3.5793,-3.5454,-3.5341,-3.5303,-3.5056,-3.4994,-3.4868,-3.4361,-3.4211,-3.4286,-3.4625,-3.4462,-3.4161,-3.3947,-3.3633,-3.3332,-3.3162,-3.3124,-3.3124,-3.3124,-3.3124,-3.3124,-3.3124,-3.3124,-3.3124,-3.3124,-3.3124,-3.3124,-3.3124,-3.3124,-3.3124,-3.3124,-3.3124,-3.3124,-3.3124,-3.3124,-3.3124,-3.3124,-3.3124,-3.3124,-3.3124,-3.3124,-3.3124,-3.3124,-3.3124,-3.3124,-3.3124,-3.3124,-3.3124,-3.3124,-3.3124,-3.3124,-1.8044,-1.9346,-2.0902,-2.3056,-2.4612,-2.6243,-2.8652,-2.9879,-3.1061,-3.3051,-3.3484,-3.3769,-3.4637,0.0,0.0,0.0,0.0,0.0,0.0,0.0,0.0,0.0,0.0,0.0,0.0,0.0,0.0,0.0,0.0,0.0,0.0,0.0,0.0,0.0,0.0,0.0,0.0,-3.5262,-3.4853,-3.5176,-3.4527,-3.4387,-3.468,-3.468,-3.468,-3.468,-3.468,-3.468,-3.468,-3.468,-3.468,-3.4718,-3.5094,-3.5245,-3.5282,-3.5705,-3.5843,-3.5793,-3.537,-3.5245,-3.5182,-3.4806,-3.468,-3.4688,-3.4512,-3.4462,-3.4349,-3.3796,-3.3633,-3.3721,-3.411,-3.3922,-3.3633,-3.3633,-3.3357,-3.3124,-3.3124,-3.3124,-3.3124,-3.3124,-3.3124,-3.3124,-3.3124,-3.3124,-3.3124,-3.3124,-3.3124,-3.3124,-3.3124,-3.3124,-3.3124,-3.3124,-3.3124,-3.3124,-3.3124,-3.3124,-3.3124,-3.3124,-3.3124,-3.3124,-3.3124,-3.3124,-3.3124,-3.3124,-3.3124,-3.3124,-3.3124,-3.3124,-3.3124,-3.3124,-3.3124,-3.3124,-1.9513,-1.9708,-2.0367,-2.2951,-2.4642,-2.6512,-2.9774,-3.0522,-3.148,-3.4816,-3.4442,-3.3918,-3.5265,0.0,0.0,0.0,0.0,0.0,0.0,0.0,0.0,0.0,0.0,0.0,0.0,0.0,0.0,0.0,0.0,0.0,0.0,0.0,0.0,0.0,0.0,0.0,-3.6198,-3.5197,-3.5197,-3.6172,-3.4095,-3.369,-3.4713,-3.4713,-3.4655,-3.4655,-3.4655,-3.4655,-3.4655,-3.4655,-3.4655,-3.4713,-3.4668,-3.4668,-3.4668,-3.468,-3.468,-3.468,-3.4668,-3.4668,-3.4668,-3.4713,-3.4655,-3.4613,-3.406,-3.3884,-3.3771,-3.3232,-3.3124,-3.3124,-3.3124,-3.3124,-3.3124,-3.3124,-3.3124,-3.3124,-3.3124,-3.3124,-3.3124,-3.3124,-3.3124,-3.3124,-3.3124,-3.3124,-3.3124,-3.3124,-3.3124,-3.3124,-3.3124,-3.3124,-3.3124,-3.3124,-3.3124,-3.3124,-3.3124,-3.3124,-3.3124,-3.3124,-3.3124,-3.3124,-3.3124,-3.3124,-3.3124,-3.3124,-3.3124,-3.3124,-3.3124,-3.3124,-3.3124,-3.3124,-3.3124,-3.3124,-1.8237,-2.0318,0.0,-2.3977,0.0,0.0,0.0,-3.2273,0.0,0.0,-3.519,-3.504,-3.5429,0.0,0.0,0.0,0.0,0.0,0.0,0.0,0.0,0.0,0.0,0.0,0.0,0.0,0.0,0.0,0.0,0.0,0.0,0.0,0.0,0.0,0.0,0.0,-3.6198,-3.5894,-3.5894,-3.6198,-3.5588,-3.5057,-3.4656,-3.3936,-3.3558,-3.3558,-3.3558,-3.3558,-3.3558,-3.3558,-3.3558,-3.3608,-3.3985,-3.4148,-3.4186,-3.4575,-3.468,-3.4663,-3.4274,-3.4148,-3.4085,-3.3696,-3.3558,-3.3533,-3.337,-3.3319,-3.3282,-3.3119,-3.3124,-3.3124,-3.3124,-3.3124,-3.3124,-3.3124,-3.3124,-3.3124,-3.3124,-3.3124,-3.3124,-3.3124,-3.3124,-3.3124,-3.3124,-3.3124,-3.3124,-3.3124,-3.3124,-3.3124,-3.3124,-3.3124,-3.3124,-3.3124,-3.3124,-3.3124,-3.3124,-3.3124,-3.3124,-3.3124,-3.3124,-3.3124,-3.3124,-3.3124,-3.3124,-3.3124,-3.3124,-3.3124,-3.3124,-3.3124,-3.3124,-3.3124,-3.3124,-3.3124,-1.8999,-2.141,0.0,-2.5756,-2.8655,-3.1555,-3.3305,0.0,0.0,0.0,0.0,0.0,0.0,0.0,0.0,0.0,0.0,0.0,0.0,0.0,0.0,0.0,0.0,0.0,0.0,0.0,0.0,0.0,0.0,0.0,0.0,0.0,0.0,0.0,0.0,0.0,-3.7096,-3.6918,-3.6852,-3.6813,-3.5987,-3.5278,-3.4664,-3.4037,-3.3755,-3.3713,-3.3283,-3.3124,-3.3124,-3.3124,-3.3124,-3.3106,-3.3445,-3.3571,-3.3608,-3.3947,-3.4073,-3.4022,-3.3684,-3.3571,-3.352,-3.3224,-3.3124,-3.3124,-3.3124,-3.3124,-3.3124,-3.3124,-3.3124,-3.3124,-3.3124,-3.3124,-3.3124,-3.3124,-3.3124,-3.3124,-3.3124,-3.3124,-3.3124,-3.3124,-3.3124,-3.3124,-3.3124,-3.3124,-3.3124,-3.3124,-3.3124,-3.3124,-3.3124,-3.3124,-3.3124,-3.3124,-3.3124,-3.3124,-3.3124,-3.3124,-3.3124,-3.3124,-3.3124,-3.3124,-3.3124,-3.3124,-3.3124,-3.3124,-3.3124,-3.3124,-3.3124,-3.3124,-3.3124,-3.3124,-3.3124,-3.3124,-2.0827,-2.2577,-2.4462,-2.7694,-2.9654,0.0,-3.4786,-3.5504,-3.5504,-3.5504,0.0,0.0,0.0,0.0,0.0,0.0,0.0,0.0,0.0,0.0,0.0,0.0,0.0,0.0,0.0,0.0,0.0,0.0,0.0,0.0,0.0,0.0,0.0,0.0,0.0,0.0,-3.8302,-3.7952,-3.7768,0.0,-3.585,-3.4941,-3.4941,-3.4652,-3.4553,-3.4511,-3.3513,-3.3124,-3.3124,-3.3124,-3.3124,-3.3124,-3.3124,-3.3124,-3.3124,-3.3124,-3.3124,-3.3124,-3.3124,-3.3124,-3.3124,-3.3124,-3.3124,-3.3124,-3.3124,-3.3124,-3.3124,-3.3124,-3.3124,-3.3124,-3.3124,-3.3124,-3.3124,-3.3124,-3.3124,-3.3124,-3.3124,-3.3124,-3.3124,-3.3124,-3.3124,-3.3124,-3.3124,-3.3124,-3.3124,-3.3124,-3.3124,-3.3124,-3.3124,-3.3124,-3.3124,-3.3124,-3.3124,-3.3124,-3.3124,-3.3124,-3.3124,-3.3124,-3.3124,-3.3124,-3.3124,-3.3124,-3.3124,-3.3124,-3.3124,-3.3124,-3.3124,-3.3124,-3.3124,-3.3124,-3.3124,-3.3124,-1.969,-2.2218,0.0,0.0,-3.0342,-3.332,-3.51,-3.5504,-3.5504,0.0,0.0,0.0,0.0,0.0,0.0,0.0,0.0,0.0,0.0,0.0,0.0,0.0,0.0,0.0,0.0,0.0,0.0,0.0,0.0,0.0,0.0,0.0,0.0,0.0,0.0,-3.7629,-3.7629,-3.754,-3.7495,0.0,-3.7042,-3.6814,-3.6736,-3.4485,-3.3441,-3.3441,-3.3197,-3.3124,-3.3124,-3.3124,-3.3124,-3.3124,-3.3124,-3.3124,-3.3124,-3.3124,-3.3124,-3.3124,-3.3124,-3.3124,-3.3124,-3.3124,-3.3124,-3.3124,-3.3124,-3.3124,-3.3124,-3.3124,-3.3124,-3.3124,-3.3124,-3.3124,-3.3124,-3.3124,-3.3124,-3.3124,-3.3124,-3.3124,-3.3124,-3.3124,-3.3124,-3.3124,-3.3124,-3.3124,-3.3124,-3.3124,-3.3124,-3.3124,-3.3124,-3.3124,-3.3124,-3.3124,-3.3124,-3.3124,-3.3124,-3.3124,-3.3124,-3.3124,-3.3124,-3.3124,-3.3124,-3.3124,-3.3124,-3.3124,-3.3124,-3.3124,-3.3124,-3.3124,-3.3124,-3.3124,-3.3124,-3.3124,-1.9944,-2.2592,0.0,-2.8652,0.0,-3.3769,-3.4786,-3.5265,0.0,0.0,0.0,0.0,0.0,0.0,0.0,0.0,0.0,0.0,0.0,0.0,0.0,0.0,0.0,0.0,0.0,0.0,0.0,0.0,0.0,0.0,0.0,0.0,0.0,0.0,-3.6806,-3.6971,-3.6971,-3.727,-3.7149,-3.6681,-3.6681,-3.642,-3.587,-3.4384,-3.3427,-3.2947,-3.2739,-3.2667,-3.2692,-3.2968,-3.3124,-3.3124,-3.3124,-3.3124,-3.3124,-3.3124,-3.3124,-3.3124,-3.3124,-3.3124,-3.3124,-3.3124,-3.3124,-3.3124,-3.3124,-3.3124,-3.3124,-3.3124,-3.3124,-3.3124,-3.3124,-3.3124,-3.3124,-3.3124,-3.3124,-3.3124,-3.3124,-3.3124,-3.3124,-3.3124,-3.3124,-3.3124,-3.3124,-3.3124,-3.3124,-3.3124,-3.3124,-3.3124,-3.3124,-3.3124,-3.3124,-3.3124,-3.3124,-3.3124,-3.3124,-3.3124,-3.3124,-3.3124,-3.3124,-3.3124,-3.3124,-3.3124,-3.3124,-3.3124,-3.3124,-3.3124,-3.3124,-3.3124,-3.3124,-3.3124,-3.3124,-3.3124,-1.9884,-2.2676,-2.5681,-3.0195,-3.2258,0.0,-3.4159,-3.4846,0.0,0.0,0.0,0.0,0.0,0.0,0.0,0.0,0.0,0.0,0.0,0.0,0.0,0.0,0.0,0.0,0.0,0.0,0.0,0.0,0.0,0.0,0.0,0.0,-3.5504,-3.5504,-3.6028,-3.6312,-3.6312,-3.6821,-3.665,-3.5817,-3.5817,-3.5289,-3.4238,-3.4335,-3.3871,-3.3039,-3.2523,-3.2301,-3.2339,-3.2663,-3.2822,-3.2822,-3.2822,-3.2842,-3.293,-3.293,-3.2993,-3.3124,-3.3124,-3.3124,-3.3124,-3.3124,-3.3124,-3.3124,-3.3124,-3.3124,-3.3124,-3.3124,-3.3124,-3.3124,-3.3124,-3.3124,-3.3124,-3.3124,-3.3124,-3.3124,-3.3124,-3.3124,-3.3124,-3.3124,-3.3124,-3.3124,-3.3124,-3.3124,-3.3124,-3.3124,-3.3124,-3.3124,-3.3124,-3.3124,-3.3124,-3.3124,-3.3124,-3.3124,-3.3124,-3.3124,-3.3124,-3.3124,-3.3124,-3.3124,-3.3124,-3.3124,-3.3124,-3.3124,-3.3124,-3.3124,-3.3124,-3.3124,-3.3124,-3.3124,-3.3124,-3.3124,-1.6921,0.0,-2.5576,0.0,-3.1197,-3.2093,0.0,0.0,0.0,0.0,0.0,0.0,0.0,0.0,0.0,0.0,0.0,0.0,0.0,0.0,0.0,0.0,0.0,0.0,0.0,0.0,0.0,0.0,0.0,0.0,0.0,-3.5504,-3.5504,-3.5504,-3.5594,-3.5639,-3.5639,-3.5714,-3.5693,-3.5547,-3.5547,-3.5022,-3.4031,-3.4066,-3.4086,-3.4028,-3.3105,-3.2712,-3.2685,-3.193,-3.1612,-3.1612,-3.1612,-3.1901,-3.2328,-3.2328,-3.2641,-3.3124,-3.3124,-3.3124,-3.3124,-3.3124,-3.3124,-3.3124,-3.3124,-3.3124,-3.3124,-3.3124,-3.3124,-3.3124,-3.3124,-3.3124,-3.3124,-3.3124,-3.3124,-3.3124,-3.3124,-3.3124,-3.3124,-3.3124,-3.3124,-3.3124,-3.3124,-3.3124,-3.3124,-3.3124,-3.3124,-3.3124,-3.3124,-3.3124,-3.3124,-3.3124,-3.3124,-3.3124,-3.3124,-3.3124,-3.3124,-3.3124,-3.3124,-3.3124,-3.3124,-3.3124,-3.3124,-3.3124,-3.3124,-3.3124,-3.3124,-3.3124,-3.3124,-3.3124,-3.3124,-3.3124,-1.8087,-2.1436,-2.4822,0.0,-2.9924,-3.1182,-3.2153,0.0,0.0,0.0,0.0,0.0,0.0,0.0,0.0,0.0,0.0,0.0,0.0,0.0,0.0,0.0,0.0,0.0,0.0,0.0,0.0,0.0,0.0,0.0,-3.5504,-3.5504,-3.5504,-3.5504,-3.5504,0.0,-3.5504,-3.5504,-3.5504,-3.5504,-3.5504,-3.5279,-3.4839,-3.4839,-3.4275,-3.3363,-3.3196,-3.312,-3.3071,-3.2463,-3.2183,-3.2143,-3.1618,-3.1537,-3.175,-3.175,-3.1913,-3.2177,-3.2491,-3.2591,-3.2641,-3.2968,-3.3124,-3.3124,-3.3124,-3.3124,-3.3124,-3.3124,-3.3124,-3.3124,-3.3124,-3.3124,-3.3124,-3.3124,-3.3124,-3.3124,-3.3124,-3.3124,-3.3124,-3.3124,-3.3124,-3.3124,-3.3124,-3.3124,-3.3124,-3.3124,-3.3124,-3.3124,-3.3124,-3.3124,-3.3124,-3.3124,-3.3124,-3.3124,-3.3124,-3.3124,-3.3124,-3.3124,-3.3124,-3.3124,-3.3124,-3.3124,-3.3124,-3.3124,-3.3124,-3.3124,-3.3124,-3.3124,-3.3124,-3.3124,-3.3124,-3.3124,0.0,0.0,-2.2817,-2.5833,-2.8053,-2.9774,0.0,0.0,0.0,0.0,0.0,0.0,0.0,0.0,0.0,0.0,0.0,0.0,0.0,0.0,0.0,0.0,0.0,0.0,0.0,0.0,0.0,0.0,0.0,0.0,-3.5504,-3.5504,-3.5504,-3.5504,-3.5504,-3.5504,-3.5504,-3.5504,-3.5504,-3.5504,-3.5504,-3.5359,-3.5133,-3.5392,-3.4558,-3.2975,-3.3364,-3.3415,-3.3166,-3.2872,-3.2614,-3.2357,-3.1902,-3.1808,-3.1897,-3.1897,-3.2027,-3.218,-3.2592,-3.2746,-3.2808,-3.3161,-3.3267,-3.3208,-3.3116,-3.3124,-3.3124,-3.3124,-3.3124,-3.3124,-3.3124,-3.3124,-3.3124,-3.3124,-3.3124,-3.3124,-3.3124,-3.3124,-3.3124,-3.3124,-3.3124,-3.3124,-3.3124,-3.3124,-3.3124,-3.3124,-3.3124,-3.3124,-3.3124,-3.3124,-3.3124,-3.3124,-3.3124,-3.3124,-3.3124,-3.3124,-3.3124,-3.3124,-3.3124,-3.3124,-3.3124,-3.3124,-3.3124,-3.3124,-3.3124,-3.3124,-3.3124,-3.3124,-3.3124,-3.3124,-3.3124,-3.3124,0.0,-1.7443,0.0,-2.2832,-2.5315,0.0,0.0,0.0,0.0,0.0,0.0,0.0,0.0,0.0,0.0,0.0,0.0,0.0,0.0,0.0,0.0,0.0,0.0,0.0,0.0,0.0,0.0,0.0,0.0,0.0,-3.5504,-3.5504,-3.5504,-3.5504,-3.5504,-3.5504,-3.5504,-3.5504,-3.5504,-3.5504,-3.5504,-3.4986,-3.4095,-3.5067,-3.4905,-3.391,-3.3953,-3.3457,-3.2648,-3.2605,-3.2092,-3.1371,-3.22,-3.2868,-3.3289,-3.3289,-3.3673,-3.4156,-3.4183,-3.4197,-3.414,-3.3781,-3.3657,-3.3612,-3.3204,-3.3124,-3.3124,-3.3124,-3.3124,-3.3124,-3.3124,-3.3124,-3.3124,-3.3124,-3.3124,-3.3124,-3.3124,-3.3124,-3.3124,-3.3124,-3.3124,-3.3124,-3.3124,-3.3124,-3.3124,-3.3124,-3.3124,-3.3124,-3.3124,-3.3124,-3.3124,-3.3124,-3.3124,-3.3124,-3.3124,-3.3124,-3.3124,-3.3124,-3.3124,-3.3124,-3.3124,-3.3124,-3.3124,-3.3124,-3.3124,-3.3124,-3.3124,-3.3124,-3.3124,-3.3124,-3.3124,-3.3124,0.0,0.0,0.0,-2.1062,-2.3221,0.0,0.0,0.0,0.0,0.0,0.0,0.0,0.0,0.0,0.0,0.0,0.0,0.0,0.0,0.0,0.0,0.0,0.0,0.0,0.0,0.0,0.0,0.0,0.0,0.0,-3.5504,-3.5504,-3.5504,-3.5504,-3.5504,-3.5504,-3.5504,-3.5504,-3.5504,-3.5504,-3.5504,-3.5326,-3.4986,-3.5359,-3.5311,-3.4953,-3.4953,-3.4773,-3.4409,-3.3739,-3.331,-3.2961,-3.2713,-3.2731,-3.2889,-3.2889,-3.2627,-3.238,-3.2718,-3.2419,-3.1967,-3.2177,-3.2235,-3.2192,-3.205,-3.224,-3.2516,-3.2516,-3.2792,-3.3124,-3.3124,-3.3124,-3.3124,-3.3124,-3.3124,-3.3124,-3.3124,-3.3124,-3.3124,-3.3124,-3.3124,-3.3124,-3.3124,-3.3124,-3.3124,-3.3124,-3.3124,-3.3124,-3.3124,-3.3124,-3.3124,-3.3124,-3.3124,-3.3124,-3.3124,-3.3124,-3.3124,-3.3124,-3.3124,-3.3124,-3.3124,-3.3124,-3.3124,-3.3124,-3.3124,-3.3124,-3.3124,-3.3124,-3.3124,-3.3124,-3.3124,-3.3124,-1.4017,0.0,0.0,0.0,0.0,0.0,0.0,0.0,0.0,0.0,0.0,0.0,0.0,0.0,0.0,0.0,0.0,0.0,0.0,0.0,0.0,0.0,0.0,0.0,0.0,0.0,0.0,0.0,0.0,0.0,-3.5504,-3.5504,-3.5504,-3.5504,-3.5504,-3.5504,-3.5504,-3.5504,-3.5504,-3.5504,-3.5504,-3.5504,-3.5504,-3.5504,-3.5504,-3.5504,-3.5504,-3.5326,-3.4986,-3.4643,-3.4279,-3.3993,-3.3685,-3.3581,-3.3581,-3.3581,-3.3185,-3.2712,-3.304,-3.2754,-3.2294,-3.2524,-3.2579,-3.2476,-3.2012,-3.2102,-3.2326,-3.2009,-3.2215,-3.2516,-3.2516,-3.2654,-3.283,-3.3031,-3.3124,-3.3124,-3.3124,-3.3124,-3.3124,-3.3124,-3.3124,-3.3124,-3.3124,-3.3124,-3.3124,-3.3124,-3.3124,-3.3124,-3.3124,-3.3124,-3.3124,-3.3124,-3.3124,-3.3124,-3.3124,-3.3124,-3.3124,-3.3124,-3.3124,-3.3124,-3.3124,-3.3124,-3.3124,-3.3124,-3.3124,-3.3124,-3.3124,-3.3124,-3.3124,-3.3124,-3.3124,-3.3124,0.0,0.0,0.0,0.0,0.0,0.0,0.0,0.0,0.0,0.0,0.0,0.0,0.0,0.0,0.0,0.0,0.0,0.0,0.0,0.0,0.0,0.0,0.0,0.0,0.0,0.0,0.0,0.0,0.0,-3.5444,-3.5444,-3.5444,-3.5459,-3.5474,-3.5474,-3.5489,-3.5504,-3.5504,-3.5504,-3.5504,-3.5504,-3.5504,-3.5504,-3.5504,-3.5504,-3.5504,-3.5504,-3.4953,-3.4129,-3.51,-3.4905,-3.4129,-3.5133,-3.5504,-3.5504,-3.5504,-3.5472,-3.5472,-3.5472,-3.5439,-3.535,-3.4964,-3.4837,-3.4583,-3.3212,-3.2817,-3.2647,-3.1701,-3.1455,-3.1508,-3.1508,-3.1858,-3.2412,-3.3021,-3.3159,-3.3116,-3.3104,-3.3104,-3.3074,-3.3111,-3.3124,-3.3124,-3.3124,-3.3124,-3.3124,-3.3124,-3.3124,-3.3124,-3.3124,-3.3124,-3.3124,-3.3124,-3.3124,-3.3124,-3.3124,-3.3124,-3.3124,-3.3124,-3.3124,-3.3124,-3.3124,-3.3124,-3.3124,-3.3124,-3.3124,-3.3124,-3.3124,-3.3124,-3.3124,-3.3124,-3.3124,-3.3124,-1.378,0.0,0.0,0.0,0.0,0.0,0.0,0.0,0.0,0.0,0.0,0.0,0.0,0.0,0.0,0.0,0.0,0.0,0.0,0.0,0.0,0.0,0.0,0.0,0.0,0.0,0.0,0.0,-3.4053,-3.4053,-3.4053,-3.4053,-3.4277,-3.4741,-3.4788,-3.4996,-3.5504,-3.5504,-3.5504,-3.5504,-3.5504,-3.5504,-3.5504,-3.5504,-3.5504,-3.5504,-3.5504,-3.5359,-3.51,-3.5392,-3.5359,-3.51,-3.5392,-3.5504,-3.5504,-3.5504,-3.5019,-3.4428,-3.4428,-3.3973,-3.3388,-3.3276,-3.3226,-3.3183,-3.2759,-3.2931,-3.3196,-3.2896,-3.3156,-3.3492,-3.3492,-3.3613,-3.3748,-3.3909,-3.3963,-3.3753,-3.305,-3.289,-3.2918,-3.3076,-3.3124,-3.3124,-3.3124,-3.3124,-3.3124,-3.3124,-3.3124,-3.3124,-3.3124,-3.3124,-3.3124,-3.3124,-3.3124,-3.3124,-3.3124,-3.3124,-3.3124,-3.3124,-3.3124,-3.3124,-3.3124,-3.3124,-3.3124,-3.3124,-3.3124,-3.3124,-3.3124,-3.3124,-3.3124,-3.3124,-3.3124,-3.3124,-1.4917,-1.5651,0.0,0.0,0.0,0.0,0.0,0.0,0.0,0.0,0.0,0.0,0.0,0.0,0.0,0.0,0.0,0.0,0.0,0.0,0.0,0.0,0.0,0.0,0.0,0.0,0.0,0.0,-3.3499,-3.3499,-3.3499,-3.3499,-3.3664,-3.4053,-3.4068,-3.4262,-3.4666,-3.4666,-3.4801,-3.507,-3.507,-3.5235,-3.5504,-3.5504,-3.5504,-3.5504,-3.5504,-3.5504,-3.5504,-3.5504,-3.5504,-3.5504,-3.5504,-3.5504,-3.5504,-3.5504,-3.5133,-3.4624,-3.4624,-3.4259,-3.3802,-3.3802,-3.3802,-3.3719,-3.331,-3.3389,-3.3563,-3.3204,-3.3321,-3.3629,-3.3877,-3.3908,-3.4014,-3.4238,-3.399,-3.3517,-3.2935,-3.2488,-3.2305,-3.2668,-3.2717,-3.2792,-3.3074,-3.3124,-3.3124,-3.3124,-3.3124,-3.3124,-3.3124,-3.3124,-3.3124,-3.3124,-3.3124,-3.3124,-3.3124,-3.3124,-3.3124,-3.3124,-3.3124,-3.3124,-3.3124,-3.3124,-3.3124,-3.3124,-3.3124,-3.3124,-3.3124,-3.3124,-3.3124,-3.3124,-3.3124,-3.3124,-1.6293,-1.6578,-1.7294,0.0,0.0,0.0,-1.9765,-1.951,0.0,0.0,0.0,0.0,0.0,0.0,0.0,0.0,0.0,0.0,0.0,0.0,0.0,0.0,0.0,0.0,0.0,0.0,-3.317,-3.317,-3.323,-3.3275,-3.3275,-3.3275,-3.3305,-3.338,-3.338,-3.3425,-3.3499,-3.3499,-3.3784,-3.4399,-3.4399,-3.4726,-3.5385,-3.5385,-3.5429,-3.5504,-3.5504,-3.5504,-3.5504,-3.5504,-3.5504,-3.5504,-3.5504,-3.5504,-3.5504,-3.5504,-3.5504,-3.5504,-3.5504,-3.5504,-3.5504,-3.5504,-3.5504,-3.5326,-3.4428,-3.4177,-3.3993,-3.3171,-3.2925,-3.3016,-3.3523,-3.3626,-3.3765,-3.4312,-3.3734,-3.3085,-3.2969,-3.2293,-3.1822,-3.2231,-3.2189,-3.2303,-3.2898,-3.2998,-3.3023,-3.3111,-3.3124,-3.3124,-3.3124,-3.3124,-3.3124,-3.3124,-3.3124,-3.3124,-3.3124,-3.3124,-3.3124,-3.3124,-3.3124,-3.3124,-3.3124,-3.3124,-3.3124,-3.3124,-3.3124,-3.3124,-3.3124,-3.3124,-3.3124,-3.3124,-3.3124,-3.3124,-1.8313,-1.8612,-1.9046,-1.8777,0.0,0.0,0.0,-1.8491,0.0,0.0,0.0,0.0,0.0,0.0,0.0,0.0,0.0,0.0,0.0,0.0,0.0,0.0,0.0,0.0,0.0,0.0,-3.1091,-3.1091,-3.157,-3.1884,-3.1884,-3.1884,-3.2123,-3.2691,-3.2706,-3.2961,-3.3484,-3.3499,-3.3559,-3.3694,-3.3694,-3.4038,-3.4713,-3.4713,-3.4981,-3.5504,-3.5504,-3.5504,-3.5504,-3.5504,-3.5504,-3.5504,-3.5504,-3.5504,-3.5504,-3.5504,-3.5504,-3.5504,-3.5504,-3.5504,-3.5504,-3.5504,-3.5504,-3.5472,-3.5279,-3.5213,-3.5166,-3.5001,-3.492,-3.4949,-3.5082,-3.5078,-3.5108,-3.524,-3.5121,-3.4753,-3.3923,-3.3628,-3.342,-3.322,-3.2293,-3.1687,-3.2127,-3.219,-3.2445,-3.3023,-3.3124,-3.3124,-3.3124,-3.3124,-3.3124,-3.3124,-3.3124,-3.3124,-3.3124,-3.3124,-3.3124,-3.3124,-3.3124,-3.3124,-3.3124,-3.3124,-3.3124,-3.3124,-3.3124,-3.3124,-3.3124,-3.3124,-3.3124,-3.3124,-3.3124,-3.3124,-1.9465,-1.969,-2.0124,-1.9779,0.0,0.0,0.0,0.0,0.0,0.0,0.0,0.0,0.0,0.0,0.0,0.0,0.0,0.0,0.0,0.0,0.0,0.0,0.0,0.0,0.0,0.0,-3.0043,-3.0043,-3.0357,-3.0687,-3.0972,-3.0987,-3.1301,-3.1974,-3.1989,-3.2153,-3.2512,-3.2512,-3.2677,-3.3006,-3.3006,-3.335,-3.3978,-3.3978,-3.4352,-3.4996,-3.4996,-3.519,-3.5504,-3.5504,-3.5504,-3.5504,-3.5504,-3.5504,-3.5504,-3.5504,-3.5504,-3.5504,-3.5504,-3.5504,-3.5504,-3.5504,-3.5504,-3.5504,-3.5504,-3.5504,-3.5504,-3.5504,-3.5504,-3.5504,-3.5504,-3.5504,-3.5504,-3.5504,-3.5133,-3.461,-3.4095,-3.3636,-3.322,-3.303,-3.2465,-3.225,-3.3014,-3.2344,-3.2001,-3.2973,-3.3124,-3.3124,-3.3124,-3.3124,-3.3124,-3.3124,-3.3124,-3.3124,-3.3124,-3.3124,-3.2955,-3.2667,-3.2641,-3.2641,-3.2641,-3.2641,-3.278,-3.3111,-3.2792,-3.2792,-3.3124,-3.278,-3.2792,-3.3124,-3.3124,-3.3124,0.0,0.0,0.0,0.0,0.0,-2.0587,0.0,0.0,0.0,-1.9986,0.0,0.0,0.0,0.0,0.0,0.0,0.0,0.0,0.0,0.0,0.0,0.0,0.0,0.0,0.0,0.0,-2.8846,-2.9382,-2.9172,-2.9385,-3.0283,-3.0432,-3.0761,-3.1286,-3.1436,-3.1511,-3.1511,-3.1511,-3.1765,-3.2303,-3.2303,-3.2677,-3.3305,-3.3305,-3.3664,-3.4324,-3.4324,-3.4681,-3.531,-3.531,-3.5385,-3.5504,-3.5504,-3.5504,-3.5504,-3.5504,-3.5504,-3.5504,-3.5504,-3.5504,-3.5504,-3.5504,-3.5504,-3.5504,-3.5504,-3.5504,-3.5504,-3.5504,-3.5504,-3.5504,-3.5504,-3.5504,-3.5504,-3.5504,-3.4872,-3.4279,-3.4279,-3.3685,-3.315,-3.315,-3.315,-3.3282,-3.3622,-3.254,-3.1794,-3.2386,-3.2441,-3.2646,-3.3074,-3.2923,-3.2797,-3.2797,-3.2797,-3.2797,-3.2797,-3.2797,-3.2554,-3.2089,-3.2051,-3.2051,-3.2051,-3.2051,-3.2277,-3.2742,-3.229,-3.229,-3.2797,-3.239,-3.2503,-3.3124,-3.3124,-3.3124,0.0,0.0,0.0,0.0,-2.2811,0.0,0.0,0.0,-2.0001,-1.8386,0.0,0.0,0.0,0.0,0.0,0.0,0.0,0.0,0.0,0.0,0.0,0.0,0.0,0.0,0.0,0.0,0.0,-2.8532,-2.7604,-2.7739,-2.9579,-3.0208,-3.0537,-3.0612,-3.1182,-3.1511,-3.1511,-3.1511,-3.154,-3.1615,-3.1615,-3.1959,-3.2617,-3.2617,-3.2976,-3.3604,-3.3604,-3.3978,-3.4623,-3.4623,-3.4951,-3.5504,-3.5504,-3.5504,-3.5504,-3.5504,-3.5504,-3.5504,-3.5504,-3.5504,-3.5504,-3.5504,-3.5504,-3.5504,-3.5504,-3.5504,-3.5504,-3.5504,-3.5504,-3.5504,-3.5504,-3.5504,-3.5504,-3.5504,-3.5392,-3.5326,-3.5326,-3.5246,-3.518,-3.518,-3.518,-3.4399,-3.1967,-3.2054,-3.1924,-3.0404,-3.0168,-3.0871,-3.2872,-3.2202,-3.1587,-3.1587,-3.1587,-3.1587,-3.1587,-3.1587,-3.1549,-3.1486,-3.1486,-3.1486,-3.1486,-3.1486,-3.1512,-3.1587,-3.1512,-3.1512,-3.1587,-3.2001,-3.2503,-3.3124,-3.3124,-3.3124,0.0,0.0,0.0,0.0,0.0,0.0,0.0,0.0,-1.9989,0.0,0.0,0.0,0.0,0.0,0.0,0.0,0.0,0.0,0.0,0.0,0.0,0.0,0.0,0.0,0.0,0.0,0.0,0.0,0.0,-2.5734,-2.7739,-2.8483,-2.9325,-3.0462,-3.0763,-3.1107,-3.1511,-3.1511,-3.1511,-3.1511,-3.1511,-3.1645,-3.1914,-3.1914,-3.2273,-3.2931,-3.2931,-3.3305,-3.3933,-3.4354,-3.4683,-3.4951,-3.5355,-3.5504,-3.5504,-3.5504,-3.5504,-3.5504,-3.5504,-3.5504,-3.5504,-3.5504,-3.5504,-3.5504,-3.5504,-3.5504,-3.5504,-3.5504,-3.5504,-3.5504,-3.5504,-3.5504,-3.5504,-3.5504,-3.5504,-3.5504,-3.5504,-3.5504,-3.5504,-3.5504,-3.5504,-3.492,-3.3136,-3.301,-3.267,-3.1108,-3.0254,-3.0131,-3.106,-3.1135,-3.1097,-3.1097,-3.1273,-3.1386,-3.1386,-3.1386,-3.126,-3.0959,-3.0947,-3.0947,-3.0947,-3.1223,-3.1386,-3.1386,-3.1097,-3.1085,-3.1386,-3.1323,-3.1725,-3.2591,-3.2918,-3.3124,-2.3127,0.0,0.0,0.0,0.0,0.0,0.0,0.0,0.0,0.0,0.0,0.0,0.0,0.0,0.0,0.0,0.0,0.0,0.0,0.0,0.0,0.0,0.0,0.0,0.0,0.0,0.0,0.0,0.0,0.0,-2.5929,-2.6866,-2.8064,-2.9639,-3.0223,-3.0746,-3.1212,-3.1406,-3.1511,-3.1511,-3.1511,-3.1511,-3.1511,-3.1511,-3.1765,-3.2213,-3.2213,-3.2617,-3.326,-3.3739,-3.4174,-3.4563,-3.5026,-3.534,-3.5504,-3.5504,-3.5504,-3.5504,-3.5504,-3.5504,-3.5504,-3.5504,-3.5504,-3.5504,-3.5504,-3.5504,-3.5504,-3.5504,-3.5504,-3.5504,-3.5504,-3.5504,-3.5504,-3.5504,-3.5504,-3.5504,-3.5504,-3.5504,-3.5504,-3.5504,-3.5504,-3.5279,-3.4543,-3.424,-3.3679,-3.2398,-3.1294,-3.057,-3.057,-3.1202,-3.1655,-3.1655,-3.1459,-3.1349,-3.1349,-3.1095,-3.0796,-3.0419,-3.0394,-3.0394,-3.0394,-3.0746,-3.0947,-3.0947,-3.0583,-3.057,-3.0947,-3.0721,-3.1022,-3.1788,-3.2503,-3.2918,0.0,0.0,0.0,-2.2486,0.0,0.0,0.0,0.0,-2.1261,0.0,0.0,0.0,0.0,0.0,-1.8446,-1.7833,0.0,0.0,0.0,0.0,0.0,0.0,0.0,0.0,0.0,0.0,0.0,0.0,0.0,0.0,-2.4485,-2.5914,-2.6971,-2.766,-2.9505,-3.0507,-3.0537,-3.1182,-3.1511,-3.1511,-3.1511,-3.1511,-3.1511,-3.1511,-3.1511,-3.154,-3.154,-3.1914,-3.2512,-3.2572,-3.332,-3.4503,-3.4533,-3.4921,-3.5504,-3.5504,-3.5504,-3.5504,-3.5504,-3.5504,-3.5504,-3.5504,-3.5504,-3.5504,-3.5504,-3.5504,-3.5504,-3.5504,-3.5504,-3.5504,-3.5504,-3.5504,-3.5504,-3.5504,-3.5504,-3.5504,-3.5504,-3.5504,-3.5504,-3.5504,-3.5504,-3.5504,-3.5472,-3.5424,-3.5001,-3.3713,-3.2939,-3.25,-3.25,-3.3087,-3.35,-3.35,-3.2137,-3.1196,-3.1196,-3.0369,-2.9829,-2.9817,-2.9817,-2.9817,-2.9817,-2.9829,-2.9842,-2.9842,-2.9829,-2.9829,-2.9842,-3.0369,-3.0633,-3.0696,-3.175,-3.2541,0.0,0.0,-2.7089,-2.4256,0.0,0.0,0.0,0.0,0.0,0.0,0.0,0.0,0.0,0.0,-1.8627,-1.8386,-1.7997,0.0,0.0,0.0,0.0,0.0,0.0,0.0,0.0,0.0,0.0,0.0,0.0,0.0,0.0,-2.4986,-2.6437,-2.7555,-2.8667,-2.9654,-3.0492,-3.0731,-3.1047,-3.1511,-3.1511,-3.1511,-3.1511,-3.1511,-3.1511,-3.1511,-3.1511,-3.163,-3.1869,-3.2303,-3.2781,-3.326,-3.4159,-3.4653,-3.4876,-3.534,-3.5504,-3.5504,-3.5504,-3.5504,-3.5504,-3.5504,-3.5504,-3.5504,-3.5504,-3.5504,-3.5504,-3.5504,-3.5504,-3.5504,-3.5504,-3.5504,-3.5504,-3.5504,-3.5504,-3.5504,-3.5504,-3.5504,-3.5504,-3.5504,-3.5504,-3.5504,-3.5504,-3.5504,-3.5148,-3.4041,-3.3671,-3.331,-3.2664,-3.2784,-3.2692,-3.2083,-3.1536,-3.0932,-3.0317,-2.996,-2.9792,-2.9792,-2.9792,-2.9792,-2.9792,-2.9792,-2.9792,-2.9792,-2.9792,-2.9792,-2.9792,-2.998,-3.0256,-3.062,-3.0984,-3.1449,-2.8205,-2.8382,0.0,-2.5774,-2.5174,0.0,-2.1953,0.0,0.0,0.0,0.0,0.0,0.0,0.0,-1.9133,-1.9343,-1.8433,-1.74,0.0,0.0,0.0,0.0,0.0,0.0,0.0,0.0,-1.8525,-1.9016,0.0,0.0,0.0,0.0,-2.5495,-2.6866,-2.7993,-2.8996,-2.9819,-3.0268,-3.0731,-3.1137,-3.1391,-3.1511,-3.1511,-3.1511,-3.1511,-3.1511,-3.1511,-3.1511,-3.154,-3.1959,-3.2273,-3.2602,-3.344,-3.4099,-3.4593,-3.525,-3.5504,-3.5504,-3.5504,-3.5504,-3.5504,-3.5504,-3.5504,-3.5504,-3.5504,-3.5504,-3.5504,-3.5504,-3.5504,-3.5504,-3.5504,-3.5504,-3.5504,-3.5504,-3.5504,-3.5504,-3.5504,-3.5504,-3.5504,-3.5504,-3.5504,-3.5504,-3.5504,-3.5504,-3.5279,-3.461,-3.4543,-3.4327,-3.3719,-3.365,-3.3408,-3.2798,-3.2393,-3.1829,-3.0884,-3.0495,-3.0317,-3.0317,-2.996,-2.9792,-2.9792,-2.9792,-2.9792,-2.9792,-2.9792,-2.9792,-2.9792,-2.9792,-2.998,-3.0319,-3.0319,-3.0495]},{"header":{"parameterUnit":"m.s-1","parameterCategory":1,"la1":30.6,"la2":29.2853,"lo1":-89.7004,"lo2":-87.6739,"dy":0.0162,"dx":0.0183,"nx":112,"ny":82,"refTime":"2024-06-23T00:00:00:Z","depth":0,"parameterNumber":3,"parameterNumberName":"V-component_of_WINDS"},"data":[0.0,0.0,0.0,0.0,0.0,0.0,0.0,0.0,0.0,0.0,0.0,0.0,0.0,0.0,0.0,0.0,0.0,0.0,0.0,0.0,0.0,0.0,0.0,0.0,0.0,0.0,0.0,0.0,0.0,0.0,0.0,0.0,0.0,0.0,0.0,0.0,0.0,0.0,0.0,0.0,0.0,0.0,0.0,0.0,0.0,0.0,0.0,0.0,0.0,0.0,0.0,0.0,0.0,0.0,0.0,0.0,0.0,0.0,0.0,0.0,0.0,0.0,0.0,0.0,0.0,0.0,0.0,0.0,0.0,0.0,0.0,0.0,0.0,0.0,0.0,0.0,0.0,0.0,0.0,0.0,0.0,0.0,0.0,0.0,0.0,0.0,0.0,0.0,0.0,0.0,0.0,-2.8019,-3.2047,-3.4234,-3.3559,-3.2796,-3.0432,-2.5899,0.0,0.0,0.0,0.0,0.0,0.0,0.0,0.0,0.0,0.0,0.0,0.0,0.0,0.0,0.0,0.0,0.0,0.0,0.0,0.0,0.0,0.0,0.0,0.0,0.0,0.0,0.0,0.0,0.0,0.0,0.0,0.0,0.0,0.0,0.0,0.0,0.0,0.0,0.0,0.0,0.0,0.0,0.0,0.0,0.0,0.0,0.0,0.0,0.0,0.0,0.0,0.0,0.0,0.0,0.0,0.0,0.0,0.0,0.0,0.0,0.0,0.0,0.0,0.0,0.0,0.0,0.0,0.0,0.0,0.0,0.0,0.0,0.0,0.0,0.0,0.0,0.0,0.0,0.0,0.0,0.0,0.0,0.0,0.0,0.0,0.0,0.0,0.0,0.0,0.0,0.0,0.0,0.0,0.0,0.0,0.0,0.0,0.0,0.0,0.0,0.0,0.0,0.0,0.0,-2.5144,-3.112,-3.338,-3.4234,-3.3559,-3.2348,-2.9926,-2.5869,0.0,0.0,0.0,0.0,0.0,0.0,0.0,0.0,0.0,0.0,0.0,0.0,0.0,0.0,0.0,0.0,0.0,0.0,0.0,0.0,0.0,0.0,0.0,0.0,0.0,0.0,0.0,0.0,0.0,0.0,0.0,0.0,0.0,0.0,0.0,0.0,0.0,0.0,0.0,0.0,0.0,0.0,0.0,0.0,0.0,0.0,0.0,0.0,0.0,0.0,0.0,0.0,0.0,0.0,0.0,0.0,0.0,0.0,0.0,0.0,0.0,0.0,0.0,0.0,0.0,0.0,0.0,0.0,0.0,0.0,0.0,0.0,0.0,0.0,0.0,0.0,0.0,0.0,0.0,0.0,0.0,0.0,0.0,0.0,0.0,0.0,0.0,0.0,0.0,0.0,0.0,0.0,0.0,0.0,0.0,0.0,0.0,0.0,0.0,0.0,0.0,0.0,0.0,-2.4717,-2.7724,-3.2527,-3.4233,-3.4622,-3.3589,-3.2258,-2.9806,-2.5854,-2.343,0.0,0.0,0.0,0.0,0.0,0.0,0.0,0.0,0.0,0.0,0.0,0.0,0.0,0.0,0.0,0.0,0.0,0.0,0.0,0.0,0.0,0.0,0.0,0.0,0.0,0.0,0.0,0.0,0.0,0.0,0.0,0.0,0.0,0.0,0.0,0.0,0.0,0.0,0.0,0.0,0.0,0.0,0.0,0.0,0.0,0.0,0.0,0.0,0.0,0.0,0.0,0.0,0.0,0.0,0.0,0.0,0.0,0.0,0.0,0.0,0.0,0.0,0.0,0.0,0.0,0.0,0.0,0.0,0.0,0.0,0.0,0.0,0.0,0.0,0.0,0.0,0.0,0.0,0.0,0.0,0.0,0.0,0.0,0.0,0.0,0.0,0.0,0.0,0.0,0.0,0.0,0.0,0.0,0.0,0.0,0.0,0.0,0.0,0.0,0.0,0.0,0.0,-2.8293,-3.0372,-3.32,-3.4696,-3.4966,-3.3604,-3.2003,-2.9478,-2.5839,-2.2697,0.0,0.0,0.0,0.0,0.0,0.0,0.0,0.0,0.0,0.0,0.0,0.0,0.0,0.0,0.0,0.0,0.0,0.0,0.0,0.0,0.0,0.0,0.0,0.0,0.0,0.0,0.0,0.0,0.0,0.0,0.0,0.0,0.0,0.0,0.0,0.0,0.0,0.0,0.0,0.0,0.0,0.0,0.0,0.0,0.0,0.0,0.0,0.0,0.0,0.0,0.0,0.0,0.0,0.0,0.0,0.0,0.0,0.0,0.0,0.0,0.0,0.0,0.0,0.0,0.0,0.0,0.0,0.0,0.0,0.0,0.0,0.0,0.0,0.0,0.0,0.0,0.0,0.0,0.0,0.0,0.0,0.0,0.0,0.0,0.0,0.0,0.0,0.0,0.0,0.0,0.0,0.0,0.0,0.0,0.0,0.0,0.0,0.0,0.0,0.0,0.0,0.0,-2.8611,-3.1854,-3.3335,-3.4696,-3.4966,-3.3604,-3.118,-2.8547,-2.5779,-2.1395,0.0,0.0,0.0,0.0,0.0,0.0,0.0,0.0,0.0,0.0,0.0,0.0,0.0,0.0,0.0,0.0,0.0,0.0,0.0,0.0,0.0,0.0,0.0,0.0,0.0,0.0,0.0,0.0,0.0,0.0,0.0,0.0,0.0,0.0,0.0,0.0,0.0,0.0,0.0,0.0,0.0,0.0,0.0,0.0,0.0,0.0,0.0,0.0,0.0,0.0,0.0,0.0,0.0,0.0,0.0,0.0,0.0,0.0,0.0,0.0,0.0,0.0,0.0,0.0,0.0,0.0,0.0,0.0,0.0,0.0,0.0,0.0,0.0,0.0,0.0,0.0,0.0,0.0,0.0,0.0,0.0,0.0,0.0,0.0,0.0,0.0,0.0,0.0,0.0,0.0,0.0,0.0,0.0,0.0,0.0,0.0,0.0,0.0,0.0,0.0,0.0,0.0,-2.7833,-3.0672,0.0,-3.3948,-3.4053,-3.3544,-3.145,-2.8861,-2.5794,0.0,0.0,0.0,0.0,0.0,0.0,0.0,0.0,0.0,0.0,0.0,0.0,0.0,0.0,0.0,0.0,0.0,0.0,0.0,0.0,0.0,0.0,0.0,0.0,0.0,0.0,0.0,0.0,0.0,0.0,0.0,0.0,0.0,0.0,0.0,0.0,0.0,0.0,0.0,0.0,0.0,0.0,0.0,0.0,0.0,0.0,0.0,0.0,0.0,0.0,0.0,0.0,0.0,0.0,0.0,0.0,0.0,0.0,0.0,0.0,0.0,0.0,0.0,0.0,0.0,0.0,0.0,0.0,0.0,0.0,0.0,0.0,0.0,0.0,0.0,0.0,0.0,0.0,0.0,0.0,0.0,0.0,0.0,0.0,0.0,0.0,0.0,0.0,0.0,0.0,0.0,0.0,0.0,0.0,0.0,0.0,0.0,0.0,0.0,0.0,0.0,0.0,-2.4971,-2.7878,-3.0552,0.0,-3.3679,-3.3724,-3.3514,-3.1091,-2.8353,-2.5457,0.0,0.0,0.0,0.0,0.0,0.0,0.0,0.0,0.0,0.0,0.0,0.0,0.0,0.0,0.0,0.0,0.0,0.0,0.0,0.0,0.0,0.0,0.0,0.0,0.0,0.0,0.0,0.0,0.0,0.0,0.0,0.0,0.0,0.0,0.0,0.0,0.0,0.0,0.0,0.0,0.0,0.0,0.0,0.0,0.0,0.0,0.0,0.0,0.0,0.0,0.0,0.0,0.0,0.0,0.0,0.0,0.0,0.0,0.0,0.0,0.0,0.0,0.0,0.0,0.0,0.0,0.0,0.0,0.0,0.0,0.0,0.0,0.0,0.0,0.0,0.0,0.0,0.0,0.0,0.0,0.0,0.0,0.0,0.0,0.0,0.0,0.0,0.0,0.0,0.0,0.0,0.0,0.0,0.0,0.0,0.0,0.0,0.0,0.0,0.0,0.0,0.0,-2.5091,-2.9044,-3.2004,-3.335,-3.4099,-3.4219,-3.3544,-2.9891,-2.6761,0.0,0.0,0.0,0.0,0.0,0.0,0.0,0.0,0.0,0.0,0.0,0.0,0.0,0.0,0.0,0.0,0.0,0.0,0.0,0.0,0.0,0.0,0.0,0.0,0.0,0.0,0.0,0.0,0.0,0.0,0.0,0.0,0.0,0.0,0.0,0.0,0.0,0.0,0.0,0.0,0.0,0.0,0.0,0.0,0.0,0.0,0.0,0.0,0.0,0.0,0.0,0.0,0.0,0.0,0.0,0.0,0.0,0.0,0.0,0.0,0.0,0.0,0.0,0.0,0.0,0.0,0.0,0.0,0.0,0.0,0.0,0.0,0.0,0.0,0.0,0.0,0.0,0.0,0.0,0.0,0.0,0.0,0.0,0.0,0.0,0.0,0.0,0.0,0.0,0.0,0.0,0.0,0.0,0.0,0.0,0.0,0.0,0.0,0.0,0.0,0.0,0.0,0.0,-2.5091,-2.8626,-3.1495,-3.3305,-3.3245,-3.32,-3.3469,-3.0298,-2.7455,-2.5427,0.0,0.0,0.0,0.0,0.0,0.0,0.0,0.0,0.0,0.0,0.0,0.0,0.0,0.0,0.0,0.0,0.0,0.0,0.0,0.0,0.0,0.0,0.0,0.0,0.0,0.0,0.0,0.0,0.0,0.0,0.0,0.0,0.0,0.0,0.0,0.0,0.0,0.0,0.0,0.0,0.0,0.0,0.0,0.0,0.0,0.0,0.0,0.0,0.0,0.0,0.0,0.0,0.0,0.0,0.0,0.0,0.0,0.0,0.0,0.0,0.0,0.0,0.0,0.0,0.0,0.0,0.0,0.0,0.0,0.0,0.0,0.0,0.0,0.0,0.0,0.0,0.0,0.0,0.0,0.0,0.0,0.0,0.0,0.0,0.0,0.0,0.0,0.0,0.0,0.0,0.0,0.0,0.0,0.0,0.0,0.0,0.0,0.0,0.0,0.0,0.0,0.0,-2.5136,-2.8685,-3.1584,-3.3305,-3.314,-3.3066,-3.3469,-3.0492,-2.7634,-2.5337,0.0,0.0,0.0,0.0,0.0,0.0,0.0,0.0,0.0,0.0,0.0,0.0,0.0,0.0,0.0,0.0,0.0,0.0,0.0,0.0,0.0,0.0,0.0,0.0,0.0,0.0,0.0,0.0,0.0,0.0,0.0,0.0,0.0,0.0,0.0,0.0,0.0,0.0,0.0,0.0,0.0,0.0,0.0,0.0,0.0,0.0,0.0,0.0,0.0,0.0,0.0,0.0,0.0,0.0,0.0,0.0,0.0,0.0,0.0,0.0,0.0,0.0,0.0,0.0,0.0,0.0,0.0,0.0,0.0,0.0,0.0,0.0,0.0,0.0,0.0,0.0,0.0,0.0,0.0,0.0,0.0,0.0,0.0,0.0,0.0,0.0,0.0,0.0,0.0,0.0,0.0,0.0,0.0,0.0,0.0,0.0,0.0,0.0,0.0,0.0,0.0,0.0,-2.527,-2.9149,-3.2108,-3.344,-3.3529,-3.3499,-3.3499,-3.0552,-2.7604,-2.5038,0.0,0.0,0.0,0.0,0.0,0.0,0.0,0.0,0.0,0.0,0.0,0.0,0.0,0.0,0.0,0.0,0.0,0.0,0.0,0.0,0.0,0.0,0.0,0.0,0.0,0.0,0.0,0.0,0.0,0.0,0.0,0.0,0.0,0.0,0.0,0.0,0.0,0.0,0.0,0.0,0.0,0.0,0.0,0.0,0.0,0.0,0.0,0.0,0.0,0.0,0.0,0.0,0.0,0.0,0.0,0.0,0.0,0.0,0.0,0.0,-2.144,0.0,0.0,0.0,0.0,0.0,0.0,0.0,0.0,0.0,0.0,0.0,0.0,0.0,0.0,0.0,0.0,0.0,0.0,0.0,0.0,0.0,0.0,0.0,0.0,0.0,0.0,0.0,0.0,0.0,0.0,0.0,0.0,0.0,0.0,0.0,0.0,0.0,0.0,0.0,0.0,0.0,-2.5959,-2.9849,-3.2811,-3.4159,-3.3799,-3.3499,-3.3499,-3.0956,-2.8682,-2.7061,0.0,0.0,0.0,0.0,0.0,0.0,0.0,0.0,0.0,0.0,0.0,0.0,0.0,0.0,0.0,0.0,0.0,0.0,0.0,0.0,0.0,0.0,0.0,0.0,0.0,0.0,0.0,0.0,0.0,0.0,0.0,0.0,0.0,0.0,0.0,0.0,0.0,0.0,0.0,0.0,0.0,0.0,0.0,0.0,0.0,0.0,0.0,0.0,0.0,0.0,0.0,0.0,0.0,0.0,0.0,0.0,0.0,0.0,0.0,0.0,0.0,-2.3714,0.0,0.0,0.0,0.0,0.0,0.0,0.0,0.0,0.0,0.0,0.0,0.0,0.0,0.0,0.0,0.0,0.0,0.0,0.0,0.0,0.0,0.0,0.0,0.0,0.0,0.0,0.0,0.0,0.0,0.0,0.0,0.0,0.0,0.0,0.0,0.0,0.0,0.0,0.0,0.0,-2.6701,-3.0253,-3.3021,-3.4369,-3.4204,-3.3844,-3.3529,-3.1659,-2.9684,-2.772,-2.5084,0.0,0.0,0.0,0.0,0.0,0.0,0.0,0.0,0.0,0.0,0.0,0.0,0.0,0.0,0.0,0.0,0.0,0.0,0.0,0.0,0.0,0.0,0.0,0.0,0.0,0.0,0.0,0.0,0.0,0.0,0.0,0.0,0.0,0.0,0.0,0.0,0.0,0.0,0.0,0.0,0.0,0.0,0.0,0.0,0.0,0.0,0.0,0.0,0.0,0.0,0.0,0.0,0.0,0.0,-2.9789,-2.9187,-3.0415,-3.0941,-3.0879,-2.919,-2.8349,-2.7929,0.0,0.0,0.0,0.0,0.0,0.0,0.0,0.0,0.0,0.0,0.0,0.0,0.0,0.0,0.0,0.0,0.0,0.0,0.0,0.0,0.0,0.0,0.0,0.0,0.0,-2.9397,-2.9217,0.0,0.0,0.0,0.0,0.0,0.0,0.0,0.0,0.0,0.0,0.0,0.0,-2.7615,-3.0806,-3.332,-3.4548,-3.4578,-3.4234,-3.3559,-3.2392,-3.0644,-2.8259,-2.6737,-2.4785,0.0,0.0,0.0,0.0,0.0,0.0,0.0,0.0,0.0,0.0,0.0,0.0,0.0,0.0,0.0,0.0,0.0,0.0,0.0,0.0,0.0,0.0,0.0,0.0,0.0,0.0,0.0,0.0,0.0,0.0,0.0,0.0,-1.6719,-1.7349,0.0,0.0,0.0,0.0,0.0,0.0,0.0,0.0,0.0,0.0,0.0,0.0,0.0,0.0,-2.8203,-3.121,-3.2422,-3.1898,-3.4846,-3.5923,-3.534,-3.6043,-3.6372,-3.6372,-3.6103,0.0,-2.9998,-2.8547,0.0,0.0,0.0,0.0,0.0,0.0,0.0,0.0,0.0,0.0,0.0,0.0,0.0,0.0,0.0,0.0,0.0,0.0,0.0,0.0,0.0,0.0,-3.2467,-3.1973,-3.2437,-3.2662,0.0,-2.8188,-2.5128,-2.4036,0.0,0.0,0.0,0.0,0.0,0.0,0.0,0.0,-2.9082,-3.2212,-3.4548,-3.5295,-3.4863,-3.4234,-3.3559,-3.2811,-3.1734,-3.0208,-2.8378,-2.6905,-2.5925,-2.2813,0.0,0.0,0.0,0.0,0.0,0.0,0.0,0.0,0.0,0.0,0.0,0.0,0.0,0.0,0.0,0.0,0.0,0.0,0.0,0.0,0.0,0.0,0.0,0.0,0.0,0.0,0.0,0.0,0.0,-1.6963,-1.9708,-1.9512,-2.0623,-2.0861,0.0,0.0,0.0,0.0,0.0,0.0,0.0,0.0,0.0,-2.8865,-3.0507,-3.1898,-3.3021,-3.4801,-3.5549,-3.528,-3.6716,-3.727,-3.7015,-3.7285,-3.7404,-3.7404,-3.7404,-3.6252,-3.4233,-3.2183,-3.0567,-2.9175,0.0,0.0,0.0,0.0,0.0,-2.759,-2.9729,-3.0043,0.0,0.0,0.0,0.0,0.0,0.0,0.0,0.0,0.0,0.0,0.0,0.0,0.0,-3.4083,-3.4412,-3.4547,-3.4262,-3.2302,-2.9968,0.0,-2.6991,-2.563,-2.2443,0.0,0.0,0.0,0.0,0.0,-3.0477,-3.2901,-3.4773,-3.5429,-3.5235,-3.4637,-3.3589,-3.323,-3.2332,-3.0612,-2.9699,-2.8618,-2.7225,-2.5477,-2.3589,0.0,0.0,0.0,0.0,0.0,0.0,0.0,0.0,0.0,0.0,0.0,0.0,0.0,0.0,0.0,0.0,0.0,0.0,0.0,0.0,0.0,0.0,0.0,0.0,0.0,0.0,0.0,0.0,-1.9707,-2.1953,-2.1337,-2.2858,-2.3437,0.0,0.0,0.0,0.0,0.0,0.0,-2.8023,-2.937,-3.0926,-3.2706,-3.3903,-3.522,-3.6716,-3.7524,-3.7913,-3.7928,-3.8257,-3.8422,-3.8422,-3.8422,-3.8422,-3.8422,-3.8422,-3.8422,-3.8212,-3.5415,-3.3589,-3.2363,-3.0746,-2.9789,-2.9487,-3.049,-3.0775,-3.0971,-3.341,-3.3933,-3.3455,-3.2931,0.0,-3.1391,-2.943,0.0,0.0,0.0,0.0,-3.0956,-3.2587,-3.3514,-3.4262,-3.5265,-3.5504,-3.5504,-3.5504,-3.51,-3.3918,0.0,-3.0821,-2.9819,-2.6019,0.0,0.0,0.0,0.0,-3.0746,-3.1854,-3.3619,-3.4936,-3.5444,-3.5504,-3.4966,-3.3604,-3.3499,-3.2706,-3.0881,-3.0447,-2.9609,-2.8169,-2.7579,-2.5978,-2.3227,0.0,0.0,0.0,0.0,0.0,0.0,0.0,0.0,0.0,0.0,0.0,0.0,0.0,0.0,0.0,0.0,0.0,0.0,0.0,0.0,0.0,0.0,0.0,0.0,0.0,0.0,0.0,0.0,0.0,-2.2848,-2.5497,0.0,0.0,0.0,0.0,-2.8203,-2.8936,-3.0178,-3.2108,-3.3469,-3.4848,-3.6193,-3.6866,-3.7255,-3.736,-3.8661,-3.932,-3.9298,-4.0591,-4.1212,-4.1212,-4.1212,-4.1212,-4.1212,-4.1212,-4.1212,-4.0973,-3.7674,-3.5923,-3.5235,-3.4472,-3.4189,-3.4174,-3.4234,-3.5058,-3.6118,-3.6282,-3.6312,-3.6282,-3.6252,-3.4532,-3.2437,-3.2302,-3.1375,0.0,0.0,-3.2317,-3.3469,-3.4219,-3.4891,-3.5429,-3.5489,-3.5504,-3.5504,-3.5504,-3.5474,-3.5026,0.0,-3.2811,-3.1928,-3.0417,0.0,-3.0238,-3.0163,-3.142,-3.2617,-3.3305,-3.4607,-3.5474,-3.5504,-3.5504,-3.4966,-3.3604,-3.3499,-3.2916,-3.154,-3.0313,-2.9606,-2.9517,-2.8204,-2.6967,-2.5821,-2.3658,0.0,0.0,0.0,0.0,0.0,0.0,0.0,0.0,0.0,0.0,0.0,0.0,0.0,0.0,0.0,0.0,0.0,0.0,0.0,0.0,0.0,0.0,0.0,0.0,0.0,0.0,0.0,0.0,-2.6589,-2.8666,0.0,0.0,-2.8742,-2.9669,-3.1016,-3.2123,-3.344,-3.4981,-3.5893,-3.6985,-3.8332,-3.8586,-3.911,-3.9963,-4.0442,-4.0681,-4.0681,-4.116,-4.1422,-4.1422,-4.1422,-4.1422,-4.1422,-4.1422,-4.1422,-4.1332,-4.0149,-3.899,-3.7913,-3.6806,-3.6372,-3.6372,-3.6372,-3.6671,-3.7075,-3.7075,-3.7075,-3.7075,-3.7075,-3.6432,-3.5669,-3.5669,-3.5325,-3.4996,-3.525,-3.5654,-3.6073,-3.6297,-3.6552,-3.6626,-3.6237,-3.6133,-3.6028,-3.5594,-3.5504,-3.537,-3.4876,-3.4247,-3.335,-3.2033,-3.2153,-3.2138,-3.1256,-3.2662,-3.3858,-3.4129,-3.4936,-3.5504,-3.5504,-3.5504,-3.4966,-3.3604,-3.3499,-3.2736,-3.0986,-3.0432,-2.9804,-2.8981,-2.8067,-2.6941,-2.5633,-2.47,-2.28,0.0,0.0,0.0,0.0,0.0,0.0,0.0,0.0,0.0,0.0,0.0,0.0,0.0,0.0,0.0,0.0,0.0,0.0,0.0,0.0,0.0,0.0,0.0,0.0,0.0,0.0,-2.9011,-2.922,-3.1195,-3.2093,-3.1029,-3.1884,-3.2976,-3.4083,-3.4981,-3.6058,-3.7404,-3.7868,-3.8706,-4.0038,-4.0083,-4.0502,-4.1407,-4.1632,-4.1752,-4.1752,-4.1938,-4.2043,-4.2043,-4.2043,-4.2043,-4.2043,-4.2043,-4.2043,-4.2028,-4.1841,-4.119,-4.0307,-3.9185,-3.8751,-3.8721,-3.8497,-3.8422,-3.8392,-3.8167,-3.7943,-3.7749,-3.7749,-3.7584,-3.7404,-3.7404,-3.7404,-3.7404,-3.7404,-3.7404,-3.7404,-3.7404,-3.7404,-3.73,-3.6896,-3.6791,-3.6671,-3.6252,-3.5983,-3.5833,-3.5833,-3.5295,-3.4547,-3.3679,-3.3888,-3.3873,-3.2975,-3.3978,-3.4848,-3.4848,-3.522,-3.5504,-3.5504,-3.5504,-3.4966,-3.3604,-3.329,-3.2512,-3.0956,-3.0223,-2.9579,-2.8951,-2.8042,-2.7063,-2.6029,-2.5516,-2.4041,-2.1552,0.0,0.0,0.0,0.0,0.0,0.0,0.0,0.0,0.0,0.0,0.0,0.0,0.0,0.0,0.0,0.0,0.0,0.0,0.0,0.0,0.0,0.0,0.0,-2.6707,-2.8442,-2.9939,-3.0582,-3.2961,-3.4292,-3.3679,-3.537,-3.6791,-3.7419,-3.7464,-3.8063,-3.9373,-3.9448,-4.0068,-4.1407,-4.1452,-4.1452,-4.1482,-4.2111,-4.2425,-4.244,-4.303,-4.329,-4.329,-4.329,-4.329,-4.329,-4.329,-4.329,-4.3245,-4.2656,-4.2425,-4.2366,-4.1692,-4.1422,-4.1309,-4.0666,-4.0427,-4.0337,-3.9679,-3.902,-3.8452,-3.8422,-3.7988,-3.7464,-3.7464,-3.7464,-3.7464,-3.7464,-3.7464,-3.7464,-3.7464,-3.7464,-3.7464,-3.7449,-3.7434,-3.7434,-3.7404,-3.6941,-3.6507,-3.6492,-3.5968,-3.5534,-3.5504,-3.5504,-3.5504,-3.5504,-3.5504,0.0,-3.5504,-3.5504,-3.5504,-3.5504,-3.5504,-3.4981,-3.3634,-3.2916,-3.2213,-3.1511,-2.9699,-2.8906,-2.9547,-2.8226,-2.7411,-2.7232,-2.6202,-2.5012,-2.3702,0.0,0.0,0.0,0.0,0.0,0.0,0.0,0.0,0.0,0.0,0.0,0.0,0.0,0.0,0.0,0.0,0.0,0.0,0.0,0.0,0.0,0.0,-2.8921,-2.937,-3.115,-3.2841,-3.3993,-3.5205,-3.6043,-3.6312,-3.6836,-3.7629,-3.8745,-3.8871,-3.9454,-4.0771,-4.0846,-4.122,-4.2111,-4.2126,-4.2327,-4.2751,-4.297,-4.306,-4.306,-4.32,-4.329,-4.329,-4.329,-4.329,-4.329,-4.329,-4.329,-4.329,-4.3135,-4.306,-4.2955,-4.1818,-4.1422,-4.1392,-4.1175,-4.1115,-4.101,-4.0367,-4.0008,-3.9768,-3.929,-3.9005,-3.8871,-3.8871,-3.8871,-3.8871,-3.8871,-3.8871,-3.8871,-3.8871,-3.8871,-3.8736,-3.8242,-3.8123,-3.7988,-3.7509,-3.727,-3.703,-3.6567,-3.6342,-3.6073,-3.5594,-3.5504,-3.5504,-3.5504,-3.5504,0.0,-3.5504,-3.5504,-3.5504,-3.5504,-3.5504,-3.516,-3.4309,-3.3604,-3.2527,0.0,-2.9864,-2.9175,-2.8891,-2.8047,-2.7703,-2.7992,-2.7515,-2.6786,0.0,0.0,0.0,0.0,0.0,0.0,0.0,0.0,0.0,0.0,0.0,0.0,0.0,0.0,0.0,0.0,0.0,0.0,0.0,0.0,0.0,0.0,-2.9849,-3.1644,-3.2841,-3.3784,-3.4726,-3.5789,-3.6731,-3.7419,-3.7778,-3.8332,-3.899,-3.9768,-4.0083,-4.0696,-4.1767,-4.1826,-4.2126,-4.2746,-4.2776,-4.2955,-4.329,-4.3559,-4.3708,-4.3708,-4.4018,-4.4152,-4.4152,-4.4152,-4.4152,0.0,-4.4152,-4.4003,-4.3708,-4.3708,-4.3544,0.0,0.0,0.0,0.0,0.0,-4.1647,-4.1324,-4.0935,-4.0816,-4.0711,-4.0053,-3.9828,-3.9783,-3.9514,-3.9388,-3.9388,-3.9388,-3.9388,-3.9388,-3.9388,-3.9388,-3.932,-3.8916,-3.8826,-3.8721,-3.8332,-3.8018,-3.7719,-3.7345,0.0,0.0,-3.5983,-3.5684,-3.5504,-3.5504,-3.5504,-3.5504,-3.5504,-3.5504,-3.5504,-3.5504,-3.5504,-3.5235,-3.4563,-3.3873,0.0,0.0,0.0,-2.9549,-2.8637,-2.8404,0.0,0.0,0.0,0.0,0.0,0.0,0.0,0.0,-2.8147,-2.8163,0.0,0.0,0.0,0.0,0.0,0.0,0.0,0.0,0.0,0.0,0.0,0.0,0.0,0.0,0.0,0.0,-3.2856,-3.4397,-3.6312,-3.6148,-3.6043,-3.6626,-3.7704,-3.8452,-3.8601,-3.9694,-4.0457,-4.0606,-4.116,-4.1811,-4.247,0.0,0.0,0.0,0.0,-4.3439,-4.3514,-4.4137,-4.4421,-4.4436,-4.502,-4.5289,-4.5289,-4.5289,-4.5289,-4.5289,-4.5289,-4.496,-4.4421,-4.4347,-4.3888,-4.329,-4.329,-4.329,-4.323,-4.2686,-4.2141,0.0,0.0,0.0,0.0,-4.0726,-4.0502,-4.0382,-3.9723,-3.9493,-3.9514,-3.9403,-3.9388,-3.9388,-3.9388,-3.9388,-3.9388,-3.9388,-3.9388,-3.9388,-3.9388,-3.8931,-3.8482,-3.8407,-3.7419,-3.6567,-3.6492,-3.5938,-3.5504,-3.5504,-3.5504,-3.5504,-3.5504,-3.5504,-3.5504,-3.5504,0.0,0.0,-3.4668,-3.3978,-3.332,-3.2662,-3.1435,-3.0223,-2.9086,-2.9514,-2.9843,-3.0043,-3.1098,-3.2344,-3.369,-3.441,-3.5098,-3.5633,-3.1613,-3.0838,0.0,0.0,0.0,0.0,0.0,0.0,0.0,0.0,0.0,0.0,0.0,0.0,0.0,0.0,0.0,-3.2751,-3.4247,-3.5609,-3.703,-3.7584,-3.7883,-3.8003,-3.8242,-3.8811,-3.9903,-4.0247,-4.0846,-4.1946,-4.2141,-4.25,-4.3105,-4.315,0.0,-4.4107,-4.4122,-4.4377,-4.4915,-4.5035,-4.511,-4.511,0.0,0.0,-4.5289,-4.5289,-4.5289,-4.5289,-4.5289,-4.5229,-4.5065,-4.4526,-4.3888,-4.329,-4.329,-4.329,-4.329,-4.3155,-4.3021,-4.288,-4.2396,-4.2216,-4.2111,-4.1399,-4.119,-4.107,-4.0412,-4.0217,0.0,-3.9574,-3.9388,-3.9388,-3.9388,-3.9388,-3.9388,-3.9388,-3.9388,-3.9388,-3.9388,-3.932,-3.905,-3.8497,-3.7764,-3.7075,-3.6567,-3.5938,-3.5504,-3.5504,-3.5504,-3.5504,-3.5504,-3.5504,-3.5504,-3.5504,-3.5504,-3.5444,-3.5325,-3.4681,-3.4008,-3.335,-3.2572,-3.2018,-3.1764,-3.2331,-3.2681,-3.2665,-3.3509,-3.4084,-3.4347,-3.5696,-3.644,-3.6541,-3.503,-3.4895,0.0,0.0,0.0,0.0,0.0,0.0,0.0,0.0,0.0,0.0,0.0,-2.8098,-2.9744,0.0,-3.3036,-3.4726,-3.5818,-3.6791,-3.7764,-3.8182,-3.8392,-3.8392,-3.8691,-3.9305,-4.0307,-4.0696,-4.1332,-4.2321,-4.2671,-4.3135,-4.3753,-4.3783,-4.4122,-4.4781,-4.4811,-4.496,-4.5289,-4.5633,-4.5813,-4.5813,-4.6142,-4.6307,-4.6307,-4.6307,-4.6307,-4.6307,-4.6307,-4.6112,-4.5753,-4.508,-4.4421,-4.3783,-4.3783,-4.3589,-4.329,-4.329,-4.329,-4.3245,-4.2955,-4.2851,-4.2746,-4.2126,-4.1916,-4.1796,-4.1085,-4.0666,-4.0337,-4.0008,-3.9679,-3.9388,-3.9388,-3.9388,-3.9388,-3.9388,-3.9388,-3.9388,-3.9388,-3.9388,-3.932,-3.8975,-3.8362,-3.7704,-3.706,-3.6417,-3.5893,-3.5549,-3.5504,-3.5504,-3.5504,-3.5504,-3.5504,-3.5504,-3.5504,-3.5504,-3.5504,-3.4876,-3.4369,-3.4008,-3.3365,-3.3006,-3.3006,-3.332,-3.3832,-3.4525,-3.4565,-3.5069,-3.6147,-3.6551,-3.7134,-3.7828,-3.7444,-3.7483,0.0,0.0,0.0,0.0,0.0,0.0,0.0,0.0,-2.6309,-2.8334,-2.9711,-3.1061,-3.2781,-3.4068,-3.5327,-3.6641,-3.727,-3.7838,-3.8497,-3.8586,-3.8586,-3.8586,-3.908,-3.9723,-4.0516,-4.107,-4.1752,-4.253,-4.315,-4.3708,-4.4287,-4.4436,-4.4811,-4.5469,-4.5484,-4.5559,-4.5678,-4.6232,-4.6474,-4.6516,-4.7055,-4.7309,-4.7309,-4.7309,-4.7309,-4.7309,-4.7309,-4.6935,-4.6234,-4.5723,-4.511,-4.4496,-4.4362,-4.3947,-4.3469,-4.3349,-4.329,-4.329,-4.329,-4.329,-4.32,-4.2716,-4.259,-4.247,-4.1811,-4.1205,-4.0726,-4.0472,-4.0023,-3.9574,-3.9418,-3.9388,-3.9388,-3.9388,-3.9388,-3.9388,-3.9388,-3.9388,-3.9388,-3.9388,-3.8856,-3.8227,-3.7689,-3.7075,-3.6402,-3.5624,-3.5504,-3.5504,-3.5504,-3.5504,-3.5504,-3.5504,-3.5504,-3.5504,-3.5504,-3.4996,-3.4698,-3.4698,-3.4188,-3.3888,-3.3888,-3.3888,-3.444,-3.5651,-3.5161,-3.5843,-3.7801,-3.7332,-3.7817,-3.9139,-3.9139,-3.9146,-2.1729,-2.3131,-2.4455,-2.5644,-2.6033,-2.723,0.0,0.0,-3.0417,-3.2422,-3.344,-3.4219,-3.5011,-3.5774,-3.672,-3.7973,-3.8227,-3.8512,-3.9215,-3.9305,-3.9305,-3.9305,-3.9328,-3.9903,-4.1145,-4.1377,-4.1893,-4.3095,-4.3823,-4.4242,-4.4317,-4.487,-4.5499,-4.6187,-4.6217,-4.6486,-4.707,-4.716,-4.7189,-4.7189,-4.7264,-4.7309,-4.7309,-4.7309,-4.7309,-4.7309,-4.7309,-4.6935,-4.6264,-4.6204,-4.5798,-4.5125,-4.4541,-4.4272,-4.4137,-4.3514,-4.329,-4.329,-4.329,-4.329,-4.329,-4.32,-4.3185,-4.3105,-4.2485,-4.2246,-4.1931,-4.0726,-4.0352,-4.0157,-3.9574,-3.9388,-3.9388,-3.9388,-3.9388,-3.9388,-3.9388,-3.9388,-3.9388,-3.9388,-3.8856,-3.8362,-3.8287,-3.7749,-3.6896,-3.5684,-3.5504,-3.5504,-3.5504,-3.5504,-3.5504,-3.5504,-3.5504,-3.5504,-3.5504,-3.5429,-3.5385,-3.5385,-3.5325,-3.528,-3.528,-3.528,-3.5329,-3.5522,-3.6091,-3.6836,-3.7809,-3.8383,-3.91,-3.9969,-3.9969,-3.9969,-2.548,-2.6527,-2.7171,0.0,-2.919,-3.0447,-3.1974,-3.2302,-3.2587,-3.3814,-3.4607,-3.516,-3.5444,-3.6327,-3.7195,0.0,-3.8482,-3.9095,-3.9379,-3.9065,-3.8826,-3.8826,-3.8826,-3.9499,-4.1205,-4.1422,-4.1923,-4.3185,-4.3902,-4.4481,-4.487,-4.5529,-4.6202,-4.6875,-4.689,-4.7025,-4.7309,-4.7309,-4.7309,-4.7309,-4.7309,-4.7309,-4.7309,-4.7309,-4.7309,-4.7309,-4.7309,-4.7145,-4.689,-4.689,-4.6501,-4.5858,-4.5589,-4.5005,-4.4242,-4.3544,-4.329,-4.329,-4.329,-4.329,-4.329,-4.329,-4.329,-4.3245,-4.3015,-4.2671,-4.2291,-4.1737,-4.0995,-4.0337,-4.0053,-3.9709,-3.9388,-3.9388,-3.9388,-3.9388,-3.9388,-3.9388,-3.9388,-3.9388,-3.9185,-3.8856,-3.8467,-3.8167,-3.7674,-3.6746,-3.6312,-3.5938,-3.5549,-3.5504,-3.5504,-3.5504,-3.5504,-3.5504,-3.5504,-3.5504,-3.5504,-3.5504,-3.5504,-3.5504,-3.5504,-3.5504,-3.5701,-3.6134,-3.6446,-3.6768,-3.7084,-3.7424,-3.7729,-3.8072,-3.8525,-3.8995,-2.7325,-2.8338,0.0,-2.9859,-3.1353,-3.2657,-3.2602,-3.3365,-3.4188,-3.4666,-3.516,-3.5564,-3.5744,-3.6537,-3.727,-3.7629,-3.8497,-3.92,-3.9358,-3.8826,-3.8467,-3.8646,-3.8497,-3.911,-4.0935,-4.1265,-4.1848,-4.2985,-4.4003,-4.4796,-4.5274,-4.6112,-4.6815,-4.7294,-4.7309,-4.7309,-4.7309,-4.7309,-4.7309,-4.7309,-4.7309,-4.7309,-4.7309,-4.7309,-4.7309,-4.7309,-4.7309,-4.7309,-4.7309,-4.7309,-4.7025,-4.6576,-4.6354,-4.5603,-4.4511,-4.3798,-4.3454,-4.329,-4.329,-4.329,-4.329,-4.329,-4.329,-4.329,-4.329,-4.3,-4.262,-4.2455,-4.1707,-4.0861,-4.0502,-4.0053,-3.9649,-3.9433,-3.9388,-3.9388,-3.9388,-3.9388,-3.9388,-3.9388,-3.9388,-3.926,-3.8751,-3.8676,-3.8452,-3.7778,-3.715,-3.6507,-3.5863,-3.5609,-3.5504,-3.5504,-3.5504,-3.5504,-3.5504,-3.5504,-3.5504,-3.5504,-3.5504,-3.5504,-3.5504,-3.5504,-3.575,-3.6275,-3.6306,-3.6384,-3.6615,-3.6813,-3.7054,-3.7231,-3.8048,-3.8707,-2.5891,-2.7625,-3.0205,-3.0898,-3.208,-3.3481,-3.5026,-3.5415,-3.5444,-3.5474,-3.5489,-3.5699,-3.6342,-3.6492,-3.6911,-3.8167,-3.8392,-3.8661,-3.9334,-3.8826,-3.8631,-3.9305,-3.8796,-3.8916,0.0,-4.101,-4.1707,-4.2381,-4.4182,-4.5274,-4.5289,-4.6561,-4.7279,-4.7309,-4.7309,-4.7309,-4.7309,-4.7309,-4.7309,-4.7309,-4.7309,-4.7309,-4.7309,-4.7309,-4.7309,-4.7309,-4.7309,-4.7309,-4.7309,-4.7309,-4.7294,-4.7219,-4.6576,-4.5888,-4.5185,-4.4526,-4.3843,-4.329,-4.329,-4.329,-4.329,-4.329,-4.329,-4.329,-4.329,-4.329,-4.3125,-4.2575,-4.2366,-4.2051,-4.0726,-4.0382,-4.0217,-3.9574,-3.9388,-3.9388,-3.9388,-3.9388,-3.9388,-3.9388,-3.9388,-3.9373,-3.9358,-3.9394,-3.9155,-3.8467,-3.7808,-3.715,-3.6537,-3.5893,-3.5504,-3.5504,-3.5504,-3.5504,-3.5504,-3.5504,-3.5504,-3.5504,-3.5504,-3.5504,-3.5504,-3.5504,-3.5504,-3.5537,-3.5537,-3.5894,-3.6615,-3.7397,-3.8133,-3.8854,-3.9662,-4.0045,-2.7592,0.0,-3.1602,-3.2249,-3.3576,-3.4848,-3.5379,-3.5504,-3.5504,-3.5504,-3.5145,-3.5026,-3.5714,-3.5833,-3.6252,-3.7524,-3.8108,-3.8631,-3.9334,-3.923,-3.899,-3.8766,-3.8931,0.0,0.0,0.0,0.0,-4.2321,-4.3778,-4.4825,-4.5274,-4.6576,-4.7309,-4.7309,-4.7309,-4.7309,-4.7309,-4.7309,-4.7309,-4.7309,-4.7309,-4.7309,-4.7309,-4.7309,-4.7309,-4.7309,-4.7309,-4.7309,-4.7309,-4.7309,-4.7309,-4.7279,-4.7055,-4.6277,-4.5274,-4.505,-4.4272,-4.329,-4.329,-4.329,-4.329,-4.329,-4.329,-4.329,-4.329,-4.329,-4.3245,-4.306,-4.2701,-4.2186,-4.128,-4.0726,-4.0232,-3.9574,-3.9388,-3.9388,-3.9388,-3.9388,-3.9388,-3.9388,-3.9388,-3.9388,-3.9388,-3.9388,-3.9185,-3.8497,-3.7479,-3.6567,-3.5923,-3.5639,-3.5504,-3.5504,-3.5504,-3.5504,-3.5504,-3.5504,-3.5504,-3.5504,-3.5504,-3.5504,-3.5504,-3.5504,-3.5504,-3.5504,-3.5975,-3.6117,-3.5863,-3.6631,-3.6889,-3.6677,-3.7978,-3.8569,-2.8675,-3.0039,-3.1375,-3.2602,-3.3686,-3.4673,-3.5359,-3.5504,-3.5429,-3.519,-3.4607,-3.4262,-3.4711,-3.4592,-3.5011,-3.6791,-3.7614,-3.8437,-3.9604,-3.9768,-3.9694,-3.9484,-3.9649,-3.9694,0.0,0.0,0.0,-4.1991,-4.3658,-4.4855,-4.5274,-4.6576,-4.7309,-4.7309,-4.7309,-4.7309,-4.7309,-4.7309,-4.7309,-4.7309,-4.7309,-4.7309,-4.7309,-4.7309,-4.7309,-4.7309,-4.7309,-4.7309,-4.7309,-4.7309,-4.7309,-4.7309,-4.7309,-4.6636,-4.5633,-4.5394,-4.4601,-4.3604,-4.3379,-4.329,-4.329,-4.329,-4.329,-4.329,-4.329,-4.329,-4.329,-4.329,-4.303,-4.2551,-4.1946,-4.1452,-4.0876,-3.9978,-3.9768,-3.9709,-3.9433,-3.9388,-3.9388,-3.9388,-3.9388,-3.9388,-3.9388,-3.9388,-3.9185,-3.8497,-3.7689,-3.6851,-3.5968,-3.5654,-3.5504,-3.5504,-3.5504,-3.5504,-3.5504,-3.5504,-3.5504,-3.5504,-3.5504,-3.5504,-3.5504,-3.5504,-3.5504,-3.5504,-3.5975,-3.5975,-3.5504,-3.6259,-3.6368,-3.5926,-3.7469,-3.8189,-2.8934,-2.9258,-2.9879,-3.1998,-3.2593,-3.3136,-3.492,-3.5347,-3.5141,-3.447,-3.3768,-3.329,-3.326,0.0,-3.3305,-3.5908,-3.6941,-3.8108,-4.0113,-4.0427,-4.0681,0.0,0.0,0.0,0.0,0.0,0.0,-4.1534,0.0,-4.5274,-4.5349,-4.6591,-4.7309,-4.7309,-4.7309,-4.7309,-4.7309,-4.7309,-4.7309,-4.7309,-4.7309,-4.7309,-4.7309,-4.7309,-4.7309,-4.7309,-4.7309,-4.7309,-4.7309,-4.7309,-4.7309,-4.7309,-4.7309,-4.6905,-4.6204,-4.5544,-4.4885,-4.4212,-4.3529,-4.329,-4.329,-4.329,-4.329,-4.329,-4.329,-4.329,-4.329,-4.329,-4.329,-4.314,-4.2575,-4.2396,-4.2081,-4.0756,-4.0427,-4.0232,-3.9604,-3.9403,-3.9388,-3.9388,-3.9388,-3.9388,-3.9388,-3.9388,-3.92,-3.8542,-3.8407,-3.7928,-3.6656,-3.5938,-3.5549,-3.5504,-3.5504,-3.5504,-3.5504,-3.5504,-3.5504,-3.5504,-3.5504,-3.5504,-3.5504,-3.5504,-3.5504,-3.5504,-3.5504,-3.5504,-3.5504,-3.6196,-3.6554,-3.6584,-3.8072,-3.8799,-2.8349,-3.0013,-3.1689,-3.1602,-3.2593,-3.3602,-3.3394,-3.314,-3.2762,-3.2123,-3.1235,-3.0432,-2.9939,0.0,0.0,-3.3993,-3.6028,0.0,-4.0113,-4.0816,0.0,-4.1392,0.0,-4.1976,-4.2126,-4.2551,0.0,0.0,-4.4182,-4.5005,-4.6007,-4.6845,-4.7309,-4.7309,-4.7309,-4.7309,-4.7309,-4.7309,-4.7309,-4.7309,-4.7309,-4.7309,-4.7309,-4.7309,-4.7309,-4.7309,-4.7309,-4.7309,-4.7309,-4.7309,-4.7309,-4.7309,-4.7309,-4.6905,-4.6204,-4.5544,-4.4885,-4.4212,-4.3529,-4.329,-4.329,-4.329,-4.329,-4.329,-4.329,-4.329,-4.329,-4.329,-4.329,-4.314,-4.2575,-4.2396,-4.2186,-4.1324,-4.0756,-4.0352,-4.0187,-3.9768,-3.9388,-3.9388,-3.9388,-3.9388,-3.9388,-3.9388,-3.9328,-3.9185,-3.8721,-3.7928,-3.6656,-3.6342,-3.6043,-3.5549,-3.5504,-3.5504,-3.5504,-3.5504,-3.5504,-3.5504,-3.5504,-3.5504,-3.5504,-3.5504,-3.5504,-3.5504,-3.5504,-3.5504,-3.5504,-3.5701,-3.5782,-3.5814,-3.6737,-3.7188,-2.8736,-3.0067,-3.1328,-3.1217,-3.1997,-3.2646,-3.2078,-3.1805,-3.1202,-2.955,-2.8704,0.0,-2.7102,-2.8732,0.0,0.0,0.0,0.0,-4.0113,-4.1205,-4.1961,0.0,-4.2821,0.0,-4.3225,-4.3808,-4.4481,0.0,-4.52,-4.5487,-4.6249,-4.695,-4.7309,-4.7309,-4.7309,-4.7309,-4.7309,-4.7309,-4.7309,-4.7309,-4.7309,-4.7309,-4.7309,-4.7309,-4.7309,-4.7309,0.0,-4.7309,-4.7309,-4.7309,-4.7309,-4.7309,-4.7309,-4.7085,-4.6636,-4.5663,-4.5065,-4.4601,-4.3618,-4.329,-4.329,-4.329,-4.329,-4.329,-4.329,-4.329,-4.329,-4.329,-4.329,-4.32,-4.288,-4.2776,-4.2626,-4.2006,-4.1572,-4.11,-4.0531,-4.0113,-3.9768,-3.9448,-3.9388,-3.9388,-3.9388,-3.9388,-3.9388,-3.9388,-3.9095,-3.8467,-3.7449,-3.6836,-3.6342,-3.5968,-3.5684,-3.5504,-3.5504,-3.5504,-3.5504,-3.5504,-3.5504,-3.5504,-3.5504,-3.5504,-3.5504,-3.5504,-3.5504,-3.5504,-3.5504,-3.5504,-3.5504,-3.5537,-3.6244,-3.6615,-2.9528,-2.9895,-3.0139,-3.0833,-3.1053,-3.1025,-3.0662,-3.0432,-2.9537,-2.6773,0.0,-2.564,-2.4495,-2.6494,-2.8981,-3.0928,0.0,-3.7808,-4.0083,-4.1422,-4.2402,-4.32,-4.3873,-4.4347,-4.4436,-4.505,-4.5723,-4.6396,-4.6414,-4.6414,-4.6414,-4.6995,-4.7309,-4.7309,-4.7309,-4.7309,-4.7309,-4.7309,-4.7309,-4.7309,-4.7309,-4.7309,-4.7309,-4.7309,-4.7309,-4.7309,0.0,0.0,-4.7309,-4.7309,-4.7309,-4.7309,-4.7309,-4.7309,-4.7145,-4.5783,-4.5289,-4.511,-4.3753,-4.329,-4.329,-4.329,-4.329,-4.329,-4.329,-4.329,-4.329,-4.329,-4.329,-4.329,-4.329,-4.329,-4.3155,-4.2626,-4.247,-4.2066,-4.0786,-4.0382,-4.0113,-3.9493,-3.9388,-3.9388,-3.9388,-3.9388,-3.9388,-3.9388,-3.9388,-3.92,-3.8601,-3.7479,-3.6671,-3.6507,-3.5968,-3.5609,-3.5519,-3.5504,-3.5504,-3.5504,-3.5504,-3.5504,-3.5504,-3.5504,-3.5504,-3.5504,-3.5504,-3.5504,-3.5504,-3.5504,-3.5504,-3.5504,-3.618,-3.6446,-2.9741,-3.0381,-3.0796,-3.0216,-3.0297,-3.0105,-2.8355,-2.7032,0.0,0.0,-2.2937,-2.2476,-2.1729,-2.453,-2.759,-2.9594,0.0,0.0,0.0,0.0,-4.1384,0.0,0.0,0.0,0.0,0.0,0.0,0.0,0.0,0.0,-4.713,-4.7249,-4.7309,-4.7309,-4.7309,-4.7309,-4.7309,-4.7309,-4.7309,-4.7309,-4.7309,-4.7309,-4.7309,-4.7309,-4.7309,-4.7309,0.0,0.0,-4.7309,-4.7309,-4.7309,-4.7309,-4.7309,-4.7309,-4.7145,-4.5783,-4.5289,-4.511,-4.3753,-4.329,-4.329,-4.329,-4.329,-4.329,-4.329,-4.329,-4.329,-4.329,-4.329,-4.329,-4.329,-4.329,-4.326,-4.3155,-4.2746,-4.2186,-4.1422,-4.0352,-3.9559,-3.9403,-3.9388,-3.9388,-3.9388,-3.9388,-3.9388,-3.9388,-3.9388,-3.9379,-3.926,-3.8556,-3.7659,-3.6596,-3.6387,-3.6088,-3.5549,-3.5504,-3.5504,-3.5504,-3.5504,-3.5504,-3.5504,-3.5504,-3.5504,-3.5504,-3.5504,-3.5504,-3.5504,-3.5504,-3.5504,-3.5504,-3.5651,-3.5701,-2.9792,-3.0139,-3.0343,-2.9895,-2.9503,-2.8643,-2.6532,0.0,0.0,0.0,-2.0562,-2.0321,-1.9929,0.0,0.0,0.0,0.0,0.0,0.0,0.0,0.0,0.0,0.0,0.0,0.0,0.0,0.0,0.0,0.0,0.0,-4.7309,-4.7309,-4.7309,-4.7309,-4.7309,-4.7309,-4.7309,-4.7309,-4.7309,-4.7309,-4.7309,-4.7309,-4.7309,-4.7309,-4.7309,-4.7309,-4.7309,0.0,-4.7309,-4.7309,-4.7309,-4.7309,-4.7309,-4.71,-4.6681,-4.5663,-4.508,-4.4646,-4.3633,-4.329,-4.329,-4.329,-4.329,-4.329,-4.329,-4.329,-4.329,-4.329,-4.329,-4.329,-4.329,-4.329,-4.329,-4.329,-4.2581,-4.1796,-4.1444,-4.0352,-3.9388,-3.9388,-3.9388,-3.9388,-3.9388,-3.9388,-3.9388,-3.9388,-3.9388,-3.9388,-3.9388,-3.9125,-3.8556,-3.7584,-3.6881,-3.6357,-3.6043,-3.5699,-3.5504,-3.5504,-3.5504,-3.5504,-3.5504,-3.5504,-3.5504,-3.5504,-3.5504,-3.5504,-3.5504,-3.5504,-3.5504,-3.5504,-3.5504,-3.5684,-2.9754,-2.9792,-2.9792,-2.9792,-2.885,-2.7359,-2.5195,-2.3696,0.0,0.0,-1.872,-1.872,-1.875,0.0,-2.3708,0.0,0.0,0.0,0.0,0.0,0.0,0.0,0.0,0.0,0.0,0.0,0.0,0.0,0.0,0.0,0.0,-4.7309,-4.7309,-4.7309,-4.7309,-4.7309,-4.7309,-4.7309,-4.7309,-4.7309,-4.7309,-4.7309,-4.7309,-4.7309,-4.7309,-4.7309,-4.7309,0.0,0.0,-4.7309,-4.7309,-4.7294,-4.7145,-4.677,-4.6175,-4.5394,-4.4751,-4.4212,-4.3529,-4.329,-4.329,-4.329,-4.329,-4.329,-4.329,-4.329,-4.329,-4.329,-4.329,-4.329,-4.329,-4.329,-4.329,-4.329,-4.2342,-4.1422,-4.1422,-4.0352,-3.9388,-3.9388,-3.9388,-3.9388,-3.9388,-3.9388,-3.9388,-3.9388,-3.9388,-3.9388,-3.9388,-3.9388,-3.9215,-3.8661,-3.7584,-3.6791,-3.6507,-3.6013,-3.5654,-3.5519,-3.5504,-3.5504,-3.5504,-3.5504,-3.5504,-3.5504,-3.5504,-3.5504,-3.5504,-3.5504,-3.5504,-3.5504,-3.5654,-3.5998,-2.9641,-2.9792,-2.9792,-2.9792,-2.8561,-2.6801,-2.4602,0.0,0.0,-1.8025,-1.751,-1.7661,-1.8254,-1.9901,-2.2178,-2.5267,-2.7532,-3.0447,0.0,0.0,0.0,0.0,0.0,0.0,0.0,0.0,0.0,0.0,0.0,0.0,0.0,-4.7309,-4.7309,-4.7309,-4.7309,-4.7309,-4.7309,-4.7309,-4.7309,-4.7309,-4.7309,-4.7309,-4.7309,-4.7309,-4.7309,-4.7309,0.0,0.0,0.0,-4.7309,-4.7309,-4.7249,-4.6651,-4.6324,-4.613,-4.4885,-4.4362,-4.4212,-4.3529,-4.329,-4.329,-4.329,-4.329,-4.329,-4.329,-4.329,-4.329,-4.329,-4.329,-4.329,-4.329,-4.329,-4.329,-4.329,-4.2342,-4.1422,-4.1422,-4.0352,-3.9388,-3.9388,-3.9388,-3.9388,-3.9388,-3.9388,-3.9388,-3.9388,-3.9388,-3.9388,-3.9388,-3.9388,-3.9394,-3.9334,-3.8661,-3.7749,-3.6582,-3.6432,-3.6148,-3.5549,-3.5504,-3.5504,-3.5504,-3.5504,-3.5504,-3.5504,-3.5504,-3.5504,-3.5504,-3.5504,-3.5504,-3.5519,-3.6118,-3.6432,-2.9038,-2.9528,-2.9792,-2.9792,-2.8309,-2.6235,-2.3979,0.0,-1.9611,-1.7733,-1.7055,-1.7099,-1.8017,-1.9086,-2.0606,-2.3053,-2.4648,-2.7081,-3.1345,0.0,0.0,0.0,0.0,0.0,0.0,0.0,0.0,0.0,0.0,0.0,0.0,-4.7309,-4.7309,-4.7309,-4.7309,-4.7309,-4.7309,-4.7309,-4.7309,-4.7309,-4.7309,-4.7309,-4.7309,-4.7309,-4.7309,-4.7309,0.0,0.0,0.0,-4.7309,-4.707,-4.6696,-4.6384,-4.5828,-4.505,-4.4511,-4.4022,-4.3648,-4.3379,-4.329,-4.329,-4.329,-4.329,-4.329,-4.329,-4.329,-4.329,-4.329,-4.329,-4.329,-4.329,-4.329,-4.329,-4.329,-4.2342,-4.1422,-4.1422,-4.0352,-3.9388,-3.9388,-3.9388,-3.9388,-3.9388,-3.9388,-3.9388,-3.9388,-3.9388,-3.9388,-3.9388,-3.9388,-3.9388,-3.9388,-3.8796,-3.8182,-3.7674,-3.6926,-3.6372,-3.6118,-3.5729,-3.5504,-3.5504,-3.5504,-3.5504,-3.5504,-3.5504,-3.5504,-3.5504,-3.5504,-3.5714,-3.6103,-3.6372,-3.6896,-2.8097,-2.8976,-2.9503,-2.934,-2.7733,-2.5657,0.0,-2.1139,-1.9081,-1.7411,-1.6752,-1.6731,-1.7483,-1.8147,-1.9142,-2.0846,-2.2564,-2.5002,-2.8839,0.0,0.0,0.0,0.0,0.0,0.0,0.0,0.0,0.0,0.0,0.0,0.0,-4.7309,-4.7309,-4.7309,-4.7309,-4.7309,-4.7309,-4.7309,-4.7309,-4.7309,-4.7309,-4.7309,-4.7309,-4.7309,-4.7309,-4.7309,0.0,0.0,0.0,-4.701,-4.6621,-4.5992,-4.5813,-4.5155,-4.4287,-4.4092,-4.3693,-4.329,-4.329,-4.329,-4.329,-4.329,-4.329,-4.329,-4.329,-4.329,-4.329,-4.329,-4.329,-4.329,-4.329,-4.329,-4.329,-4.329,-4.2342,-4.1422,-4.1422,-4.0352,-3.9388,-3.9388,-3.9388,-3.9388,-3.9388,-3.9388,-3.9388,-3.9388,-3.9388,-3.9388,-3.9388,-3.9388,-3.9388,-3.9388,-3.899,-3.8616,-3.8407,-3.7569,-3.6971,-3.6776,-3.6327,-3.6073,-3.6073,-3.5893,-3.5878,-3.6073,-3.5893,-3.5878,-3.6073,-3.6073,-3.6312,-3.6761,-3.6956,-3.7644,-2.6854,-2.8097,-2.8762,-2.826,-2.6854,-2.5034,-2.2824,-2.0588,-1.8531,-1.6839,-1.65,-1.65,-1.6522,-1.6964,-1.7771,-1.9119,-2.1833,-2.4975,-2.8353,0.0,0.0,0.0,0.0,0.0,0.0,0.0,0.0,0.0,0.0,0.0,0.0,0.0,-4.7309,-4.7309,-4.7309,-4.7309,-4.7309,-4.7309,-4.7309,-4.7309,-4.7309,-4.7309,-4.7309,-4.7309,0.0,0.0,0.0,0.0,0.0,-4.6294,-4.5933,-4.5244,-4.4586,-4.4332,-4.4242,-4.3544,-4.3305,-4.329,-4.329,-4.329,-4.329,-4.329,-4.329,-4.329,-4.329,-4.329,-4.329,-4.329,-4.329,-4.329,-4.329,-4.329,-4.329,-4.329,-4.2342,-4.1422,-4.1422,-4.0352,-3.9388,-3.9388,-3.9388,-3.9388,-3.9388,-3.9388,-3.9388,-3.9388,-3.9388,-3.9388,-3.9388,-3.9388,-3.9388,-3.9388,-3.9373,-3.9125,-3.8452,-3.8377,-3.8093,-3.7434,-3.7389,-3.7389,-3.7389,-3.6806,-3.6761,-3.7375,-3.6791,-3.6776,-3.7389,-3.7389,-3.7389,-3.7419,-3.8063,-3.8736,-2.364,-2.4707,-2.5423,-2.4825,-2.4017,-2.2874,-2.1016,-1.976,-1.8519,-1.6839,-1.65,-1.65,-1.65,-1.693,-1.809,-2.0477,-2.1983,-2.4303,0.0,0.0,0.0,0.0,0.0,0.0,0.0,0.0,0.0,0.0,0.0,0.0,0.0,0.0,-4.6352,-4.7279,-4.7309,-4.7309,-4.7309,-4.7309,-4.7309,-4.7309,-4.7309,-4.7309,-4.7309,-4.7309,0.0,0.0,0.0,0.0,0.0,-4.5618,-4.5229,-4.4601,-4.4392,-4.4007,-4.3574,-4.3364,-4.329,-4.329,-4.329,-4.329,-4.329,-4.329,-4.329,-4.329,-4.329,-4.329,-4.329,-4.329,-4.329,-4.329,-4.329,-4.329,-4.329,-4.329,-4.2342,-4.1422,-4.1422,-4.0352,-3.9388,-3.9388,-3.9388,-3.9388,-3.9388,-3.9388,-3.9388,-3.9388,-3.9388,-3.9388,-3.9388,-3.9388,-3.9388,-3.9388,-3.9388,-3.9334,-3.911,-3.8661,-3.8302,-3.8093,-3.7659,-3.7404,-3.7404,-3.7225,-3.721,-3.7404,-3.721,-3.721,-3.7404,-3.7404,-3.7644,-3.8093,-3.8781,-3.9215,-2.1368,-2.251,-2.3226,-2.2648,-2.2096,-2.1305,-1.9823,-1.8945,-1.8053,-1.6751,-1.65,-1.65,-1.65,-1.6774,-1.7653,-1.9683,-2.105,-2.3248,0.0,0.0,0.0,0.0,0.0,0.0,0.0,0.0,0.0,0.0,0.0,0.0,0.0,0.0,-4.5678,-4.6516,-4.6546,-4.6546,-4.6546,-4.6546,-4.6546,-4.6546,-4.6546,-4.6546,-4.6546,0.0,0.0,0.0,0.0,0.0,0.0,-4.493,-4.4541,-4.3902,-4.3902,-4.3648,-4.329,-4.329,-4.329,-4.329,-4.329,-4.329,-4.329,-4.329,-4.329,-4.329,-4.329,-4.329,-4.329,-4.329,-4.329,-4.329,-4.329,-4.329,-4.329,-4.329,-4.2342,-4.1422,-4.1422,-4.0352,-3.9388,-3.9388,-3.9388,-3.9388,-3.9388,-3.9388,-3.9388,-3.9388,-3.9388,-3.9388,-3.9388,-3.9388,-3.9388,-3.9388,-3.9388,-3.9388,-3.9388,-3.9035,-3.8781,-3.8781,-3.8392,-3.8167,-3.8167,-3.7913,-3.7898,-3.8167,-3.7913,-3.7898,-3.8167,-3.8167,-3.8377,-3.8796,-3.9215,-3.9388,0.0,-2.1154,-2.1832,-2.128,-2.0805,-2.0176,-1.907,-1.8091,0.0,-1.6613,-1.65,-1.6538,-1.6651,-1.6613,-1.6861,-1.7737,-1.9757,0.0,0.0,0.0,0.0,0.0,0.0,0.0,0.0,0.0,0.0,0.0,0.0,0.0,0.0,0.0,0.0,-4.5155,-4.5155,-4.52,-4.5289,-4.5289,-4.5289,-4.5289,-4.5289,-4.5289,-4.5289,0.0,0.0,0.0,0.0,0.0,0.0,-4.4242,-4.3843,-4.329,-4.329,-4.329,-4.329,-4.329,-4.329,-4.329,-4.329,-4.329,-4.329,-4.329,-4.329,-4.329,-4.329,-4.329,-4.329,-4.329,-4.329,-4.329,-4.329,-4.329,-4.329,-4.3245,-4.2297,-4.1407,-4.1324,-4.0307,-3.9388,-3.9388,-3.9388,-3.9388,-3.9388,-3.9388,-3.9388,-3.9388,-3.9388,-3.9388,-3.9388,-3.9388,-3.9388,-3.9388,-3.9388,-3.9388,-3.9388,-3.9388,-3.9388,-3.9388,-3.9388,-3.9388,-3.9388,-3.8796,-3.8766,-3.9373,-3.8796,-3.8781,-3.9388,-3.9388,-3.9388,-3.9388,-3.9388,-3.9388,-1.735,0.0,-1.8405,-1.7827,-1.7915,-1.7989,0.0,-1.725,-1.7234,-1.6613,-1.65,-1.6889,-1.818,-1.7752,-1.8329,-2.187,-2.2938,0.0,0.0,0.0,0.0,0.0,0.0,0.0,0.0,0.0,0.0,0.0,0.0,0.0,0.0,0.0,0.0,-4.3753,-4.3753,-4.4272,-4.5289,-4.5289,-4.5289,-4.5289,-4.5289,-4.5289,-4.5289,0.0,0.0,0.0,0.0,0.0,-4.3529,-4.3529,-4.3424,-4.329,-4.329,-4.329,-4.329,-4.329,-4.329,-4.329,-4.329,-4.329,-4.329,-4.329,-4.329,-4.329,-4.329,-4.329,-4.329,-4.329,-4.329,-4.329,-4.329,-4.329,-4.317,-4.2701,-4.2006,-4.125,-4.0741,-3.9993,-3.9388,-3.9388,-3.9388,-3.9388,-3.9388,-3.9388,-3.9388,-3.9388,-3.9388,-3.9388,-3.9388,-3.9388,-3.9388,-3.9388,-3.9388,-3.9388,-3.9388,-3.9388,-3.9388,-3.9388,-3.9388,-3.9388,-3.9388,-3.926,-3.926,-3.9388,-3.926,-3.926,-3.9388,-3.9388,-3.9388,-3.9388,-3.9388,-3.9388,-1.6132,-1.6936,-1.7689,-1.7375,-1.7526,-1.7677,-1.734,-1.7137,-1.6898,-1.6563,-1.65,-1.6851,-1.8053,-1.8191,-1.9171,-2.2334,-2.3502,0.0,0.0,0.0,0.0,0.0,0.0,0.0,0.0,0.0,0.0,0.0,0.0,0.0,0.0,0.0,0.0,0.0,-4.329,-4.3633,-4.4392,-4.4392,-4.4392,-4.4392,-4.4392,-4.4392,-4.4392,-4.4392,0.0,0.0,0.0,0.0,-4.329,-4.329,-4.329,-4.329,-4.329,-4.329,-4.329,-4.329,-4.329,-4.329,-4.329,-4.329,-4.329,-4.329,-4.329,-4.329,-4.329,-4.329,-4.329,-4.329,-4.329,-4.329,-4.329,-4.329,-4.3125,-4.2545,-4.1901,-4.1205,-4.0546,-3.9888,-3.9388,-3.9388,-3.9388,-3.9388,-3.9388,-3.9388,-3.9388,-3.9388,-3.9388,-3.9388,-3.9388,-3.9388,-3.9388,-3.9388,-3.9388,-3.9388,-3.9388,-3.9388,-3.9388,-3.9388,-3.9388,-3.9388,-3.9388,-3.9388,-3.9388,-3.9388,-3.9388,-3.9388,-3.9388,-3.9388,-3.9388,-3.9388,-3.9388,-3.9388,-1.5881,-1.7124,-1.8267,-1.8003,-1.8141,-1.8292,-1.8116,-1.7378,-1.6751,0.0,0.0,-1.7024,-1.7876,-1.8781,0.0,0.0,0.0,0.0,0.0,0.0,0.0,0.0,0.0,0.0,0.0,0.0,0.0,0.0,0.0,0.0,0.0,0.0,0.0,0.0,-4.3036,-4.3115,-4.329,-4.329,-4.329,-4.329,-4.329,-4.329,-4.329,-4.329,0.0,0.0,0.0,0.0,-4.329,-4.329,-4.329,-4.329,-4.329,-4.329,-4.329,-4.329,-4.329,-4.329,-4.329,-4.329,-4.329,-4.329,-4.329,-4.329,-4.329,-4.329,-4.329,-4.329,-4.329,-4.329,-4.329,-4.329,-4.311,-4.2425,-4.1826,-4.1175,-4.0412,-3.9813,-3.9388,-3.9388,-3.9388,-3.9388,-3.9388,-3.9388,-3.9388,-3.9388,-3.9388,-3.9388,-3.9388,-3.9388,-3.9388,-3.9388,-3.9388,-3.9388,-3.9388,-3.9388,-3.9388,-3.9388,-3.9388,-3.9388,-3.9388,-3.9388,-3.9388,-3.9388,-3.9388,-3.9388,-3.9388,-3.9388,-3.9388,-3.9388,-3.9388,-3.9388,-1.6757,-1.799,-1.8544,-1.7114,-1.7829,-1.8632,-1.7714,-1.7739,-1.794,0.0,0.0,0.0,0.0,-2.1004,0.0,0.0,0.0,0.0,0.0,0.0,0.0,0.0,0.0,0.0,0.0,0.0,0.0,0.0,0.0,0.0,0.0,0.0,0.0,0.0,0.0,-4.233,-4.329,-4.329,-4.329,-4.329,-4.329,-4.329,-4.329,-4.329,-4.329,0.0,0.0,-4.329,-4.329,-4.329,-4.329,-4.329,-4.329,-4.329,-4.329,-4.329,-4.329,-4.329,-4.329,-4.329,-4.329,-4.329,-4.329,-4.329,-4.329,-4.329,-4.329,-4.329,-4.329,-4.329,-4.329,-4.329,-4.2991,-4.1818,-4.1444,-4.1055,-3.9828,-3.9448,-3.9388,-3.9388,-3.9388,-3.9388,-3.9388,-3.9388,-3.9388,-3.9388,-3.9388,-3.9388,-3.9388,-3.9388,-3.9388,-3.9388,-3.9388,-3.9388,-3.9388,-3.9388,-3.9388,-3.9388,-3.9388,-3.9388,-3.9388,-3.9388,-3.9388,-3.9388,-3.9388,-3.9388,-3.9388,-3.9388,-3.9388,-3.9388,-3.9388,-3.9388,-1.5751,-1.7084,-1.8028,-1.7551,-1.8907,-2.03,-2.01,-1.9786,-1.956,-1.956,0.0,0.0,0.0,0.0,0.0,0.0,0.0,0.0,0.0,0.0,0.0,0.0,0.0,0.0,0.0,0.0,0.0,0.0,0.0,0.0,0.0,0.0,0.0,0.0,0.0,-4.185,-4.2371,-4.2981,-4.329,-4.329,-4.329,-4.329,-4.329,-4.329,-4.329,-4.329,0.0,-4.329,-4.329,-4.329,-4.329,-4.329,-4.329,-4.329,-4.329,-4.329,-4.329,-4.329,-4.329,-4.329,-4.329,-4.329,-4.329,-4.329,-4.329,-4.329,-4.3215,-4.291,-4.306,-4.329,-4.329,-4.3075,-4.2566,-4.1647,-4.1115,-4.0591,-3.9634,-3.9388,-3.9388,-3.9388,-3.9388,-3.9388,-3.9388,-3.9388,-3.9388,-3.9388,-3.9388,-3.9388,-3.9388,-3.9388,-3.9388,-3.9388,-3.9388,-3.9388,-3.9388,-3.9388,-3.9388,-3.9388,-3.9388,-3.9388,-3.9388,-3.9388,-3.9388,-3.9388,-3.9388,-3.9388,-3.9388,-3.9388,-3.9388,-3.9388,-3.9388,-3.9388,-1.5243,-1.6317,-1.74,-1.8342,-1.9748,-2.1167,-2.2096,-2.1556,-2.1031,-2.1559,0.0,0.0,0.0,0.0,0.0,0.0,0.0,0.0,0.0,0.0,0.0,0.0,0.0,0.0,0.0,0.0,0.0,0.0,0.0,0.0,0.0,0.0,0.0,0.0,0.0,0.0,-4.1538,-4.2401,-4.2991,-4.329,-4.329,-4.329,-4.329,-4.329,-4.329,-4.329,-4.329,-4.329,-4.329,-4.329,-4.329,-4.329,-4.329,-4.329,-4.329,-4.329,-4.329,-4.329,-4.329,-4.329,-4.329,-4.329,-4.329,-4.326,-4.315,-4.3105,-4.297,-4.2351,-4.2491,-4.288,-4.288,-4.2506,-4.2006,-4.1347,-4.0771,-4.0217,-3.9523,-3.9388,-3.9388,-3.9388,-3.9388,-3.9388,-3.9388,-3.9388,-3.9388,-3.9388,-3.9388,-3.9388,-3.9388,-3.9388,-3.9388,-3.9388,-3.9388,-3.9388,-3.9388,-3.9388,-3.9388,-3.9388,-3.9388,-3.9388,-3.9388,-3.9388,-3.9388,-3.9388,-3.9388,-3.9388,-3.9388,-3.9388,-3.9388,-3.9388,-3.9388,-3.9388,-1.6644,-1.6898,-1.7064,-1.9171,-1.9447,-1.9722,-2.1804,-2.1857,-2.2008,-2.4061,0.0,0.0,0.0,0.0,0.0,0.0,0.0,0.0,0.0,0.0,0.0,0.0,0.0,0.0,0.0,0.0,0.0,0.0,0.0,0.0,0.0,0.0,0.0,0.0,0.0,0.0,-4.139,-4.1519,-4.2132,-4.329,-4.329,-4.329,-4.329,-4.329,-4.329,-4.329,-4.329,-4.329,-4.329,-4.329,-4.329,-4.329,-4.329,-4.329,-4.329,-4.329,-4.329,-4.329,-4.329,-4.329,-4.329,-4.329,-4.329,-4.3185,-4.265,-4.247,-4.2336,-4.1677,-4.1489,-4.1519,-4.1519,-4.1489,-4.128,-4.0621,-4.0442,-4.0217,-3.9523,-3.9388,-3.9388,-3.9388,-3.9388,-3.9388,-3.9388,-3.9388,-3.9388,-3.9388,-3.9388,-3.9388,-3.9388,-3.9388,-3.9388,-3.9388,-3.9388,-3.9388,-3.9388,-3.9388,-3.9388,-3.9388,-3.9388,-3.9388,-3.9388,-3.9388,-3.9388,-3.9388,-3.9388,-3.9388,-3.9388,-3.9388,-3.9388,-3.9388,-3.9388,-3.9388,-1.5424,-1.6443,-1.7501,-1.9346,-2.0188,-2.1054,-2.2937,-2.3715,-2.4481,-2.6038,-2.6628,0.0,0.0,0.0,0.0,0.0,0.0,0.0,0.0,0.0,0.0,0.0,0.0,0.0,0.0,0.0,0.0,0.0,0.0,0.0,0.0,0.0,0.0,0.0,0.0,0.0,0.0,-4.1035,-4.1624,-4.2117,-4.2117,-4.2117,-4.2117,-4.2117,-4.2117,-4.2117,-4.2117,-4.2117,-4.2117,-4.2117,-4.2117,-4.2162,-4.2566,-4.2731,-4.2776,-4.314,-4.329,-4.3245,-4.2865,-4.2731,-4.2656,-4.2252,-4.2117,-4.2073,-4.1871,-4.1796,-4.1647,-4.095,-4.0771,-4.0861,-4.1265,-4.107,-4.0711,-4.0457,-4.0083,-3.9723,-3.9433,-3.9388,-3.9388,-3.9388,-3.9388,-3.9388,-3.9388,-3.9388,-3.9388,-3.9388,-3.9388,-3.9388,-3.9388,-3.9388,-3.9388,-3.9388,-3.9388,-3.9388,-3.9388,-3.9388,-3.9388,-3.9388,-3.9388,-3.9388,-3.9388,-3.9388,-3.9388,-3.9388,-3.9388,-3.9388,-3.9388,-3.9388,-3.9388,-3.9388,-3.9388,-3.9388,-1.5141,-1.6233,-1.7539,-1.9346,-2.0652,-2.202,-2.4042,-2.5071,-2.6063,-2.7733,-2.8097,-2.8335,-2.9063,0.0,0.0,0.0,0.0,0.0,0.0,0.0,0.0,0.0,0.0,0.0,0.0,0.0,0.0,0.0,0.0,0.0,0.0,0.0,0.0,0.0,0.0,0.0,0.0,-3.9682,-4.0094,-3.9759,-4.0426,-4.098,-4.1422,-4.1422,-4.1422,-4.1422,-4.1422,-4.1422,-4.1422,-4.1422,-4.1422,-4.1467,-4.1916,-4.2096,-4.2141,-4.2551,-4.2716,-4.2656,-4.2246,-4.2096,-4.2021,-4.1572,-4.1422,-4.1339,-4.113,-4.107,-4.0935,-4.0277,-4.0083,-4.0187,-4.0651,-4.0427,-4.0083,-4.0083,-3.9753,-3.9388,-3.9388,-3.9388,-3.9388,-3.9388,-3.9388,-3.9388,-3.9388,-3.9388,-3.9388,-3.9388,-3.9388,-3.9388,-3.9388,-3.9388,-3.9388,-3.9388,-3.9388,-3.9388,-3.9388,-3.9388,-3.9388,-3.9388,-3.9388,-3.9388,-3.9388,-3.9388,-3.9388,-3.9388,-3.9388,-3.9388,-3.9388,-3.9388,-3.9388,-3.9388,-3.9388,-3.9388,-1.6337,-1.65,-1.7052,-1.9258,-2.0677,-2.2246,-2.4983,-2.5611,-2.6414,-2.9214,-2.89,-2.8461,-2.9591,0.0,0.0,0.0,0.0,0.0,0.0,0.0,0.0,0.0,0.0,0.0,0.0,0.0,0.0,0.0,0.0,0.0,0.0,0.0,0.0,0.0,0.0,0.0,-3.6198,-3.7252,-3.7252,-3.6251,-3.8368,-4.0061,-4.1369,-4.1369,-4.1392,-4.1392,-4.1392,-4.1392,-4.1392,-4.1392,-4.1392,-4.1369,-4.1407,-4.1407,-4.1407,-4.1422,-4.1422,-4.1422,-4.1407,-4.1407,-4.1407,-4.1369,-4.1392,-4.125,-4.0591,-4.0382,-4.0247,-3.9604,-3.9388,-3.9388,-3.9388,-3.9388,-3.9388,-3.9388,-3.9388,-3.9388,-3.9388,-3.9388,-3.9388,-3.9388,-3.9388,-3.9388,-3.9388,-3.9388,-3.9388,-3.9388,-3.9388,-3.9388,-3.9388,-3.9388,-3.9388,-3.9388,-3.9388,-3.9388,-3.9388,-3.9388,-3.9388,-3.9388,-3.9388,-3.9388,-3.9388,-3.9388,-3.9388,-3.9388,-3.9388,-3.9388,-3.9388,-3.9388,-3.9388,-3.9388,-3.9388,-3.9388,-1.5336,-1.7049,0.0,-2.0163,0.0,0.0,0.0,-2.708,0.0,0.0,-2.9528,-2.9402,-2.9729,0.0,0.0,0.0,0.0,0.0,0.0,0.0,0.0,0.0,0.0,0.0,0.0,0.0,0.0,0.0,0.0,0.0,0.0,0.0,0.0,0.0,0.0,0.0,-3.6198,-3.6526,-3.6526,-3.6198,-3.6852,-3.7758,-3.8914,-3.9647,-3.9993,-3.9993,-3.9993,-3.9993,-3.9993,-3.9993,-3.9993,-4.0053,-4.0502,-4.0696,-4.0741,-4.1205,-4.1422,-4.1309,-4.0846,-4.0696,-4.0621,-4.0157,-3.9993,-3.9963,-3.9768,-3.9709,-3.9664,-3.9469,-3.9388,-3.9388,-3.9388,-3.9388,-3.9388,-3.9388,-3.9388,-3.9388,-3.9388,-3.9388,-3.9388,-3.9388,-3.9388,-3.9388,-3.9388,-3.9388,-3.9388,-3.9388,-3.9388,-3.9388,-3.9388,-3.9388,-3.9388,-3.9388,-3.9388,-3.9388,-3.9388,-3.9388,-3.9388,-3.9388,-3.9388,-3.9388,-3.9388,-3.9388,-3.9388,-3.9388,-3.9388,-3.9388,-3.9388,-3.9388,-3.9388,-3.9388,-3.9388,-3.9388,-1.5977,-1.7965,0.0,-2.1659,-2.4098,-2.6537,-2.7946,0.0,0.0,0.0,0.0,0.0,0.0,0.0,0.0,0.0,0.0,0.0,0.0,0.0,0.0,0.0,0.0,0.0,0.0,0.0,0.0,0.0,0.0,0.0,0.0,0.0,0.0,0.0,0.0,0.0,-3.4593,-3.5265,-3.5588,-3.5628,-3.6462,-3.7175,-3.7829,-3.8472,-3.8745,-3.8782,-3.9228,-3.9388,-3.9388,-3.9388,-3.9388,-3.9454,-3.9858,-4.0008,-4.0053,-4.0457,-4.0606,-4.0546,-4.0142,-4.0008,-3.9948,-3.9508,-3.9388,-3.9388,-3.9388,-3.9388,-3.9388,-3.9388,-3.9388,-3.9388,-3.9388,-3.9388,-3.9388,-3.9388,-3.9388,-3.9388,-3.9388,-3.9388,-3.9388,-3.9388,-3.9388,-3.9388,-3.9388,-3.9388,-3.9388,-3.9388,-3.9388,-3.9388,-3.9388,-3.9388,-3.9388,-3.9388,-3.9388,-3.9388,-3.9388,-3.9388,-3.9388,-3.9388,-3.9388,-3.9388,-3.9388,-3.9388,-3.9388,-3.9388,-3.9388,-3.9388,-3.9388,-3.9388,-3.9388,-3.9388,-3.9388,-3.9388,-1.7476,-1.8945,-2.0526,-2.3238,-2.4883,0.0,-2.9189,-2.9792,-2.9792,-2.9792,0.0,0.0,0.0,0.0,0.0,0.0,0.0,0.0,0.0,0.0,0.0,0.0,0.0,0.0,0.0,0.0,0.0,0.0,0.0,0.0,0.0,0.0,0.0,0.0,0.0,0.0,-3.2139,-3.3651,-3.4382,0.0,-3.6323,-3.7225,-3.7225,-3.7733,-3.7956,-3.7994,-3.898,-3.9388,-3.9388,-3.9388,-3.9388,-3.9388,-3.9388,-3.9388,-3.9388,-3.9388,-3.9388,-3.9388,-3.9388,-3.9388,-3.9388,-3.9388,-3.9388,-3.9388,-3.9388,-3.9388,-3.9388,-3.9388,-3.9388,-3.9388,-3.9388,-3.9388,-3.9388,-3.9388,-3.9388,-3.9388,-3.9388,-3.9388,-3.9388,-3.9388,-3.9388,-3.9388,-3.9388,-3.9388,-3.9388,-3.9388,-3.9388,-3.9388,-3.9388,-3.9388,-3.9388,-3.9388,-3.9388,-3.9388,-3.9388,-3.9388,-3.9388,-3.9388,-3.9388,-3.9388,-3.9388,-3.9388,-3.9388,-3.9388,-3.9388,-3.9388,-3.9388,-3.9388,-3.9388,-3.9388,-3.9388,-3.9388,-1.6522,-1.8643,0.0,0.0,-2.546,-2.7959,-2.9453,-2.9792,-2.9792,0.0,0.0,0.0,0.0,0.0,0.0,0.0,0.0,0.0,0.0,0.0,0.0,0.0,0.0,0.0,0.0,0.0,0.0,0.0,0.0,0.0,0.0,0.0,0.0,0.0,0.0,-3.1574,-3.1574,-3.1921,-3.2095,0.0,-3.2557,-3.2786,-3.2932,-3.7143,-3.9068,-3.9068,-3.9301,-3.9388,-3.9388,-3.9388,-3.9388,-3.9388,-3.9388,-3.9388,-3.9388,-3.9388,-3.9388,-3.9388,-3.9388,-3.9388,-3.9388,-3.9388,-3.9388,-3.9388,-3.9388,-3.9388,-3.9388,-3.9388,-3.9388,-3.9388,-3.9388,-3.9388,-3.9388,-3.9388,-3.9388,-3.9388,-3.9388,-3.9388,-3.9388,-3.9388,-3.9388,-3.9388,-3.9388,-3.9388,-3.9388,-3.9388,-3.9388,-3.9388,-3.9388,-3.9388,-3.9388,-3.9388,-3.9388,-3.9388,-3.9388,-3.9388,-3.9388,-3.9388,-3.9388,-3.9388,-3.9388,-3.9388,-3.9388,-3.9388,-3.9388,-3.9388,-3.9388,-3.9388,-3.9388,-3.9388,-3.9388,-3.9388,-1.6735,-1.8957,0.0,-2.4042,0.0,-2.8335,-2.9189,-2.9591,0.0,0.0,0.0,0.0,0.0,0.0,0.0,0.0,0.0,0.0,0.0,0.0,0.0,0.0,0.0,0.0,0.0,0.0,0.0,0.0,0.0,0.0,0.0,0.0,0.0,0.0,-3.0884,-3.1022,-3.1022,-3.1273,-3.1658,-3.2169,-3.2169,-3.2435,-3.3013,-3.5761,-3.7288,-3.7817,-3.8588,-3.8931,-3.896,-3.929,-3.9388,-3.9388,-3.9388,-3.9388,-3.9388,-3.9388,-3.9388,-3.9388,-3.9388,-3.9388,-3.9388,-3.9388,-3.9388,-3.9388,-3.9388,-3.9388,-3.9388,-3.9388,-3.9388,-3.9388,-3.9388,-3.9388,-3.9388,-3.9388,-3.9388,-3.9388,-3.9388,-3.9388,-3.9388,-3.9388,-3.9388,-3.9388,-3.9388,-3.9388,-3.9388,-3.9388,-3.9388,-3.9388,-3.9388,-3.9388,-3.9388,-3.9388,-3.9388,-3.9388,-3.9388,-3.9388,-3.9388,-3.9388,-3.9388,-3.9388,-3.9388,-3.9388,-3.9388,-3.9388,-3.9388,-3.9388,-3.9388,-3.9388,-3.9388,-3.9388,-3.9388,-3.9388,-1.6685,-1.907,-2.1597,-2.5393,-2.7067,0.0,-2.8599,-2.9239,0.0,0.0,0.0,0.0,0.0,0.0,0.0,0.0,0.0,0.0,0.0,0.0,0.0,0.0,0.0,0.0,0.0,0.0,0.0,0.0,0.0,0.0,0.0,0.0,-2.9792,-2.9792,-3.0231,-3.047,-3.047,-3.0896,-3.158,-3.2463,-3.2463,-3.2979,-3.4014,-3.3888,-3.4543,-3.582,-3.7331,-3.7987,-3.8031,-3.8755,-3.9029,-3.9029,-3.9029,-3.914,-3.9245,-3.9245,-3.932,-3.9388,-3.9388,-3.9388,-3.9388,-3.9388,-3.9388,-3.9388,-3.9388,-3.9388,-3.9388,-3.9388,-3.9388,-3.9388,-3.9388,-3.9388,-3.9388,-3.9388,-3.9388,-3.9388,-3.9388,-3.9388,-3.9388,-3.9388,-3.9388,-3.9388,-3.9388,-3.9388,-3.9388,-3.9388,-3.9388,-3.9388,-3.9388,-3.9388,-3.9388,-3.9388,-3.9388,-3.9388,-3.9388,-3.9388,-3.9388,-3.9388,-3.9388,-3.9388,-3.9388,-3.9388,-3.9388,-3.9388,-3.9388,-3.9388,-3.9388,-3.9388,-3.9388,-3.9388,-3.9388,-3.9388,-1.4261,0.0,-2.1509,0.0,-2.6235,-2.6989,0.0,0.0,0.0,0.0,0.0,0.0,0.0,0.0,0.0,0.0,0.0,0.0,0.0,0.0,0.0,0.0,0.0,0.0,0.0,0.0,0.0,0.0,0.0,0.0,0.0,-2.9792,-2.9792,-2.9792,-2.9867,-2.9905,-2.9905,-2.9967,-3.0083,-3.0226,-3.0226,-3.0714,-3.1665,-3.1628,-3.2773,-3.4855,-3.5892,-3.633,-3.638,-3.7302,-3.7674,-3.7674,-3.7674,-3.8018,-3.8527,-3.8527,-3.8901,-3.9388,-3.9388,-3.9388,-3.9388,-3.9388,-3.9388,-3.9388,-3.9388,-3.9388,-3.9388,-3.9388,-3.9388,-3.9388,-3.9388,-3.9388,-3.9388,-3.9388,-3.9388,-3.9388,-3.9388,-3.9388,-3.9388,-3.9388,-3.9388,-3.9388,-3.9388,-3.9388,-3.9388,-3.9388,-3.9388,-3.9388,-3.9388,-3.9388,-3.9388,-3.9388,-3.9388,-3.9388,-3.9388,-3.9388,-3.9388,-3.9388,-3.9388,-3.9388,-3.9388,-3.9388,-3.9388,-3.9388,-3.9388,-3.9388,-3.9388,-3.9388,-3.9388,-3.9388,-3.9388,-3.9388,-1.5211,-1.8026,-2.0828,0.0,-2.5109,-2.6223,-2.704,0.0,0.0,0.0,0.0,0.0,0.0,0.0,0.0,0.0,0.0,0.0,0.0,0.0,0.0,0.0,0.0,0.0,0.0,0.0,0.0,0.0,0.0,0.0,-2.9792,-2.9792,-2.9792,-2.9792,-2.9792,0.0,-2.9792,-2.9792,-2.9792,-2.9792,-2.9792,-2.9998,-3.0419,-3.0419,-3.1545,-3.3508,-3.4301,-3.4673,-3.4773,-3.6054,-3.6617,-3.6652,-3.7183,-3.7584,-3.7838,-3.7838,-3.8033,-3.8347,-3.8721,-3.8841,-3.8901,-3.929,-3.9388,-3.9388,-3.9388,-3.9388,-3.9388,-3.9388,-3.9388,-3.9388,-3.9388,-3.9388,-3.9388,-3.9388,-3.9388,-3.9388,-3.9388,-3.9388,-3.9388,-3.9388,-3.9388,-3.9388,-3.9388,-3.9388,-3.9388,-3.9388,-3.9388,-3.9388,-3.9388,-3.9388,-3.9388,-3.9388,-3.9388,-3.9388,-3.9388,-3.9388,-3.9388,-3.9388,-3.9388,-3.9388,-3.9388,-3.9388,-3.9388,-3.9388,-3.9388,-3.9388,-3.9388,-3.9388,-3.9388,-3.9388,-3.9388,-3.9388,0.0,0.0,-1.9145,-2.1628,-2.354,-2.4983,0.0,0.0,0.0,0.0,0.0,0.0,0.0,0.0,0.0,0.0,0.0,0.0,0.0,0.0,0.0,0.0,0.0,0.0,0.0,0.0,0.0,0.0,0.0,0.0,-2.9792,-2.9792,-2.9792,-2.9792,-2.9792,-2.9792,-2.9792,-2.9792,-2.9792,-2.9792,-2.9792,-2.9934,-3.0139,-2.9895,-3.0709,-3.2263,-3.2787,-3.3124,-3.3456,-3.4639,-3.5282,-3.5544,-3.5979,-3.627,-3.6452,-3.6452,-3.652,-3.6775,-3.7246,-3.7422,-3.7575,-3.8485,-3.8779,-3.8882,-3.9292,-3.9388,-3.9388,-3.9388,-3.9388,-3.9388,-3.9388,-3.9388,-3.9388,-3.9388,-3.9388,-3.9388,-3.9388,-3.9388,-3.9388,-3.9388,-3.9388,-3.9388,-3.9388,-3.9388,-3.9388,-3.9388,-3.9388,-3.9388,-3.9388,-3.9388,-3.9388,-3.9388,-3.9388,-3.9388,-3.9388,-3.9388,-3.9388,-3.9388,-3.9388,-3.9388,-3.9388,-3.9388,-3.9388,-3.9388,-3.9388,-3.9388,-3.9388,-3.9388,-3.9388,-3.9388,-3.9388,-3.9388,0.0,-1.4702,0.0,-1.9158,-2.1242,0.0,0.0,0.0,0.0,0.0,0.0,0.0,0.0,0.0,0.0,0.0,0.0,0.0,0.0,0.0,0.0,0.0,0.0,0.0,0.0,0.0,0.0,0.0,0.0,0.0,-2.9792,-2.9792,-2.9792,-2.9792,-2.9792,-2.9792,-2.9792,-2.9792,-2.9792,-2.9792,-2.9792,-3.0279,-3.1106,-3.0216,-3.0343,-3.1278,-3.1318,-3.1819,-3.2648,-3.2747,-3.3304,-3.4011,-3.3199,-3.3229,-3.3801,-3.3801,-3.4191,-3.4757,-3.4785,-3.4799,-3.5046,-3.6624,-3.7134,-3.7412,-3.8962,-3.9388,-3.9388,-3.9388,-3.9388,-3.9388,-3.9388,-3.9388,-3.9388,-3.9388,-3.9388,-3.9388,-3.9388,-3.9388,-3.9388,-3.9388,-3.9388,-3.9388,-3.9388,-3.9388,-3.9388,-3.9388,-3.9388,-3.9388,-3.9388,-3.9388,-3.9388,-3.9388,-3.9388,-3.9388,-3.9388,-3.9388,-3.9388,-3.9388,-3.9388,-3.9388,-3.9388,-3.9388,-3.9388,-3.9388,-3.9388,-3.9388,-3.9388,-3.9388,-3.9388,-3.9388,-3.9388,-3.9388,0.0,0.0,0.0,-1.7712,-1.9484,0.0,0.0,0.0,0.0,0.0,0.0,0.0,0.0,0.0,0.0,0.0,0.0,0.0,0.0,0.0,0.0,0.0,0.0,0.0,0.0,0.0,0.0,0.0,0.0,0.0,-2.9792,-2.9792,-2.9792,-2.9792,-2.9792,-2.9792,-2.9792,-2.9792,-2.9792,-2.9792,-2.9792,-2.9972,-3.0279,-2.9934,-2.996,-3.0317,-3.0317,-3.0495,-3.0846,-3.1462,-3.1888,-3.2249,-3.25,-3.2731,-3.296,-3.296,-3.3493,-3.4271,-3.4704,-3.5302,-3.5974,-3.6934,-3.7246,-3.736,-3.7943,-3.8422,-3.8751,-3.8751,-3.908,-3.9388,-3.9388,-3.9388,-3.9388,-3.9388,-3.9388,-3.9388,-3.9388,-3.9388,-3.9388,-3.9388,-3.9388,-3.9388,-3.9388,-3.9388,-3.9388,-3.9388,-3.9388,-3.9388,-3.9388,-3.9388,-3.9388,-3.9388,-3.9388,-3.9388,-3.9388,-3.9388,-3.9388,-3.9388,-3.9388,-3.9388,-3.9388,-3.9388,-3.9388,-3.9388,-3.9388,-3.9388,-3.9388,-3.9388,-3.9388,-3.9388,-3.9388,-3.9388,-1.1736,0.0,0.0,0.0,0.0,0.0,0.0,0.0,0.0,0.0,0.0,0.0,0.0,0.0,0.0,0.0,0.0,0.0,0.0,0.0,0.0,0.0,0.0,0.0,0.0,0.0,0.0,0.0,0.0,0.0,-2.9792,-2.9792,-2.9792,-2.9792,-2.9792,-2.9792,-2.9792,-2.9792,-2.9792,-2.9792,-2.9792,-2.9792,-2.9792,-2.9792,-2.9792,-2.9792,-2.9792,-2.9972,-3.0279,-3.0582,-3.0932,-3.1217,-3.1549,-3.1659,-3.1659,-3.1659,-3.2046,-3.264,-3.3113,-3.3696,-3.4405,-3.5339,-3.5632,-3.5832,-3.6663,-3.7257,-3.7682,-3.7978,-3.8392,-3.8751,-3.8751,-3.8916,-3.9125,-3.9364,-3.9388,-3.9388,-3.9388,-3.9388,-3.9388,-3.9388,-3.9388,-3.9388,-3.9388,-3.9388,-3.9388,-3.9388,-3.9388,-3.9388,-3.9388,-3.9388,-3.9388,-3.9388,-3.9388,-3.9388,-3.9388,-3.9388,-3.9388,-3.9388,-3.9388,-3.9388,-3.9388,-3.9388,-3.9388,-3.9388,-3.9388,-3.9388,-3.9388,-3.9388,-3.9388,-3.9388,-3.9388,-3.9388,0.0,0.0,0.0,0.0,0.0,0.0,0.0,0.0,0.0,0.0,0.0,0.0,0.0,0.0,0.0,0.0,0.0,0.0,0.0,0.0,0.0,0.0,0.0,0.0,0.0,0.0,0.0,0.0,0.0,-2.9741,-2.9741,-2.9741,-2.9754,-2.9767,-2.9767,-2.9779,-2.9792,-2.9792,-2.9792,-2.9792,-2.9792,-2.9792,-2.9792,-2.9792,-2.9792,-2.9792,-2.9792,-3.0317,-3.1068,-3.0177,-3.0343,-3.1068,-3.0139,-2.9792,-2.9792,-2.9792,-2.983,-2.983,-2.983,-2.9869,-3.0125,-3.1689,-3.2203,-3.2675,-3.5151,-3.5892,-3.6099,-3.7035,-3.7321,-3.7302,-3.7302,-3.7799,-3.8456,-3.9092,-3.9256,-3.9292,-3.9277,-3.9277,-3.9328,-3.9373,-3.9388,-3.9388,-3.9388,-3.9388,-3.9388,-3.9388,-3.9388,-3.9388,-3.9388,-3.9388,-3.9388,-3.9388,-3.9388,-3.9388,-3.9388,-3.9388,-3.9388,-3.9388,-3.9388,-3.9388,-3.9388,-3.9388,-3.9388,-3.9388,-3.9388,-3.9388,-3.9388,-3.9388,-3.9388,-3.9388,-3.9388,-3.9388,-1.1563,0.0,0.0,0.0,0.0,0.0,0.0,0.0,0.0,0.0,0.0,0.0,0.0,0.0,0.0,0.0,0.0,0.0,0.0,0.0,0.0,0.0,0.0,0.0,0.0,0.0,0.0,0.0,-2.8574,-2.8574,-2.8574,-2.8574,-2.8762,-2.9151,-2.9126,-2.9365,-2.9792,-2.9792,-2.9792,-2.9792,-2.9792,-2.9792,-2.9792,-2.9792,-2.9792,-2.9792,-2.9792,-2.9934,-3.0177,-2.9895,-2.9934,-3.0177,-2.9895,-2.9792,-2.9792,-2.9792,-3.0241,-3.0796,-3.0796,-3.1267,-3.1892,-3.2345,-3.2509,-3.2609,-3.3336,-3.3878,-3.4301,-3.4589,-3.5016,-3.537,-3.537,-3.5498,-3.5719,-3.5889,-3.5946,-3.6117,-3.6787,-3.6931,-3.7453,-3.9071,-3.9388,-3.9388,-3.9388,-3.9388,-3.9388,-3.9388,-3.9388,-3.9388,-3.9388,-3.9388,-3.9388,-3.9388,-3.9388,-3.9388,-3.9388,-3.9388,-3.9388,-3.9388,-3.9388,-3.9388,-3.9388,-3.9388,-3.9388,-3.9388,-3.9388,-3.9388,-3.9388,-3.9388,-3.9388,-3.9388,-3.9388,-3.9388,-1.2517,-1.3162,0.0,0.0,0.0,0.0,0.0,0.0,0.0,0.0,0.0,0.0,0.0,0.0,0.0,0.0,0.0,0.0,0.0,0.0,0.0,0.0,0.0,0.0,0.0,0.0,0.0,0.0,-2.8109,-2.8109,-2.8109,-2.8109,-2.8247,-2.8574,-2.8586,-2.875,-2.9089,-2.9089,-2.9202,-2.9428,-2.9428,-2.9566,-2.9792,-2.9792,-2.9792,-2.9792,-2.9792,-2.9792,-2.9792,-2.9792,-2.9792,-2.9792,-2.9792,-2.9792,-2.9792,-2.9792,-3.0139,-3.0633,-3.0633,-3.0983,-3.1452,-3.1452,-3.1452,-3.1513,-3.1888,-3.2314,-3.2695,-3.3059,-3.3467,-3.385,-3.4099,-3.4205,-3.4238,-3.4538,-3.4892,-3.5319,-3.5863,-3.632,-3.7081,-3.8674,-3.899,-3.908,-3.9328,-3.9388,-3.9388,-3.9388,-3.9388,-3.9388,-3.9388,-3.9388,-3.9388,-3.9388,-3.9388,-3.9388,-3.9388,-3.9388,-3.9388,-3.9388,-3.9388,-3.9388,-3.9388,-3.9388,-3.9388,-3.9388,-3.9388,-3.9388,-3.9388,-3.9388,-3.9388,-3.9388,-3.9388,-3.9388,-1.3641,-1.391,-1.4576,0.0,0.0,0.0,-1.6584,-1.6371,0.0,0.0,0.0,0.0,0.0,0.0,0.0,0.0,0.0,0.0,0.0,0.0,0.0,0.0,0.0,0.0,0.0,0.0,-2.7833,-2.7833,-2.7883,-2.7921,-2.7921,-2.7921,-2.7946,-2.8009,-2.8009,-2.8047,-2.8109,-2.8109,-2.8348,-2.88,-2.88,-2.9139,-2.9691,-2.9691,-2.9729,-2.9792,-2.9792,-2.9792,-2.9792,-2.9792,-2.9792,-2.9792,-2.9792,-2.9792,-2.9792,-2.9792,-2.9792,-2.9792,-2.9792,-2.9792,-2.9792,-2.9792,-2.9792,-2.9972,-3.0796,-3.1044,-3.1217,-3.2033,-3.2285,-3.2444,-3.3015,-3.3189,-3.3326,-3.3939,-3.4705,-3.5324,-3.5432,-3.6102,-3.6931,-3.7738,-3.8107,-3.8497,-3.9119,-3.9239,-3.9269,-3.9373,-3.9388,-3.9388,-3.9388,-3.9388,-3.9388,-3.9388,-3.9388,-3.9388,-3.9388,-3.9388,-3.9388,-3.9388,-3.9388,-3.9388,-3.9388,-3.9388,-3.9388,-3.9388,-3.9388,-3.9388,-3.9388,-3.9388,-3.9388,-3.9388,-3.9388,-3.9388,-1.5367,-1.5618,-1.5982,-1.5756,0.0,0.0,0.0,-1.555,0.0,0.0,0.0,0.0,0.0,0.0,0.0,0.0,0.0,0.0,0.0,0.0,0.0,0.0,0.0,0.0,0.0,0.0,-2.6088,-2.6088,-2.6549,-2.6813,-2.6813,-2.6813,-2.7014,-2.7431,-2.7444,-2.7657,-2.8097,-2.8109,-2.816,-2.8273,-2.8273,-2.8561,-2.9063,-2.9063,-2.9352,-2.9792,-2.9792,-2.9792,-2.9792,-2.9792,-2.9792,-2.9792,-2.9792,-2.9792,-2.9792,-2.9792,-2.9792,-2.9792,-2.9792,-2.9792,-2.9792,-2.9792,-2.9792,-2.983,-2.9998,-3.0075,-3.0101,-3.0292,-3.0355,-3.0381,-3.0496,-3.056,-3.0586,-3.0701,-3.0868,-3.1223,-3.1981,-3.2262,-3.2841,-3.4251,-3.6181,-3.7764,-3.8287,-3.8362,-3.8581,-3.9269,-3.9388,-3.9388,-3.9388,-3.9388,-3.9388,-3.9388,-3.9388,-3.9388,-3.9388,-3.9388,-3.9388,-3.9388,-3.9388,-3.9388,-3.9388,-3.9388,-3.9388,-3.9388,-3.9388,-3.9388,-3.9388,-3.9388,-3.9388,-3.9388,-3.9388,-3.9388,-1.6333,-1.6522,-1.6886,-1.6597,0.0,0.0,0.0,0.0,0.0,0.0,0.0,0.0,0.0,0.0,0.0,0.0,0.0,0.0,0.0,0.0,0.0,0.0,0.0,0.0,0.0,0.0,-2.5209,-2.5209,-2.5473,-2.5749,-2.6047,-2.6059,-2.6323,-2.6889,-2.6901,-2.704,-2.7281,-2.7281,-2.7419,-2.7695,-2.7695,-2.7984,-2.8511,-2.8511,-2.8825,-2.9365,-2.9365,-2.9528,-2.9792,-2.9792,-2.9792,-2.9792,-2.9792,-2.9792,-2.9792,-2.9792,-2.9792,-2.9792,-2.9792,-2.9792,-2.9792,-2.9792,-2.9792,-2.9792,-2.9792,-2.9792,-2.9792,-2.9792,-2.9792,-2.9792,-2.9792,-2.9792,-2.9792,-2.9792,-3.0139,-3.062,-3.1106,-3.1573,-3.2151,-3.2958,-3.4136,-3.5272,-3.6187,-3.7125,-3.8138,-3.9209,-3.9388,-3.9388,-3.9388,-3.9388,-3.9388,-3.9388,-3.9388,-3.9388,-3.9388,-3.9388,-3.9275,-3.8931,-3.8901,-3.8901,-3.8901,-3.8901,-3.9065,-3.9373,-3.908,-3.908,-3.9388,-3.9065,-3.908,-3.9388,-3.9388,-3.9388,0.0,0.0,0.0,0.0,0.0,-1.7275,0.0,0.0,0.0,-1.6807,0.0,0.0,0.0,0.0,0.0,0.0,0.0,0.0,0.0,0.0,0.0,0.0,0.0,0.0,0.0,0.0,-2.4205,-2.46,-2.4424,-2.4657,-2.541,-2.5536,-2.5812,-2.6311,-2.6436,-2.6499,-2.6499,-2.6499,-2.6713,-2.7165,-2.7165,-2.7419,-2.7946,-2.7946,-2.8247,-2.8737,-2.8737,-2.9101,-2.9628,-2.9628,-2.9691,-2.9792,-2.9792,-2.9792,-2.9792,-2.9792,-2.9792,-2.9792,-2.9792,-2.9792,-2.9792,-2.9792,-2.9792,-2.9792,-2.9792,-2.9792,-2.9792,-2.9792,-2.9792,-2.9792,-2.9792,-2.9792,-2.9792,-2.9792,-3.0381,-3.0932,-3.0932,-3.1549,-3.2083,-3.2083,-3.2083,-3.2563,-3.4214,-3.5589,-3.6981,-3.8426,-3.8661,-3.882,-3.9328,-3.9149,-3.9,-3.9,-3.9,-3.9,-3.9,-3.9,-3.8796,-3.8242,-3.8197,-3.8197,-3.8197,-3.8197,-3.8467,-3.902,-3.8482,-3.8482,-3.9,-3.8601,-3.8736,-3.9388,-3.9388,-3.9388,0.0,0.0,0.0,0.0,-1.9183,0.0,0.0,0.0,-1.682,-1.5462,0.0,0.0,0.0,0.0,0.0,0.0,0.0,0.0,0.0,0.0,0.0,0.0,0.0,0.0,0.0,0.0,0.0,-2.3941,-2.3163,-2.3276,-2.482,-2.5347,-2.5624,-2.5686,-2.6223,-2.6499,-2.6499,-2.6499,-2.6524,-2.6587,-2.6587,-2.6876,-2.7369,-2.7369,-2.767,-2.8197,-2.8197,-2.8511,-2.8988,-2.8988,-2.9327,-2.9792,-2.9792,-2.9792,-2.9792,-2.9792,-2.9792,-2.9792,-2.9792,-2.9792,-2.9792,-2.9792,-2.9792,-2.9792,-2.9792,-2.9792,-2.9792,-2.9792,-2.9792,-2.9792,-2.9792,-2.9792,-2.9792,-2.9792,-2.9895,-2.9972,-2.9972,-3.0037,-3.0113,-3.0113,-3.0113,-3.0973,-3.3613,-3.3557,-3.3788,-3.5677,-3.5953,-3.6791,-3.9089,-3.8377,-3.7644,-3.7644,-3.7644,-3.7644,-3.7644,-3.7644,-3.7599,-3.7524,-3.7524,-3.7524,-3.7524,-3.7524,-3.7554,-3.7644,-3.7554,-3.7554,-3.7644,-3.8138,-3.8736,-3.9388,-3.9388,-3.9388,0.0,0.0,0.0,0.0,0.0,0.0,0.0,0.0,-1.6773,0.0,0.0,0.0,0.0,0.0,0.0,0.0,0.0,0.0,0.0,0.0,0.0,0.0,0.0,0.0,0.0,0.0,0.0,0.0,0.0,-2.1594,-2.3276,-2.3847,-2.4607,-2.5561,-2.5871,-2.616,-2.6499,-2.6499,-2.6499,-2.6499,-2.6499,-2.6612,-2.6839,-2.6839,-2.714,-2.7632,-2.7632,-2.7946,-2.8473,-2.8762,-2.9038,-2.9327,-2.9666,-2.9792,-2.9792,-2.9792,-2.9792,-2.9792,-2.9792,-2.9792,-2.9792,-2.9792,-2.9792,-2.9792,-2.9792,-2.9792,-2.9792,-2.9792,-2.9792,-2.9792,-2.9792,-2.9792,-2.9792,-2.9792,-2.9792,-2.9792,-2.9792,-2.9792,-2.9792,-2.9792,-2.9792,-3.0355,-3.2069,-3.2227,-3.2599,-3.4172,-3.5034,-3.5908,-3.7015,-3.7105,-3.706,-3.706,-3.727,-3.7404,-3.7404,-3.7404,-3.7255,-3.6896,-3.6881,-3.6881,-3.6881,-3.721,-3.7404,-3.7404,-3.706,-3.7045,-3.7404,-3.733,-3.7808,-3.8841,-3.923,-3.9388,-1.877,0.0,0.0,0.0,0.0,0.0,0.0,0.0,0.0,0.0,0.0,0.0,0.0,0.0,0.0,0.0,0.0,0.0,0.0,0.0,0.0,0.0,0.0,0.0,0.0,0.0,0.0,0.0,0.0,0.0,-2.1757,-2.2493,-2.3496,-2.487,-2.536,-2.5799,-2.6248,-2.6411,-2.6499,-2.6499,-2.6499,-2.6499,-2.6499,-2.6499,-2.6713,-2.709,-2.709,-2.7369,-2.7908,-2.831,-2.8612,-2.8938,-2.939,-2.9654,-2.9792,-2.9792,-2.9792,-2.9792,-2.9792,-2.9792,-2.9792,-2.9792,-2.9792,-2.9792,-2.9792,-2.9792,-2.9792,-2.9792,-2.9792,-2.9792,-2.9792,-2.9792,-2.9792,-2.9792,-2.9792,-2.9792,-2.9792,-2.9792,-2.9792,-2.9792,-2.9792,-2.9998,-3.0696,-3.1033,-3.1613,-3.2897,-3.4002,-3.4706,-3.4706,-3.5112,-3.5389,-3.5389,-3.6031,-3.6462,-3.6462,-3.673,-3.6701,-3.6252,-3.6222,-3.6222,-3.6222,-3.6641,-3.6881,-3.6881,-3.6447,-3.6432,-3.6881,-3.6611,-3.6971,-3.7883,-3.8736,-3.923,0.0,0.0,0.0,-1.8536,0.0,0.0,0.0,0.0,-1.784,0.0,0.0,0.0,0.0,0.0,-1.5512,-1.4997,0.0,0.0,0.0,0.0,0.0,0.0,0.0,0.0,0.0,0.0,0.0,0.0,0.0,0.0,-2.0591,-2.1744,-2.2581,-2.3158,-2.4757,-2.5598,-2.5624,-2.6223,-2.6499,-2.6499,-2.6499,-2.6499,-2.6499,-2.6499,-2.6499,-2.6524,-2.6524,-2.6839,-2.7341,-2.7331,-2.7959,-2.8888,-2.8913,-2.9302,-2.9792,-2.9792,-2.9792,-2.9792,-2.9792,-2.9792,-2.9792,-2.9792,-2.9792,-2.9792,-2.9792,-2.9792,-2.9792,-2.9792,-2.9792,-2.9792,-2.9792,-2.9792,-2.9792,-2.9792,-2.9792,-2.9792,-2.9792,-2.9792,-2.9792,-2.9792,-2.9792,-2.9792,-2.983,-2.9856,-3.0292,-3.1576,-3.2299,-3.2713,-3.2713,-3.2232,-3.1859,-3.1859,-3.3206,-3.4119,-3.4119,-3.5012,-3.5549,-3.5534,-3.5534,-3.5534,-3.5534,-3.5549,-3.5564,-3.5564,-3.5549,-3.5549,-3.5564,-3.6193,-3.6507,-3.6582,-3.7838,-3.8781,0.0,0.0,-1.9636,-1.8696,0.0,0.0,0.0,0.0,0.0,0.0,0.0,0.0,0.0,0.0,-1.563,-1.5462,-1.5135,0.0,0.0,0.0,0.0,0.0,0.0,0.0,0.0,0.0,0.0,0.0,0.0,0.0,0.0,-2.0966,-2.2184,-2.307,-2.4054,-2.4883,-2.5586,-2.5787,-2.6109,-2.6499,-2.6499,-2.6499,-2.6499,-2.6499,-2.6499,-2.6499,-2.6499,-2.66,-2.6801,-2.7165,-2.7507,-2.7908,-2.8599,-2.9013,-2.9264,-2.9654,-2.9792,-2.9792,-2.9792,-2.9792,-2.9792,-2.9792,-2.9792,-2.9792,-2.9792,-2.9792,-2.9792,-2.9792,-2.9792,-2.9792,-2.9792,-2.9792,-2.9792,-2.9792,-2.9792,-2.9792,-2.9792,-2.9792,-2.9792,-2.9792,-2.9792,-2.9792,-2.9792,-2.9792,-3.0152,-3.1193,-3.1536,-3.1888,-3.2522,-3.2429,-3.255,-3.315,-3.3671,-3.4279,-3.4953,-3.5311,-3.5504,-3.5504,-3.5504,-3.5504,-3.5504,-3.5504,-3.5504,-3.5504,-3.5504,-3.5504,-3.5504,-3.5729,-3.6058,-3.6492,-3.6926,-3.7479,-1.8713,-1.9009,0.0,-1.8554,-1.8416,0.0,-1.7423,0.0,0.0,0.0,0.0,0.0,0.0,0.0,-1.5878,-1.5559,-1.5161,-1.4632,0.0,0.0,0.0,0.0,0.0,0.0,0.0,0.0,-1.551,-1.5957,0.0,0.0,0.0,0.0,-2.1393,-2.2493,-2.3489,-2.433,-2.5021,-2.5398,-2.5787,-2.6185,-2.6399,-2.6499,-2.6499,-2.6499,-2.6499,-2.6499,-2.6499,-2.6499,-2.6524,-2.6876,-2.714,-2.7356,-2.8059,-2.8549,-2.8963,-2.9578,-2.9792,-2.9792,-2.9792,-2.9792,-2.9792,-2.9792,-2.9792,-2.9792,-2.9792,-2.9792,-2.9792,-2.9792,-2.9792,-2.9792,-2.9792,-2.9792,-2.9792,-2.9792,-2.9792,-2.9792,-2.9792,-2.9792,-2.9792,-2.9792,-2.9792,-2.9792,-2.9792,-2.9792,-2.9998,-3.062,-3.0696,-3.0908,-3.1513,-3.1586,-3.1842,-3.2442,-3.282,-3.3394,-3.4375,-3.4773,-3.4953,-3.4953,-3.5311,-3.5504,-3.5504,-3.5504,-3.5504,-3.5504,-3.5504,-3.5504,-3.5504,-3.5504,-3.5729,-3.6133,-3.6133,-3.6342]}]]